[[{"header":{"parameterUnit":"m.s-1","parameterCategory":1,"la1":30.6,"la2":28.766,"lo1":-90.7593,"lo2":-88.6598,"dy":0.0162,"dx":0.0183,"nx":116,"ny":114,"refTime":"2023-03-03T06:00:00:Z","depth":0,"parameterNumber":2,"parameterNumberName":"U-component_of_WINDS"},"data":[0.0,0.0,0.0,0.0,0.0,0.0,0.0,0.0,0.0,0.0,0.0,0.0,0.0,0.0,0.0,0.0,0.0,0.0,0.0,0.0,0.0,0.0,0.0,0.0,0.0,0.0,0.0,0.0,0.0,0.0,0.0,0.0,0.0,0.0,0.0,0.0,0.0,0.0,0.0,0.0,0.0,0.0,0.0,0.0,0.0,0.0,0.0,0.0,0.0,0.0,0.0,0.0,0.0,0.0,0.0,0.0,0.0,0.0,0.0,0.0,0.0,0.0,0.0,0.0,0.0,0.0,0.0,0.0,0.0,0.0,0.0,0.0,0.0,0.0,0.0,0.0,0.0,0.0,0.0,0.0,0.0,0.0,0.0,0.0,0.0,0.0,0.0,0.0,0.0,0.0,0.0,0.0,0.0,0.0,0.0,0.0,0.0,0.0,0.0,0.0,0.0,0.0,0.0,0.0,0.0,0.0,0.0,0.0,0.0,0.0,0.0,0.0,0.0,0.0,0.0,0.0,0.0,0.0,0.0,0.0,0.0,0.0,0.0,0.0,0.0,0.0,0.0,0.0,0.0,0.0,0.0,0.0,0.0,0.0,0.0,0.0,0.0,0.0,0.0,0.0,0.0,0.0,0.0,0.0,0.0,0.0,0.0,0.0,0.0,0.0,0.0,0.0,0.0,0.0,0.0,0.0,0.0,0.0,0.0,0.0,0.0,0.0,0.0,0.0,0.0,0.0,0.0,0.0,0.0,0.0,0.0,0.0,0.0,0.0,0.0,0.0,0.0,0.0,0.0,0.0,0.0,0.0,0.0,0.0,0.0,0.0,0.0,0.0,0.0,0.0,0.0,0.0,0.0,0.0,0.0,0.0,0.0,0.0,0.0,0.0,0.0,0.0,0.0,0.0,0.0,0.0,0.0,0.0,0.0,0.0,0.0,0.0,0.0,0.0,0.0,0.0,0.0,0.0,0.0,0.0,0.0,0.0,0.0,0.0,0.0,0.0,0.0,0.0,0.0,0.0,0.0,0.0,0.0,0.0,0.0,0.0,0.0,0.0,0.0,0.0,0.0,0.0,0.0,0.0,0.0,0.0,0.0,0.0,0.0,0.0,0.0,0.0,0.0,0.0,0.0,0.0,0.0,0.0,0.0,0.0,0.0,0.0,0.0,0.0,0.0,0.0,0.0,0.0,0.0,0.0,0.0,0.0,0.0,0.0,0.0,0.0,0.0,0.0,0.0,0.0,0.0,0.0,0.0,0.0,0.0,0.0,0.0,0.0,0.0,0.0,0.0,0.0,0.0,0.0,0.0,0.0,0.0,0.0,0.0,0.0,0.0,0.0,0.0,0.0,0.0,0.0,0.0,0.0,0.0,0.0,0.0,0.0,0.0,0.0,0.0,0.0,0.0,0.0,0.0,0.0,0.0,0.0,0.0,0.0,0.0,0.0,0.0,0.0,0.0,0.0,0.0,0.0,0.0,0.0,0.0,0.0,0.0,0.0,0.0,0.0,0.0,0.0,0.0,0.0,0.0,0.0,0.0,0.0,0.0,0.0,0.0,0.0,0.0,0.0,0.0,0.0,0.0,0.0,0.0,0.0,0.0,0.0,0.0,0.0,0.0,0.0,0.0,0.0,0.0,0.0,0.0,0.0,0.0,0.0,0.0,0.0,0.0,0.0,0.0,0.0,0.0,0.0,0.0,0.0,0.0,0.0,0.0,0.0,0.0,0.0,0.0,0.0,0.0,0.0,0.0,0.0,0.0,0.0,0.0,0.0,0.0,0.0,0.0,0.0,0.0,0.0,0.0,0.0,0.0,0.0,0.0,0.0,0.0,0.0,0.0,0.0,0.0,0.0,0.0,0.0,0.0,0.0,0.0,0.0,0.0,0.0,0.0,0.0,0.0,0.0,0.0,0.0,0.0,0.0,0.0,0.0,0.0,0.0,0.0,0.0,0.0,0.0,0.0,0.0,0.0,0.0,0.0,0.0,0.0,0.0,0.0,0.0,0.0,0.0,0.0,0.0,0.0,0.0,0.0,0.0,0.0,0.0,0.0,0.0,0.0,0.0,0.0,0.0,0.0,0.0,0.0,0.0,0.0,0.0,0.0,0.0,0.0,0.0,0.0,0.0,0.0,0.0,0.0,0.0,0.0,0.0,0.0,0.0,0.0,0.0,0.0,0.0,0.0,0.0,0.0,0.0,0.0,0.0,0.0,0.0,0.0,0.0,0.0,0.0,0.0,0.0,0.0,0.0,0.0,0.0,0.0,0.0,0.0,0.0,0.0,0.0,0.0,0.0,0.0,0.0,0.0,0.0,0.0,0.0,0.0,0.0,0.0,0.0,0.0,0.0,0.0,0.0,0.0,0.0,0.0,0.0,0.0,0.0,0.0,0.0,0.0,0.0,0.0,0.0,0.0,0.0,0.0,0.0,0.0,0.0,0.0,0.0,0.0,0.0,0.0,0.0,0.0,0.0,0.0,0.0,0.0,0.0,0.0,0.0,0.0,0.0,0.0,0.0,0.0,0.0,0.0,0.0,0.0,0.0,0.0,0.0,0.0,0.0,0.0,0.0,0.0,0.0,0.0,0.0,0.0,0.0,0.0,0.0,0.0,0.0,0.0,0.0,0.0,0.0,0.0,0.0,0.0,0.0,0.0,0.0,0.0,0.0,0.0,0.0,0.0,0.0,0.0,0.0,0.0,0.0,0.0,0.0,0.0,0.0,0.0,0.0,0.0,0.0,0.0,0.0,0.0,0.0,0.0,0.0,0.0,0.0,0.0,0.0,0.0,0.0,0.0,0.0,0.0,0.0,0.0,0.0,0.0,0.0,0.0,0.0,0.0,0.0,0.0,0.0,0.0,0.0,0.0,0.0,0.0,0.0,0.0,0.0,0.0,0.0,0.0,0.0,0.0,0.0,0.0,0.0,0.0,0.0,0.0,0.0,0.0,0.0,0.0,0.0,0.0,0.0,0.0,0.0,0.0,0.0,0.0,0.0,0.0,0.0,0.0,0.0,0.0,0.0,0.0,0.0,0.0,0.0,0.0,0.0,0.0,0.0,0.0,0.0,0.0,0.0,0.0,0.0,0.0,0.0,0.0,0.0,0.0,0.0,0.0,0.0,0.0,0.0,0.0,0.0,0.0,0.0,0.0,0.0,0.0,0.0,0.0,0.0,0.0,0.0,0.0,0.0,0.0,0.0,0.0,0.0,0.0,0.0,0.0,0.0,0.0,0.0,0.0,0.0,0.0,0.0,0.0,0.0,0.0,0.0,0.0,0.0,0.0,0.0,0.0,0.0,0.0,0.0,0.0,0.0,0.0,0.0,0.0,0.0,0.0,0.0,0.0,0.0,0.0,0.0,0.0,0.0,0.0,0.0,0.0,0.0,0.0,0.0,0.0,0.0,0.0,0.0,0.0,0.0,0.0,0.0,0.0,0.0,0.0,0.0,0.0,0.0,0.0,0.0,0.0,0.0,0.0,0.0,0.0,0.0,0.0,0.0,0.0,0.0,0.0,0.0,0.0,0.0,0.0,0.0,0.0,0.0,0.0,0.0,0.0,0.0,0.0,0.0,0.0,0.0,0.0,0.0,0.0,0.0,0.0,0.0,0.0,0.0,0.0,0.0,0.0,0.0,0.0,0.0,0.0,0.0,0.0,0.0,0.0,0.0,0.0,0.0,0.0,0.0,0.0,0.0,0.0,0.0,0.0,0.0,0.0,0.0,0.0,0.0,0.0,0.0,0.0,0.0,0.0,0.0,0.0,0.0,0.0,0.0,0.0,0.0,0.0,0.0,0.0,0.0,0.0,0.0,0.0,0.0,0.0,0.0,0.0,0.0,0.0,0.0,0.0,0.0,0.0,0.0,0.0,0.0,0.0,0.0,0.0,0.0,0.0,0.0,0.0,0.0,0.0,0.0,0.0,0.0,0.0,0.0,0.0,0.0,0.0,0.0,0.0,0.0,0.0,0.0,0.0,0.0,0.0,0.0,0.0,0.0,0.0,0.0,0.0,0.0,0.0,0.0,0.0,0.0,0.0,0.0,0.0,0.0,0.0,0.0,0.0,0.0,0.0,0.0,0.0,0.0,0.0,0.0,0.0,0.0,0.0,0.0,0.0,0.0,0.0,0.0,0.0,0.0,0.0,0.0,0.0,0.0,0.0,0.0,0.0,0.0,0.0,0.0,0.0,0.0,0.0,0.0,0.0,0.0,0.0,0.0,0.0,0.0,0.0,0.0,0.0,0.0,0.0,0.0,0.0,0.0,0.0,0.0,0.0,0.0,0.0,0.0,0.0,0.0,0.0,0.0,0.0,0.0,0.0,0.0,0.0,0.0,0.0,0.0,0.0,0.0,0.0,0.0,0.0,0.0,0.0,0.0,0.0,0.0,0.0,0.0,0.0,0.0,0.0,0.0,0.0,0.0,0.0,0.0,0.0,0.0,0.0,0.0,0.0,0.0,0.0,0.0,0.0,0.0,0.0,0.0,0.0,0.0,0.0,0.0,0.0,0.0,0.0,0.0,0.0,0.0,0.0,0.0,0.0,0.0,0.0,0.0,0.0,0.0,0.0,0.0,0.0,0.0,0.0,0.0,0.0,0.0,0.0,0.0,0.0,0.0,0.0,0.0,0.0,0.0,0.0,0.0,0.0,0.0,0.0,0.0,0.0,0.0,0.0,0.0,0.0,0.0,0.0,0.0,0.0,0.0,0.0,0.0,0.0,0.0,0.0,0.0,0.0,0.0,0.0,0.0,0.0,0.0,0.0,0.0,0.0,0.0,0.0,0.0,0.0,0.0,0.0,0.0,0.0,0.0,0.0,0.0,0.0,0.0,0.0,0.0,0.0,0.0,0.0,0.0,0.0,0.0,0.0,0.0,0.0,0.0,0.0,0.0,0.0,0.0,0.0,0.0,0.0,0.0,0.0,0.0,0.0,0.0,0.0,0.0,0.0,0.0,0.0,0.0,0.0,0.0,0.0,0.0,0.0,0.0,0.0,0.0,0.0,0.0,0.0,0.0,0.0,0.0,0.0,0.0,0.0,0.0,0.0,0.0,0.0,0.0,0.0,0.0,0.0,0.0,0.0,0.0,0.0,0.0,0.0,0.0,0.0,0.0,0.0,0.0,0.0,0.0,0.0,0.0,0.0,0.0,0.0,0.0,0.0,0.0,0.0,0.0,0.0,0.0,0.0,0.0,0.0,0.0,0.0,0.0,0.0,0.0,0.0,0.0,0.0,0.0,0.0,0.0,0.0,0.0,0.0,0.0,0.0,0.0,0.0,0.0,0.0,0.0,0.0,0.0,0.0,0.0,0.0,0.0,0.0,0.0,0.0,0.0,0.0,0.0,0.0,0.0,0.0,0.0,0.0,0.0,0.0,0.0,0.0,0.0,0.0,0.0,0.0,0.0,0.0,0.0,0.0,0.0,0.0,0.0,0.0,0.0,0.0,0.0,0.0,0.0,0.0,0.0,0.0,0.0,0.0,0.0,0.0,0.0,0.0,0.0,0.0,0.0,0.0,0.0,0.0,0.0,0.0,0.0,0.0,0.0,0.0,0.0,0.0,0.0,0.0,0.0,0.0,0.0,0.0,0.0,0.0,0.0,0.0,0.0,0.0,0.0,0.0,0.0,0.0,0.0,0.0,0.0,0.0,0.0,0.0,0.0,0.0,0.0,0.0,0.0,0.0,0.0,0.0,0.0,0.0,0.0,0.0,0.0,0.0,0.0,0.0,0.0,0.0,0.0,0.0,0.0,0.0,0.0,0.0,0.0,0.0,0.0,0.0,0.0,0.0,0.0,0.0,0.0,0.0,0.0,0.0,0.0,0.0,0.0,0.0,0.0,0.0,0.0,0.0,0.0,0.0,0.0,0.0,0.0,0.0,0.0,0.0,0.0,0.0,0.0,0.0,0.0,0.0,0.0,0.0,0.0,0.0,0.0,0.0,0.0,0.0,0.0,0.0,0.0,0.0,0.0,0.0,0.0,0.0,0.0,0.0,0.0,0.0,0.0,0.0,0.0,0.0,0.0,0.0,0.0,0.0,0.0,0.0,0.0,0.0,0.0,0.0,0.0,0.0,0.0,0.0,0.0,0.0,0.0,0.0,0.0,0.0,0.0,-4.5336,-4.5414,0.0,0.0,0.0,0.0,0.0,0.0,0.0,0.0,0.0,0.0,0.0,0.0,0.0,0.0,0.0,0.0,0.0,0.0,0.0,0.0,0.0,0.0,0.0,0.0,0.0,0.0,0.0,0.0,0.0,0.0,0.0,0.0,0.0,0.0,0.0,0.0,0.0,0.0,-3.8788,-4.0114,-4.1356,-4.0585,-4.0907,-4.213,0.0,0.0,0.0,0.0,0.0,0.0,0.0,0.0,0.0,0.0,0.0,0.0,0.0,0.0,0.0,0.0,0.0,0.0,0.0,0.0,0.0,0.0,0.0,0.0,0.0,0.0,0.0,0.0,0.0,0.0,0.0,0.0,0.0,0.0,0.0,0.0,0.0,0.0,0.0,0.0,0.0,0.0,0.0,0.0,0.0,0.0,0.0,0.0,0.0,0.0,0.0,0.0,0.0,0.0,0.0,0.0,0.0,0.0,0.0,0.0,0.0,0.0,0.0,0.0,0.0,0.0,0.0,0.0,0.0,0.0,-4.5555,-4.5613,0.0,0.0,0.0,0.0,0.0,0.0,0.0,0.0,0.0,0.0,0.0,0.0,0.0,0.0,0.0,0.0,0.0,0.0,0.0,0.0,0.0,0.0,0.0,0.0,-3.9528,-3.8075,-3.7882,-3.7233,0.0,0.0,0.0,0.0,0.0,0.0,0.0,0.0,0.0,0.0,-3.9488,-4.09,-4.2478,-4.1493,-4.2028,-4.3786,-4.2844,0.0,0.0,0.0,0.0,0.0,0.0,0.0,0.0,0.0,0.0,0.0,0.0,0.0,0.0,0.0,0.0,0.0,0.0,0.0,0.0,0.0,0.0,0.0,0.0,0.0,0.0,0.0,0.0,0.0,0.0,0.0,0.0,0.0,0.0,0.0,0.0,0.0,0.0,0.0,0.0,0.0,0.0,0.0,0.0,0.0,0.0,0.0,0.0,0.0,0.0,0.0,0.0,0.0,0.0,0.0,0.0,0.0,0.0,0.0,0.0,0.0,0.0,0.0,-4.5613,-4.6002,-4.5982,-4.5317,-4.5375,-4.6002,-4.6002,-4.6002,-4.5982,-4.5846,0.0,0.0,0.0,0.0,0.0,0.0,0.0,0.0,0.0,0.0,0.0,0.0,0.0,0.0,0.0,0.0,0.0,0.0,0.0,0.0,0.0,-4.0177,-3.9842,-3.8991,-3.8343,-3.757,0.0,0.0,0.0,0.0,0.0,0.0,0.0,-3.693,-3.8149,-3.9145,-4.1535,-4.318,-4.4078,-4.2614,-4.323,-4.5504,-4.4009,-4.3879,-4.4851,0.0,0.0,0.0,0.0,0.0,0.0,0.0,0.0,0.0,0.0,0.0,0.0,0.0,0.0,0.0,0.0,0.0,0.0,0.0,0.0,0.0,0.0,0.0,0.0,0.0,0.0,0.0,0.0,0.0,0.0,0.0,0.0,0.0,0.0,0.0,0.0,0.0,0.0,0.0,0.0,0.0,-4.2028,-4.2257,0.0,0.0,0.0,0.0,0.0,0.0,0.0,0.0,0.0,0.0,0.0,0.0,0.0,-4.4909,-4.4792,-4.4909,-4.4889,-4.4812,-4.5613,-4.6002,-4.6002,-4.5885,-4.5905,-4.6002,-4.6002,0.0,-4.5944,-4.5239,0.0,0.0,0.0,0.0,0.0,0.0,0.0,0.0,0.0,0.0,0.0,0.0,0.0,0.0,0.0,0.0,0.0,0.0,0.0,0.0,0.0,-4.0108,-3.9853,-3.9103,-3.8775,-3.807,-3.6788,-3.6365,0.0,0.0,0.0,0.0,0.0,-3.7142,-3.9123,-4.1431,-4.2079,-4.2857,-4.3694,-4.2027,-4.2409,-4.4421,-4.371,-4.417,-4.5491,-4.5846,0.0,0.0,0.0,0.0,0.0,0.0,0.0,0.0,0.0,0.0,0.0,0.0,0.0,0.0,0.0,0.0,0.0,0.0,0.0,0.0,0.0,0.0,0.0,0.0,0.0,0.0,0.0,0.0,0.0,0.0,0.0,0.0,0.0,0.0,0.0,0.0,0.0,0.0,0.0,-4.2671,-4.3342,-4.2877,-4.3935,-4.4517,0.0,0.0,0.0,0.0,0.0,0.0,0.0,0.0,0.0,-4.598,-4.5661,-4.5472,-4.5472,-4.5472,-4.5472,-4.5472,-4.6327,-4.6463,-4.6021,-4.6502,-4.6463,-4.6002,-4.6002,-4.6002,-4.5963,-4.5613,-4.5472,-4.5472,0.0,0.0,0.0,0.0,-4.6002,-4.6002,0.0,0.0,0.0,0.0,0.0,0.0,0.0,0.0,0.0,0.0,0.0,0.0,-3.9954,-4.0067,-3.9929,-3.9401,-3.9229,-3.8631,-3.7442,-3.7161,0.0,0.0,0.0,0.0,-3.6135,-3.7777,-4.0104,-4.3104,-4.2236,-4.2302,-4.3165,-4.1651,-4.1905,-4.3634,-4.3614,-4.4486,-4.5958,-4.5958,-4.5958,-4.5958,0.0,0.0,0.0,0.0,0.0,0.0,0.0,0.0,0.0,0.0,0.0,0.0,0.0,0.0,0.0,0.0,0.0,0.0,0.0,0.0,0.0,0.0,0.0,0.0,0.0,0.0,0.0,0.0,0.0,0.0,0.0,0.0,0.0,0.0,0.0,0.0,0.0,-4.315,-4.373,-4.3133,-4.4026,-4.4485,0.0,0.0,0.0,0.0,0.0,0.0,-4.5678,-4.532,-4.5389,-4.5982,-4.621,-4.6327,-4.6327,-4.654,-4.654,-4.6346,-4.6987,-4.6832,-4.6041,-4.6909,-4.6948,-4.6346,-4.6565,-4.6682,-4.6623,-4.6177,-4.6002,-4.6002,-4.6002,-4.6002,-4.6002,-4.6002,-4.6002,-4.6002,0.0,0.0,0.0,0.0,0.0,0.0,0.0,0.0,0.0,0.0,0.0,-4.0106,-4.0077,-4.0158,-4.0223,-4.0311,-3.9692,-3.9258,-3.9169,-3.8392,-3.7911,-3.7873,-3.7084,-3.7026,-3.7853,-3.9515,-4.1266,-4.3104,-4.2291,-4.2336,-4.318,-4.2324,-4.286,-4.453,-4.4465,-4.4949,-4.5814,-4.5814,-4.5814,-4.5821,-4.5886,0.0,0.0,0.0,0.0,0.0,0.0,0.0,0.0,0.0,0.0,0.0,0.0,0.0,0.0,0.0,0.0,0.0,0.0,0.0,0.0,0.0,0.0,0.0,0.0,0.0,0.0,0.0,0.0,0.0,0.0,0.0,0.0,0.0,0.0,0.0,0.0,0.0,0.0,-4.2177,-4.3615,0.0,0.0,0.0,0.0,-4.3643,-4.5027,-4.562,-4.4909,-4.5548,-4.595,-4.6002,-4.6793,-4.724,-4.724,-4.8055,-4.8055,-4.724,-4.7273,-4.6832,-4.6041,-4.6909,-4.7273,-4.7279,-4.8114,-4.8463,-4.8347,-4.6682,-4.6002,-4.6002,-4.6002,-4.6002,-4.6002,-4.6002,-4.6002,-4.6002,0.0,0.0,0.0,0.0,0.0,0.0,0.0,0.0,0.0,-4.0117,-4.0057,-4.0057,-4.0106,-4.0196,-4.0297,-4.0392,-4.0231,-3.9892,-3.9333,-3.9003,-3.8584,-3.8027,-3.77,-3.818,-3.9592,-4.0189,-4.1362,-4.3104,-4.2244,-4.2279,-4.3115,-4.2271,-4.2769,-4.4415,-4.4368,-4.4858,-4.5676,-4.5764,-4.5807,-4.5807,-4.5834,-4.5854,0.0,0.0,0.0,0.0,0.0,0.0,0.0,0.0,0.0,0.0,0.0,0.0,0.0,0.0,0.0,0.0,0.0,0.0,0.0,0.0,0.0,0.0,0.0,0.0,0.0,0.0,0.0,0.0,0.0,0.0,0.0,0.0,0.0,0.0,0.0,0.0,0.0,-4.3705,-4.4266,0.0,-4.3802,-4.4588,-4.5097,-4.5012,-4.5617,-4.6125,-4.638,-4.6685,-4.684,-4.6832,-4.7686,-4.7881,-4.7312,-4.8153,-4.8444,-4.8133,-4.8716,-4.8522,-4.7706,-4.858,-4.8677,-4.8153,-4.8463,-4.8599,-4.8541,-4.792,-4.7667,-4.7667,-4.7667,-4.7337,-4.6832,-4.6832,-4.6482,-4.6002,0.0,0.0,0.0,0.0,0.0,0.0,0.0,0.0,-3.9833,-4.0078,-3.9818,-3.9722,-3.9998,-4.0196,-4.0306,-4.033,-4.0492,-4.0349,-3.9738,-3.9446,-3.9034,-3.845,-3.843,-3.9084,-4.0477,-4.0496,-4.1208,-4.2662,-4.2077,-4.2104,-4.2662,-4.2643,-4.3239,-4.4316,-4.4605,-4.5056,-4.5603,-4.57,-4.5727,-4.5727,-4.5757,-4.58,-4.5848,0.0,0.0,0.0,0.0,0.0,0.0,0.0,0.0,0.0,0.0,0.0,0.0,0.0,0.0,0.0,0.0,0.0,0.0,0.0,0.0,0.0,0.0,0.0,0.0,0.0,0.0,0.0,0.0,0.0,0.0,0.0,0.0,0.0,0.0,-4.4234,-4.4608,-4.4595,-4.488,-4.4951,-4.4654,-4.4918,-4.5453,-4.6311,-4.6129,-4.6477,-4.7645,-4.7456,-4.7417,-4.7703,-4.8574,-4.8755,-4.8172,-4.9046,-4.9337,-4.9046,-4.9615,-4.944,-4.8638,-4.9499,-4.9576,-4.9046,-4.9357,-4.9473,-4.9473,-4.9473,-4.9473,-4.9415,-4.8832,-4.825,-4.7745,-4.7745,-4.7181,-4.6404,0.0,0.0,0.0,0.0,0.0,0.0,0.0,-3.9519,-3.9223,-4.0002,-3.9362,-3.9121,-3.9835,-4.0139,-4.027,-4.0215,-4.0444,-4.0554,-4.0458,-3.9727,-3.9304,-3.9304,0.0,0.0,-4.0477,-4.0496,-4.0931,-4.1788,-4.1788,-4.1827,-4.1904,-4.3547,-4.4316,-4.4374,-4.5229,-4.5594,-4.5594,-4.5594,-4.5594,-4.5603,-4.5668,-4.57,-4.5704,0.0,0.0,0.0,0.0,0.0,0.0,0.0,0.0,0.0,0.0,0.0,0.0,0.0,0.0,0.0,0.0,0.0,0.0,0.0,0.0,0.0,0.0,0.0,0.0,0.0,0.0,0.0,0.0,0.0,0.0,0.0,0.0,0.0,-4.4594,-4.4613,-4.4646,-4.4647,-4.5356,-4.5563,-4.4846,-4.5506,-4.6352,-4.7227,-4.6447,-4.6693,-4.8405,-4.7751,-4.7719,-4.8566,-4.9495,-4.9965,-4.9945,-5.0794,-5.0794,-4.9945,-4.9945,-4.9499,-4.8716,-4.9557,-4.9945,-4.9984,-5.0833,-5.1202,-5.1202,-5.1202,-5.1202,-5.1027,-4.9337,-4.8658,-4.8638,-4.8638,-4.8075,-4.7181,0.0,0.0,0.0,0.0,0.0,0.0,0.0,-4.0005,-3.9841,-4.0068,-3.9815,-3.9707,-4.0017,-4.0196,-4.0311,-4.0347,-4.0492,-4.0328,-3.9668,-3.9415,-3.9304,-3.9304,0.0,0.0,-4.0496,-4.0496,-4.0931,-4.1788,-4.1788,-4.2431,-4.3624,-4.4085,-4.4643,-4.5248,-4.5498,-4.5594,-4.5594,-4.5594,-4.5594,-4.5594,-4.562,-4.5671,-4.5688,0.0,0.0,0.0,0.0,0.0,0.0,0.0,0.0,0.0,0.0,0.0,0.0,0.0,0.0,0.0,0.0,0.0,0.0,0.0,0.0,0.0,0.0,0.0,0.0,0.0,0.0,0.0,0.0,0.0,0.0,0.0,-4.4415,-4.5331,-4.4697,-4.5104,-4.5478,-4.5465,-4.6279,-4.6712,-4.6454,-4.7262,-4.763,-4.7262,-4.6984,-4.7358,-4.8514,-4.8359,-4.8914,-5.0408,-5.1269,-5.1418,-5.0784,-5.1632,-5.1632,-5.0764,-5.0821,-5.0717,-5.0484,-5.0736,-5.0833,-5.0853,-5.1105,-5.1202,-5.1202,-5.1202,-5.1202,-5.1144,-5.0678,-5.0095,-4.9537,-4.9537,-4.858,-4.7181,0.0,0.0,0.0,0.0,0.0,0.0,0.0,-3.9862,-3.9688,-4.0,-3.9661,-3.9553,-3.9977,-4.0196,-4.0294,-4.0313,-4.0177,-3.9872,-3.9333,-3.8965,-3.8911,-3.9284,0.0,-4.0169,-4.0496,-4.0854,-4.1296,-4.1788,-4.2508,-4.3355,-4.4316,-4.4662,-4.5114,-4.5594,-4.5594,-4.5594,-4.5594,-4.5594,-4.5594,-4.5594,-4.5594,-4.5629,-4.566,-4.5692,-4.5719,-4.5764,-4.5793,-4.4957,-4.386,-4.386,0.0,0.0,0.0,0.0,0.0,0.0,0.0,0.0,0.0,0.0,0.0,0.0,0.0,0.0,0.0,0.0,0.0,0.0,0.0,0.0,0.0,0.0,0.0,0.0,-4.5015,-4.5841,-4.5671,-4.6051,-4.6348,-4.6389,-4.7163,-4.7685,-4.7644,-4.8138,-4.8398,-4.8262,-4.7914,-4.8418,-5.006,-4.9789,-5.0384,-5.2104,-5.264,-5.266,-5.2143,-5.264,-5.264,-5.2143,-5.2195,-5.2039,-5.1702,-5.1702,-5.1514,-5.1202,-5.1202,-5.1202,-5.1202,-5.1202,-5.1202,-5.1202,0.0,0.0,0.0,0.0,-4.8483,-4.7181,0.0,0.0,0.0,0.0,0.0,0.0,0.0,-3.95,-3.9193,-3.9922,-3.9309,-3.9115,-3.9824,-4.0129,-4.0251,-4.0072,-3.9642,-3.9311,-3.915,-3.8527,-3.8488,-3.9265,-3.9477,-3.9919,-4.0631,-4.1508,-4.1981,-4.2077,-4.3566,-4.4355,-4.4451,-4.5248,-4.5594,-4.5594,-4.5594,-4.5594,-4.5594,-4.5594,-4.5594,-4.5594,-4.5594,-4.5594,-4.5603,-4.566,-4.5692,-4.57,-4.5757,-4.5218,-4.4483,-4.4483,0.0,0.0,0.0,0.0,0.0,0.0,0.0,0.0,0.0,0.0,0.0,0.0,0.0,0.0,0.0,0.0,0.0,0.0,0.0,0.0,0.0,0.0,0.0,0.0,-4.5453,-4.6287,-4.7027,-4.7284,-4.7388,-4.7345,-4.8053,-4.8554,-4.8554,-4.8638,-4.9021,-4.9778,-4.9137,-4.9749,-5.2167,-5.1567,0.0,0.0,0.0,-5.3749,-5.3749,-5.3749,-5.3691,-5.3594,-5.3594,-5.3228,-5.2544,-5.2544,-5.2149,-5.1462,-5.1462,-5.1404,-5.1326,-5.1326,-5.1268,-5.1196,-5.1196,-5.1202,-5.1008,-4.9357,-4.8269,-4.7453,0.0,0.0,0.0,0.0,0.0,0.0,0.0,-4.0024,-3.9897,-4.0058,-3.9832,-3.973,-3.9881,-4.0129,-4.0021,-3.9298,-3.93,-3.9013,-3.8303,-3.8738,-3.913,-3.9284,-4.0604,-4.1393,-4.1546,-4.2393,-4.3162,-4.3816,-4.4143,-4.4662,-4.5344,-4.5518,-4.5594,-4.5594,-4.5594,-4.5594,-4.5594,-4.5594,-4.5594,-4.5594,-4.5594,-4.5594,-4.5594,-4.5612,-4.562,-4.562,-4.5637,-4.5109,-4.4423,-4.4423,-4.3892,-4.3225,-4.3225,0.0,0.0,0.0,0.0,0.0,0.0,0.0,0.0,0.0,0.0,0.0,0.0,0.0,0.0,0.0,0.0,0.0,0.0,0.0,0.0,-4.4703,-4.5919,-4.6951,-4.7217,-4.838,-4.8965,-4.8313,-4.8965,-4.9449,-4.9449,-5.0136,-5.0606,-5.067,-5.0557,-5.1017,-5.2244,-5.2148,-5.284,-5.4568,-5.4584,-5.4576,-5.4564,-5.4576,-5.422,-5.353,-5.356,0.0,-5.3376,-5.3376,-5.3286,-5.3138,-5.3138,-5.275,-5.209,-5.209,-5.1703,-5.1127,-5.1171,-5.1202,-5.1066,-5.0037,-4.9537,-4.9163,0.0,0.0,0.0,0.0,0.0,0.0,0.0,-4.0166,-4.0096,-4.0057,-3.9604,-3.9304,-3.9304,-3.9147,-3.8863,-3.8435,-3.8551,-3.8455,-3.8036,-3.9196,-4.0112,-4.0527,-4.1777,-4.245,-4.245,-4.3278,-4.3893,-4.4297,-4.4739,-4.5171,-4.5594,-4.5594,-4.5594,-4.5594,-4.5594,-4.5594,-4.5594,-4.5594,-4.5594,-4.5594,-4.5594,-4.5594,-4.5594,-4.5594,-4.5594,-4.5594,-4.5594,-4.5351,-4.4999,-4.4999,-4.475,-4.4457,-4.4457,-4.4506,-4.4311,0.0,0.0,0.0,0.0,0.0,0.0,0.0,0.0,0.0,0.0,0.0,0.0,0.0,0.0,-4.4146,0.0,0.0,-4.5475,-4.5892,-4.6642,-4.7495,-4.8387,-4.922,-4.9608,-4.9201,-4.9864,-5.0521,-5.0966,-5.1392,-5.1803,-5.2163,-5.2225,-5.262,-5.3511,-5.3549,-5.4138,-5.5412,-5.5407,-5.5399,-5.5407,-5.5399,-5.5186,-5.4741,-5.4785,-5.4595,-5.4204,-5.4204,-5.3986,-5.3601,-5.3601,-5.3349,-5.2942,-5.2942,-5.2471,-5.1716,-5.1768,-5.1281,-5.0503,-5.0062,-4.9615,-4.9124,0.0,0.0,0.0,0.0,0.0,0.0,0.0,0.0,-4.0067,-4.0007,-3.9385,-3.8936,-3.8936,-3.8528,-3.8144,-3.7852,-3.7939,-3.7993,0.0,-3.9734,-4.1066,-4.1769,-4.2777,-4.3335,-4.3335,-4.4124,-4.4547,-4.4547,-4.5267,-4.5594,-4.5594,-4.5594,-4.5594,-4.5594,-4.5594,-4.5594,-4.5594,-4.5594,-4.5594,-4.5594,-4.5594,-4.5594,-4.5594,-4.5629,-4.5646,-4.5637,-4.5603,-4.5612,-4.5646,-4.5646,-4.5676,-4.5719,-4.573,-4.5655,-4.5286,-4.3841,-4.3795,0.0,0.0,0.0,0.0,0.0,0.0,0.0,0.0,0.0,-4.3781,-4.3882,-4.4505,-4.5025,-4.5025,-4.57,-4.6455,-4.7112,-4.7519,-4.8223,-4.9543,-4.9912,-5.0054,-5.0047,-5.0764,-5.1535,-5.2225,-5.2388,-5.2809,-5.3691,-5.3749,-5.4136,-5.4987,-5.5026,-5.5335,-5.5993,-5.6012,-5.6012,-5.6012,-5.6012,-5.6012,-5.6012,-5.6012,-5.5653,-5.5028,-5.5028,-5.4684,-5.4056,-5.3909,-5.3831,-5.3831,-5.3657,-5.3172,-5.2547,-5.2595,-5.1697,-5.0361,-5.0212,-4.9707,-4.9085,0.0,0.0,0.0,0.0,0.0,0.0,0.0,0.0,0.0,-4.0007,-3.9867,-3.9767,-3.9767,-3.9861,-3.9399,-3.8086,-3.7981,-3.7995,-3.7995,-4.0296,-4.17,-4.1788,-4.3316,-4.4162,-4.4162,-4.5017,-4.546,-4.546,-4.5556,-4.5594,-4.5594,-4.5594,-4.5594,-4.5594,-4.5594,-4.5594,-4.5594,-4.5594,-4.5594,-4.5594,-4.5594,-4.5594,-4.5612,-4.5727,-4.5778,-4.5764,-4.5635,-4.5676,-4.5778,-4.5778,-4.5786,-4.5794,-4.5858,-4.5353,-4.4566,-4.3728,-4.3009,-4.2285,-4.1385,-4.1774,-4.2811,-4.439,-4.4093,-4.3839,0.0,0.0,-4.4779,-4.5545,-4.5786,-4.5866,-4.5866,-4.6515,-4.7112,-4.7256,-4.8483,-4.955,-4.9839,-5.05,-5.094,-5.0959,-5.1664,-5.2184,-5.2283,-5.2934,-5.3731,-5.4581,-5.4658,-5.5006,-5.5818,-5.5877,-5.5915,-5.6012,-5.6012,-5.6012,-5.6012,-5.6012,-5.6012,-5.6012,-5.6012,-5.5954,-5.5877,-5.5877,-5.5827,-5.5692,-5.4984,-5.4675,-5.4617,-5.3823,-5.3452,-5.3367,-5.3375,-5.2857,-5.2033,-5.1326,-5.0989,-5.0794,0.0,0.0,0.0,0.0,0.0,0.0,0.0,0.0,0.0,0.0,-3.9566,-3.9223,-3.9266,-3.9021,-3.8618,-3.8048,-3.846,0.0,-3.8765,-4.0681,-4.2019,-4.2527,-4.3682,-4.4528,-4.5056,-4.5421,-4.5594,-4.5594,-4.5594,-4.5594,-4.5594,-4.5594,-4.5594,-4.5594,-4.5594,-4.5594,-4.5594,-4.5594,-4.5594,-4.5594,-4.5594,-4.5654,-4.5712,-4.5778,-4.5866,-4.5885,-4.52,-4.5026,0.0,0.0,-4.506,-4.5206,-4.5728,-4.5301,-4.4452,-4.3716,-4.3231,-4.299,-4.3114,-4.3422,-4.3946,-4.5,-4.5034,-4.4983,-4.5712,-4.566,-4.5553,-4.5914,-4.6,-4.6152,-4.6655,-4.7031,-4.7583,0.0,-4.9362,-5.0008,-5.0512,-5.0914,-5.1328,-5.1748,-5.2542,-5.3044,-5.3,-5.377,-5.4597,-5.5432,-5.5509,-5.5644,-5.5993,-5.6012,-5.6012,-5.6012,-5.6012,-5.6012,-5.6012,-5.6012,-5.6012,-5.6012,-5.6012,-5.6012,-5.6012,-5.6012,-5.6012,-5.5993,-5.5644,-5.5509,-5.547,-5.5103,-5.4686,-5.4257,-5.4262,-5.377,-5.2954,-5.2182,-5.1592,-5.1144,0.0,0.0,0.0,0.0,0.0,0.0,0.0,0.0,0.0,0.0,-3.9452,-3.9064,-3.9166,-3.8612,-3.827,-3.8344,0.0,0.0,0.0,-4.0873,-4.2085,-4.272,-4.3739,-4.4605,-4.5229,-4.5479,-4.5594,-4.5594,-4.5594,-4.5594,-4.5594,-4.5594,-4.5594,-4.5594,-4.5594,-4.5594,-4.5594,-4.5594,-4.5594,-4.5594,-4.5594,-4.5651,-4.5749,-4.5786,-4.5735,-4.555,-4.4793,-4.456,-4.4588,0.0,-4.4239,-4.4384,-4.5068,-4.4679,-4.3862,-4.3343,-4.3036,-4.3105,-4.4355,-4.4513,-4.4525,-4.541,-4.5688,-4.5742,-4.5788,-4.588,-4.5943,-4.596,-4.5994,-4.6263,-4.7134,-4.7489,-4.8105,-4.9588,-5.004,-5.0446,-5.1036,-5.1139,-5.1457,-5.2212,-5.3078,-5.3657,-5.3832,-5.4625,-5.5374,-5.5973,-5.6012,-5.6012,-5.6012,-5.6012,-5.6012,-5.6012,-5.6012,-5.6012,-5.6012,-5.6012,-5.6012,-5.6012,-5.6012,-5.6012,-5.6012,-5.6012,-5.6012,-5.6012,-5.6012,-5.6012,-5.6012,-5.6012,-5.5664,-5.5122,-5.5128,-5.461,-5.3794,-5.3252,-5.2402,-5.1469,0.0,0.0,0.0,0.0,0.0,0.0,0.0,0.0,0.0,0.0,0.0,0.0,0.0,0.0,-3.9114,-3.9258,0.0,0.0,0.0,-4.0873,-4.1808,-4.1846,-4.3412,-4.4316,-4.4335,-4.5171,-4.5594,-4.5594,-4.5594,-4.5594,-4.5594,-4.5594,-4.5594,-4.5594,-4.5594,-4.5594,-4.5594,-4.5594,-4.5594,-4.5594,-4.5594,-4.5594,-4.562,-4.5749,-4.5291,-4.4557,-4.4589,-4.4632,0.0,0.0,-4.3486,-4.3486,-4.3692,-4.3127,0.0,-4.2422,-4.1834,0.0,0.0,0.0,-4.3718,-4.5305,-4.5643,-4.5637,-4.5758,-4.5798,-4.5808,-4.5899,-4.5939,-4.6268,-4.7137,-4.795,-4.8772,-4.974,-5.0557,-5.1088,-5.1177,-5.1133,-5.1399,-5.2193,-5.3078,-5.3916,0.0,-5.5496,-5.5973,-5.6012,-5.6012,-5.6012,-5.6012,-5.6012,-5.6012,-5.6012,-5.6012,-5.6012,-5.6012,-5.6012,-5.6012,-5.6012,-5.6012,-5.6012,-5.6012,-5.6012,-5.6012,-5.6012,-5.6012,-5.6012,-5.6012,-5.6012,-5.5993,-5.5973,-5.5954,-5.5476,-5.4754,-5.4734,-5.3681,-5.2161,0.0,0.0,0.0,0.0,0.0,0.0,0.0,0.0,0.0,0.0,0.0,0.0,0.0,0.0,0.0,0.0,0.0,0.0,0.0,-4.0631,-4.12,-4.1769,-4.2893,-4.3758,-4.4297,-4.5152,-4.5594,-4.5594,-4.5594,-4.5594,-4.5594,-4.5594,-4.5594,-4.5594,-4.5594,-4.5594,-4.5594,-4.5594,-4.5594,-4.5594,-4.5594,-4.5316,-4.4885,-4.4916,-4.4453,-4.3702,0.0,0.0,0.0,0.0,0.0,0.0,-4.3474,0.0,0.0,-4.169,0.0,0.0,0.0,0.0,-4.4133,-4.5178,-4.5448,-4.5485,-4.5521,-4.5676,-4.5817,-4.5819,-4.5453,-4.557,-4.6958,-4.7499,-4.8163,-4.9595,-5.0584,-5.1171,-5.1196,-5.1637,-5.2253,-5.3066,-5.3933,0.0,0.0,0.0,0.0,-5.6073,-5.6029,-5.6012,-5.6012,-5.6012,-5.6012,-5.6012,-5.6012,-5.6012,-5.6012,-5.6012,-5.6012,-5.6012,-5.6012,-5.6012,-5.6012,-5.6012,-5.6012,-5.6012,-5.6012,-5.6012,-5.6012,-5.6012,-5.6012,-5.5954,-5.5412,-5.5363,-5.539,-5.3688,-5.3085,-5.2973,0.0,0.0,0.0,0.0,0.0,0.0,0.0,0.0,0.0,0.0,0.0,0.0,0.0,0.0,0.0,0.0,0.0,0.0,0.0,0.0,-4.1354,-4.2239,-4.2797,-4.3335,-4.3855,-4.4701,-4.5152,-4.5152,-4.546,-4.5594,-4.5594,-4.5594,-4.5594,-4.5594,-4.5594,-4.5594,-4.5575,-4.5267,-4.5325,-4.5556,-4.496,-4.4583,-4.4406,-4.4097,-4.3504,0.0,0.0,0.0,0.0,0.0,0.0,0.0,0.0,0.0,0.0,0.0,0.0,0.0,0.0,-4.4133,-4.4378,-4.5129,-4.5339,-4.538,-4.54,-4.5538,-4.5719,-4.5792,-4.5183,-4.5097,-4.6519,-4.7066,-4.7658,-4.8735,-5.0176,-5.1054,-5.0775,-5.1707,-5.2718,-5.3532,-5.4407,-5.526,0.0,0.0,0.0,-5.6098,-5.6037,-5.6012,-5.6012,-5.6012,-5.6012,-5.6012,-5.6012,-5.5857,-5.5567,-5.5567,-5.5567,-5.5567,-5.5567,-5.5722,-5.6012,-5.6012,-5.6012,-5.6012,-5.6012,-5.6012,-5.6012,-5.6012,-5.6012,-5.5954,-5.5432,-5.5548,-5.5799,-5.4155,-5.373,-5.3757,0.0,0.0,0.0,0.0,0.0,0.0,0.0,0.0,0.0,0.0,0.0,0.0,0.0,0.0,0.0,0.0,0.0,0.0,0.0,0.0,0.0,-4.3066,-4.3143,-4.3162,-4.3162,-4.3951,-4.4374,-4.4374,-4.519,-4.5594,-4.5594,-4.5594,-4.5594,-4.5594,-4.5556,-4.5537,-4.5479,-4.4605,-4.472,-4.5325,-4.3739,-4.3528,-4.4085,-4.3374,0.0,0.0,0.0,0.0,0.0,0.0,0.0,0.0,0.0,0.0,0.0,0.0,0.0,-4.2782,-4.4959,-4.4922,-4.4428,-4.5129,-4.5307,-4.5319,-4.5371,-4.5457,-4.553,-4.5685,-4.5084,-4.4808,0.0,0.0,-4.7206,-4.7287,-4.9406,-5.0784,-5.0076,-5.1416,-5.2763,0.0,0.0,0.0,0.0,0.0,0.0,-5.6106,-5.6037,-5.6012,-5.5993,-5.6012,-5.5993,-5.5935,-5.5935,-5.5548,-5.4735,-5.4774,-5.4813,-5.4851,-5.4851,-5.5258,-5.6012,-5.6012,-5.6012,-5.6012,-5.6012,-5.6012,-5.6012,-5.6012,-5.6012,-5.6012,-5.5954,-5.5973,-5.5993,-5.5896,-5.5412,-5.4454,0.0,0.0,0.0,0.0,0.0,0.0,0.0,0.0,0.0,0.0,0.0,0.0,0.0,0.0,0.0,0.0,0.0,0.0,0.0,0.0,0.0,0.0,0.0,0.0,0.0,0.0,0.0,-4.5267,-4.5498,-4.5594,-4.5594,-4.5594,-4.5594,-4.5575,-4.4913,-4.4624,-4.4586,-4.3739,-4.3528,-4.3701,0.0,-4.2835,-4.2489,0.0,0.0,0.0,0.0,0.0,0.0,0.0,0.0,0.0,0.0,-4.284,-4.2961,0.0,0.0,-4.3989,-4.4666,-4.4967,-4.5151,-4.5331,-4.5369,-4.5359,-4.5329,-4.538,-4.5284,-4.4784,-4.4121,-4.3711,0.0,0.0,0.0,-4.709,-4.8932,0.0,-5.0814,-5.2309,0.0,-5.3663,0.0,-5.6026,-5.6186,-5.6202,0.0,0.0,-5.607,-5.602,-5.6073,-5.6029,-5.5741,-5.5122,-5.5103,-5.4697,-5.3846,-5.4484,-5.5103,-5.5702,-5.5702,-5.5799,-5.6012,-5.6012,-5.6012,-5.6012,-5.6012,-5.6012,-5.6012,-5.6012,-5.6012,-5.5935,-5.5335,-5.547,-5.5857,-5.46,-5.4426,-5.46,0.0,0.0,0.0,0.0,0.0,0.0,0.0,0.0,0.0,0.0,0.0,0.0,0.0,0.0,0.0,0.0,0.0,0.0,0.0,0.0,0.0,0.0,0.0,0.0,0.0,0.0,0.0,0.0,0.0,0.0,-4.5037,-4.5037,-4.4844,-4.447,-4.3989,-4.3778,-4.372,-4.2874,0.0,0.0,0.0,0.0,0.0,0.0,0.0,0.0,0.0,0.0,0.0,0.0,0.0,-4.3677,-4.3575,-4.3516,-4.3555,-4.3888,0.0,-4.4491,-4.488,-4.5252,-4.5464,-4.54,-4.5419,-4.5333,-4.4831,-4.4796,-4.4657,-4.3933,-4.3245,-4.2781,-4.2814,-4.3878,0.0,0.0,0.0,0.0,-5.0561,-5.2413,-5.3708,0.0,-5.5236,0.0,-5.6246,-5.6216,-5.6194,-5.6199,-5.6086,-5.6029,-5.609,-5.6037,-5.5799,-5.5335,-5.5335,-5.4918,-5.4072,-5.4183,-5.4647,-5.5476,-5.5479,-5.5664,-5.6012,-5.6012,-5.6012,-5.6012,-5.6012,-5.6012,-5.6012,-5.6012,-5.6012,-5.5973,-5.5509,-5.5606,-5.5896,-5.4948,-5.4909,-5.5258,0.0,0.0,0.0,0.0,0.0,0.0,0.0,0.0,0.0,0.0,0.0,0.0,0.0,0.0,0.0,0.0,0.0,0.0,0.0,0.0,0.0,0.0,0.0,0.0,0.0,0.0,0.0,0.0,0.0,0.0,0.0,0.0,0.0,0.0,0.0,0.0,0.0,0.0,0.0,0.0,0.0,0.0,0.0,0.0,0.0,0.0,0.0,0.0,0.0,0.0,-4.4314,-4.4034,-4.4005,-4.3914,-4.3977,-4.4618,-4.4703,-4.4737,-4.5401,-4.5607,-4.5611,-4.5504,-4.5518,-4.5288,-4.4298,-4.4161,-4.4029,-4.3273,-4.2579,-4.2121,-4.2187,-4.3408,-4.4499,-4.4909,0.0,-4.9617,-5.0017,-5.2172,-5.3713,-5.3695,-5.5242,-5.6291,-5.6291,-5.6243,-5.6202,-5.6206,-5.6086,-5.6029,-5.609,-5.6046,-5.5971,-5.5855,-5.5722,-5.539,-5.48,-5.4044,-5.4122,-5.4967,-5.4965,-5.5316,-5.6012,-5.6012,-5.6012,-5.6012,-5.6012,-5.6012,-5.6012,-5.6012,-5.6012,-5.6012,-5.6012,-5.6012,-5.6012,-5.6012,-5.6012,-5.6012,0.0,0.0,0.0,0.0,0.0,0.0,0.0,0.0,0.0,0.0,-3.998,-4.047,0.0,0.0,0.0,0.0,0.0,0.0,0.0,0.0,0.0,0.0,0.0,0.0,0.0,0.0,0.0,0.0,0.0,0.0,0.0,0.0,0.0,0.0,0.0,0.0,0.0,0.0,0.0,0.0,0.0,0.0,0.0,0.0,0.0,0.0,0.0,0.0,0.0,0.0,-4.5184,-4.58,-4.5593,-4.5589,-4.5666,-4.5792,-4.574,-4.5684,-4.5935,-4.592,-4.5844,-4.5828,-4.5809,-4.5576,-4.4626,-4.4427,0.0,0.0,-4.2635,-4.212,-4.2194,-4.2475,-4.3397,-4.5468,-4.6925,-4.8563,-5.067,-5.2601,-5.3755,0.0,-5.5242,-5.6291,-5.6291,-5.6243,0.0,0.0,-5.6102,-5.6029,-5.609,-5.6141,-5.5847,-5.5118,-5.4331,-5.4218,-5.4781,-5.4644,-5.4967,-5.5788,-5.5799,-5.5857,-5.6012,-5.6012,-5.6012,-5.6012,-5.6012,-5.6012,-5.6012,-5.6012,-5.6012,-5.6012,-5.6012,-5.6012,-5.6012,-5.6012,-5.6012,-5.6012,0.0,0.0,0.0,0.0,0.0,0.0,0.0,-4.0096,-4.0165,-3.9483,-3.9761,-4.0068,-4.0126,-4.0538,-4.081,0.0,0.0,0.0,0.0,0.0,0.0,0.0,0.0,0.0,0.0,0.0,0.0,0.0,0.0,0.0,0.0,0.0,0.0,0.0,0.0,0.0,0.0,0.0,0.0,0.0,0.0,0.0,0.0,0.0,0.0,0.0,0.0,0.0,0.0,0.0,-4.4767,-4.5681,-4.6005,-4.6102,-4.6098,-4.6098,-4.6,-4.5915,-4.5983,-4.5996,-4.5983,-4.5922,-4.5924,-4.557,-4.4141,0.0,0.0,0.0,-4.247,-4.2269,-4.2297,-4.229,0.0,-4.4433,-4.6225,-4.798,-4.9653,-5.1799,0.0,-5.3711,-5.4888,-5.5828,0.0,-5.6216,-5.6206,-5.6202,-5.6114,-5.6082,-5.6149,-5.6149,-5.5939,-5.5498,-5.5067,-5.5048,-5.5478,-5.5473,-5.5686,-5.6098,-5.6073,-5.6046,-5.6046,-5.602,-5.6012,-5.6012,-5.6012,-5.6012,-5.6012,-5.6012,-5.6012,-5.6012,-5.6012,-5.6012,-5.6012,-5.6012,-5.6012,-5.6012,0.0,0.0,0.0,0.0,0.0,0.0,0.0,-3.9857,-4.0004,-3.9124,-3.9412,-3.9607,-3.933,-4.0065,-4.0653,0.0,0.0,0.0,0.0,0.0,0.0,0.0,0.0,0.0,0.0,0.0,0.0,0.0,0.0,0.0,0.0,0.0,0.0,0.0,0.0,0.0,0.0,0.0,0.0,0.0,0.0,0.0,0.0,0.0,0.0,0.0,0.0,0.0,0.0,0.0,-4.4267,-4.5045,-4.5781,-4.6077,-4.6118,-4.5923,-4.592,-4.5987,-4.5987,-4.6057,-4.6125,-4.6002,-4.6037,-4.5574,-4.3729,-4.4063,0.0,-4.2824,-4.2612,-4.2686,-4.2673,-4.249,-4.2584,0.0,-4.5406,-4.7293,-4.8526,-5.0794,-5.2696,0.0,-5.4574,0.0,-5.6172,-5.6213,0.0,-5.6174,-5.6139,-5.6156,-5.6194,-5.6114,-5.6082,-5.6035,-5.6082,-5.609,-5.6098,-5.609,-5.6117,-5.6149,-5.6098,-5.6082,-5.6082,-5.602,-5.6012,-5.6012,-5.6012,-5.6012,-5.6012,-5.6012,-5.6012,-5.6012,-5.6012,-5.6012,-5.6012,-5.6012,-5.6012,-5.6012,0.0,0.0,0.0,0.0,0.0,0.0,0.0,-3.9686,-3.9201,-3.7626,-3.8799,-3.9478,-3.8684,-3.9375,-4.0219,0.0,0.0,0.0,0.0,0.0,0.0,0.0,0.0,0.0,0.0,0.0,0.0,-4.5889,0.0,0.0,0.0,0.0,0.0,0.0,0.0,0.0,0.0,0.0,0.0,0.0,0.0,0.0,0.0,0.0,0.0,0.0,0.0,0.0,0.0,0.0,0.0,-4.4696,-4.5025,-4.5657,-4.6123,-4.5326,0.0,0.0,-4.6249,-4.6273,-4.6275,-4.6269,-4.6271,-4.5802,-4.4048,0.0,-4.4694,-4.3753,-4.3572,-4.3574,-4.357,-4.2926,-4.2647,-4.347,0.0,-4.5973,0.0,0.0,0.0,-5.3696,0.0,0.0,-5.6297,-5.626,-5.6257,-5.6364,-5.6312,-5.6267,-5.6199,-5.6086,-5.607,-5.6178,-5.6078,-5.6037,-5.6098,-5.6037,-5.602,-5.602,-5.602,-5.6012,-5.6012,-5.5993,-5.6012,-5.6012,-5.6012,-5.6012,-5.6012,-5.6012,-5.6012,-5.6012,-5.6012,-5.6012,-5.6012,-5.6012,-5.6012,-5.6012,0.0,0.0,0.0,0.0,0.0,0.0,-3.9707,-3.9684,-3.9471,-3.8859,-3.9364,-3.9876,-4.0049,-3.9909,-4.0159,-4.1012,0.0,0.0,0.0,0.0,0.0,0.0,0.0,0.0,0.0,0.0,-4.5094,-4.6027,-4.5488,0.0,0.0,0.0,0.0,0.0,0.0,0.0,0.0,0.0,0.0,0.0,0.0,0.0,0.0,0.0,0.0,0.0,0.0,0.0,0.0,0.0,0.0,0.0,-4.3546,-4.4726,0.0,0.0,-4.6035,-4.6292,-4.6298,-4.63,-4.63,-4.63,-4.5909,-4.5345,-4.4648,0.0,-4.4896,-4.4548,-4.4473,-4.4315,-4.3808,-4.2987,-4.2324,-4.2138,-4.3711,0.0,-4.6282,0.0,0.0,0.0,-5.3077,0.0,0.0,0.0,-5.6335,-5.6344,-5.6315,-5.6305,-5.6318,-5.6194,-5.6106,-5.6086,-5.6062,-5.6046,-5.6037,-5.6046,-5.6065,-5.6065,-5.6065,-5.6065,-5.6065,-5.602,-5.6012,-5.6012,-5.6012,-5.6012,-5.6012,-5.6012,-5.6012,-5.6012,-5.6012,-5.6012,-5.6012,-5.6012,-5.6012,-5.6012,0.0,0.0,0.0,0.0,0.0,-3.9652,-3.9711,-3.9724,-3.965,-3.944,-3.9641,-4.0029,-4.0652,-4.0407,-4.0435,-4.1054,-4.1091,0.0,0.0,0.0,0.0,0.0,0.0,0.0,0.0,0.0,-4.4737,-4.6135,-4.5504,-4.549,0.0,0.0,0.0,0.0,0.0,0.0,0.0,0.0,0.0,0.0,0.0,0.0,0.0,0.0,0.0,0.0,0.0,0.0,0.0,0.0,0.0,0.0,0.0,0.0,0.0,0.0,-4.6062,-4.6262,-4.6294,-4.6296,-4.6296,-4.63,-4.5831,-4.5327,0.0,0.0,-4.5309,-4.5058,-4.5214,-4.5037,-4.3901,-4.3195,-4.2415,-4.1289,0.0,-4.4397,-4.4863,-4.6732,0.0,0.0,0.0,-5.2909,0.0,-5.5804,-5.6417,-5.6312,-5.6333,-5.636,-5.6364,-5.63,-5.6201,-5.6048,-5.6059,-5.6037,-5.6012,-5.6037,-5.6073,-5.6073,-5.6073,-5.6073,-5.6073,-5.602,-5.6012,-5.6012,-5.6012,-5.6012,-5.6012,-5.6012,-5.6012,-5.6012,-5.6012,-5.6012,-5.6012,-5.6012,-5.6012,-5.5973,0.0,0.0,0.0,0.0,0.0,0.0,-3.9799,-3.9806,-3.9499,-3.8633,-3.9259,-3.9804,-3.9811,-4.0577,-4.1081,-4.1093,-4.1103,0.0,0.0,0.0,0.0,0.0,0.0,0.0,0.0,0.0,-4.5315,-4.6206,-4.6192,-4.6192,-4.6184,-4.6056,-4.6072,-4.6161,0.0,0.0,0.0,0.0,0.0,0.0,0.0,0.0,0.0,0.0,0.0,0.0,0.0,0.0,0.0,0.0,0.0,0.0,0.0,0.0,0.0,0.0,-4.5535,-4.6211,-4.6282,-4.6306,-4.6308,-4.6298,-4.628,-4.6051,0.0,0.0,-4.6034,-4.5176,-4.5683,-4.5759,-4.4018,-4.3685,-4.3119,-4.1381,-4.1859,0.0,-4.4756,-4.5769,0.0,0.0,0.0,-5.2091,-5.3831,-5.5588,-5.6523,-5.6322,-5.6415,-5.6438,-5.6312,-5.6361,-5.6331,-5.6197,-5.6063,-5.6012,-5.6012,-5.6012,-5.6012,-5.6012,-5.6012,-5.6012,-5.6012,-5.6012,-5.6012,-5.6012,-5.6012,-5.6012,-5.6012,-5.6012,-5.6012,-5.6012,-5.6012,-5.6012,-5.6012,-5.6012,-5.6012,-5.5896,0.0,0.0,0.0,0.0,0.0,0.0,0.0,-4.0172,-3.9901,-4.0233,-4.052,-4.0689,-4.0684,-4.0935,-4.1345,-4.1935,-4.1446,0.0,0.0,0.0,0.0,0.0,0.0,0.0,0.0,-4.3572,-4.4433,-4.5319,-4.5917,-4.6209,-4.6193,-4.6165,-4.5834,-4.531,-4.4993,0.0,0.0,0.0,0.0,0.0,0.0,0.0,0.0,0.0,0.0,0.0,0.0,0.0,0.0,0.0,0.0,0.0,0.0,0.0,0.0,0.0,0.0,0.0,-4.6231,-4.6233,-4.6233,-4.6238,-4.5789,-4.5447,-4.5803,-4.5637,-4.5504,-4.582,-4.5624,-4.5056,-4.3901,-4.3217,-4.2436,-4.1283,-4.184,0.0,0.0,0.0,0.0,-4.8213,-5.0701,-5.3204,0.0,0.0,-5.6571,-5.6503,-5.6536,-5.6551,-5.6502,-5.6442,-5.6356,-5.6278,-5.6232,-5.6203,-5.6203,-5.6208,-5.6191,-5.6142,-5.6136,-5.6136,-5.6142,-5.6136,-5.5818,-5.5255,-5.5255,-5.4869,-5.4279,-5.435,-5.4676,-5.5131,-5.4563,-5.4696,-5.5103,-5.4503,-5.4291,-5.4268,0.0,0.0,0.0,0.0,0.0,0.0,0.0,-4.0637,-4.0498,-4.1027,-4.1098,-4.1093,-4.1093,-4.1108,-4.1328,-4.185,-4.1412,0.0,0.0,0.0,0.0,0.0,0.0,0.0,-4.2276,-4.2822,-4.3702,-4.4894,-4.5105,-4.5397,-4.5693,-4.5377,-4.4929,-4.4403,-4.4072,-4.3799,0.0,0.0,0.0,0.0,0.0,0.0,-4.5163,0.0,0.0,0.0,0.0,0.0,0.0,0.0,0.0,0.0,0.0,0.0,0.0,0.0,0.0,0.0,0.0,-4.6198,-4.6201,-4.6206,-4.5796,0.0,0.0,-4.5889,-4.5543,-4.5762,-4.5389,-4.4625,-4.3432,-4.2768,-4.2104,-4.1244,-4.1569,0.0,0.0,0.0,0.0,-4.8335,0.0,0.0,0.0,-5.6214,-5.6605,-5.6602,-5.6593,-5.6606,-5.6606,-5.6515,-5.6465,-5.6416,-5.6341,-5.6309,-5.6306,-5.6309,-5.6285,-5.6232,-5.6237,-5.6062,-5.574,-5.5745,-5.5269,-5.4456,-5.4456,-5.4127,0.0,-5.3611,-5.3938,-5.4336,-5.3827,-5.3946,-5.429,-5.3437,-5.3119,-5.3036,0.0,0.0,0.0,0.0,0.0,0.0,0.0,-4.1108,-4.1101,-4.1098,-4.1093,-4.1093,-4.1093,-4.1103,-4.1093,-4.1104,0.0,0.0,0.0,0.0,0.0,0.0,0.0,0.0,-4.2198,-4.2276,-4.3117,-4.4816,-4.3994,-4.4052,-4.4874,-4.4072,-4.362,-4.3465,-4.2724,-4.2802,-4.3562,-4.4364,-4.4286,-4.3679,-4.4481,-4.4325,0.0,0.0,0.0,0.0,0.0,0.0,0.0,0.0,0.0,0.0,0.0,0.0,0.0,0.0,0.0,0.0,0.0,0.0,0.0,0.0,0.0,0.0,0.0,0.0,0.0,-4.5175,-4.4898,-4.4329,-4.2708,-4.2358,-4.2045,-4.1224,-4.1103,0.0,0.0,-4.5104,0.0,0.0,-5.0948,0.0,-5.3912,-5.5614,-5.6591,-5.6603,-5.6593,-5.6606,-5.6606,-5.6606,-5.6606,-5.6606,-5.6417,-5.6327,-5.6325,-5.6325,-5.6283,-5.6221,-5.6221,-5.5753,-5.4928,-5.4928,-5.4456,-5.3618,-5.3618,-5.3585,-5.3525,-5.3449,-5.3478,-5.3517,-5.3381,-5.3378,-5.3338,-5.2511,-5.2219,-5.1985,0.0,0.0,0.0,0.0,0.0,0.0,0.0,0.0,0.0,0.0,-4.11,-4.1091,-4.11,-4.1106,-4.1111,0.0,0.0,0.0,0.0,0.0,0.0,0.0,0.0,0.0,-4.138,-4.1984,-4.2822,-4.3913,-4.3698,-4.4052,-4.4894,-4.4699,-4.3877,-4.2627,-4.3094,-4.3036,-4.2627,-4.2822,-4.3172,-4.362,-4.3815,-4.3776,0.0,0.0,0.0,0.0,-4.1672,-4.177,0.0,0.0,0.0,0.0,0.0,0.0,0.0,0.0,-4.6199,0.0,0.0,0.0,0.0,0.0,0.0,0.0,0.0,0.0,0.0,0.0,0.0,0.0,0.0,0.0,0.0,0.0,0.0,0.0,-4.4635,0.0,0.0,-5.1689,-5.1677,-5.2343,-5.4765,-5.5975,-5.6597,-5.6597,-5.6606,-5.6598,-5.6598,-5.6591,-5.661,-5.6598,-5.6551,-5.6536,-5.6537,-5.6537,-5.6171,-5.5464,-5.5402,-5.4952,-5.4155,-5.4169,-5.368,-5.2861,-5.2861,-5.2452,-5.1739,-5.1121,-5.1228,-5.1668,-5.0382,-5.0246,-5.0696,-4.9827,-4.9512,-4.9465,0.0,0.0,0.0,0.0,0.0,0.0,0.0,0.0,0.0,0.0,0.0,-4.1098,-4.1106,-4.1111,0.0,0.0,0.0,0.0,0.0,0.0,0.0,0.0,0.0,-4.1107,-4.1107,-4.1536,-4.2354,-4.3601,-4.3192,-4.3643,-4.4894,-4.4481,-4.3585,-4.2296,-4.2413,-4.2198,-4.1809,-4.2568,-4.2939,-4.3075,-4.3877,0.0,0.0,0.0,0.0,0.0,-4.1809,-4.2198,0.0,-4.3897,-4.4501,-4.505,0.0,0.0,0.0,0.0,-4.6199,-4.6199,-4.6199,-4.6199,-4.6203,-4.62,0.0,0.0,0.0,0.0,0.0,0.0,0.0,0.0,0.0,0.0,0.0,0.0,-4.1772,0.0,0.0,0.0,-4.858,-5.1202,-5.1091,-5.1836,0.0,-5.5488,-5.6172,-5.6562,-5.6597,-5.6592,-5.6592,-5.6605,-5.6602,-5.6606,-5.6598,-5.6591,-5.6606,-5.6196,-5.5759,-5.5247,-5.48,-5.4156,-5.3334,-5.2946,-5.2283,-5.1422,-5.1032,-5.0586,-5.011,-4.9648,-4.9726,-5.0045,-4.9158,-4.9057,-4.9332,-4.8466,-4.8131,-4.8096,0.0,0.0,0.0,0.0,0.0,0.0,0.0,0.0,0.0,0.0,0.0,0.0,0.0,0.0,0.0,0.0,0.0,0.0,0.0,0.0,0.0,0.0,-4.1107,-4.1107,-4.1107,-4.1107,-4.1867,-4.3406,-4.2549,-4.2942,-4.4484,-4.3874,-4.3289,-4.2666,-4.1848,-4.1477,-4.1575,-4.2997,-4.3094,-4.2432,-4.3916,0.0,0.0,0.0,0.0,0.0,0.0,0.0,0.0,-4.4656,-4.4991,-4.5225,-4.5965,0.0,0.0,0.0,0.0,0.0,-4.6199,-4.6199,-4.6206,-4.6195,-4.6203,0.0,0.0,0.0,0.0,0.0,0.0,0.0,0.0,-4.1796,0.0,0.0,0.0,0.0,-4.6075,-4.7167,-4.8364,-4.9917,-5.0214,0.0,-5.3572,-5.4704,-5.5604,-5.6346,-5.6523,-5.6599,-5.6599,-5.6595,-5.6475,-5.6202,-5.6333,-5.6206,-5.5806,-5.5337,-5.4908,-5.4498,-5.3756,-5.2956,-5.2079,-5.1336,-5.0594,-4.985,-4.9111,-4.8823,-4.8867,-4.8685,-4.8652,-4.8682,-4.8559,-4.8503,-4.841,-4.7672,-4.74,-4.7303,0.0,0.0,0.0,0.0,0.0,0.0,0.0,0.0,0.0,0.0,0.0,0.0,0.0,0.0,0.0,0.0,0.0,0.0,0.0,0.0,0.0,-4.1107,-4.1107,-4.1107,-4.1107,-4.1107,-4.1555,-4.2491,-4.1672,-4.177,-4.2705,-4.3328,-4.3916,-4.4465,-4.3601,-4.3211,-4.3231,-4.3484,-4.3094,-4.2315,-4.2588,0.0,0.0,0.0,0.0,0.0,0.0,0.0,0.0,-4.4855,-4.54,-4.6024,-4.616,0.0,0.0,0.0,0.0,0.0,-4.6199,-4.6199,-4.6199,-4.6206,-4.6209,-4.6019,0.0,0.0,0.0,0.0,0.0,0.0,0.0,-4.1718,-4.1504,0.0,0.0,-4.5151,0.0,0.0,-4.8984,-4.9977,0.0,-5.165,-5.2786,-5.4369,-5.5368,-5.5488,-5.617,-5.6599,-5.6599,-5.6591,-5.5923,-5.4445,-5.5103,-5.4431,-5.2214,-5.3522,-5.3093,-5.0904,-5.0768,-5.0243,-4.9384,-4.9267,-4.913,-4.8993,-4.8857,-4.882,-4.8761,-4.8076,-4.7783,-4.7728,-4.6994,-4.6704,-4.6686,-4.6555,-4.6498,-4.6479,0.0,0.0,0.0,0.0,0.0,0.0,0.0,0.0,0.0,0.0,0.0,0.0,0.0,0.0,0.0,0.0,0.0,0.0,0.0,0.0,-4.1107,-4.1107,-4.1107,-4.1107,-4.1107,-4.1107,-4.1283,-4.1653,-4.1711,-4.1945,-4.2315,-4.3192,-4.4072,-4.4855,-4.3994,-4.3601,-4.3601,-4.3601,-4.364,-4.3702,0.0,0.0,0.0,0.0,0.0,0.0,0.0,0.0,0.0,0.0,-4.5868,-4.6199,-4.6199,0.0,0.0,0.0,0.0,0.0,-4.6199,-4.6199,-4.6199,-4.6199,-4.6206,-4.6097,-4.5728,-4.4997,0.0,0.0,0.0,0.0,0.0,0.0,-4.3104,-4.4922,0.0,-4.5475,-4.6812,-4.7673,-4.8457,0.0,0.0,-5.1219,-5.257,-5.3423,-5.409,-5.4569,-5.4961,-5.5195,-5.5195,-5.4744,-5.4135,-5.3313,-5.3234,-5.2176,-5.0076,-5.0813,-5.0828,-5.0085,-4.9616,-4.9189,-4.8798,-4.8349,-4.8154,-4.8135,-4.7647,-4.7451,-4.7412,-4.7042,-4.6905,-4.6866,-4.6461,-4.6306,-4.6308,-4.6295,-4.63,-4.6302,0.0,0.0,0.0,0.0,0.0,0.0,0.0,0.0,0.0,0.0,0.0,0.0,0.0,0.0,0.0,0.0,0.0,0.0,0.0,-4.1107,-4.1107,-4.1107,-4.1107,-4.1107,-4.1107,-4.0893,-4.0796,-4.0796,-4.14,-4.2023,-4.2627,-4.3504,-4.4364,-4.5186,-4.452,-4.4205,-4.4205,-4.4205,-4.4481,-4.4894,0.0,0.0,0.0,0.0,0.0,0.0,0.0,0.0,0.0,0.0,0.0,0.0,0.0,0.0,0.0,-4.6199,-4.6199,-4.616,-4.5946,-4.6043,-4.6102,-4.5689,0.0,-4.5894,-4.5898,-4.5258,0.0,0.0,0.0,0.0,0.0,-4.2807,0.0,-4.6367,-4.5911,-4.5764,-4.7103,-4.7808,-4.8339,-4.874,-4.9754,-5.0926,-5.2277,-5.2578,-5.2887,-5.3351,-5.3571,-5.3612,-5.3395,-5.2754,-5.2225,-5.181,-5.1344,-5.0189,-4.8304,-4.8431,-4.8759,-4.9206,-4.8525,-4.8213,-4.8193,-4.7588,-4.7295,-4.7256,-4.6593,-4.63,-4.63,-4.63,-4.63,-4.63,-4.63,-4.63,-4.6302,-4.6308,-4.6295,-4.6301,0.0,0.0,0.0,0.0,0.0,0.0,0.0,0.0,0.0,0.0,0.0,0.0,0.0,0.0,0.0,0.0,0.0,0.0,0.0,-4.1107,-4.1107,-4.1107,-4.1107,-4.1107,-4.1107,-4.0312,-3.9883,-3.9883,-3.9961,-4.1185,-4.3523,-4.4403,-4.5264,-4.6102,-4.6043,-4.6001,-4.6001,-4.6001,-4.5576,-4.4894,-4.4894,0.0,0.0,0.0,0.0,0.0,0.0,0.0,0.0,0.0,0.0,0.0,0.0,0.0,-4.6199,-4.6199,-4.6199,-4.6024,-4.5205,-4.5576,-4.5806,-4.4185,-4.4407,0.0,-4.4991,-4.4317,0.0,-4.369,0.0,0.0,0.0,-4.3623,-4.3766,-4.3945,-4.523,-4.6244,-4.6386,0.0,-4.9647,-4.8883,-5.0284,-5.1364,-5.1475,-5.2227,-5.2383,-5.1638,-5.2343,-5.2441,-5.1635,-5.1523,-5.0779,-4.9217,-4.9842,-4.8997,-4.6516,-4.7276,-4.7315,-4.6573,-4.6515,-4.6475,-4.6475,-4.6417,-4.6397,-4.6397,-4.6339,-4.63,-4.63,-4.63,-4.63,-4.63,-4.63,-4.63,-4.63,-4.6302,-4.6306,-4.6294,0.0,0.0,0.0,0.0,0.0,0.0,0.0,0.0,0.0,0.0,0.0,0.0,0.0,0.0,0.0,0.0,0.0,0.0,0.0,-4.1107,-4.1107,-4.1107,-4.1107,-4.1107,-4.1107,-4.0253,-3.9532,-3.8987,-3.9532,-4.1383,-4.4423,-4.4757,-4.5361,-4.6199,-4.6199,-4.6199,-4.616,-4.5615,-4.5517,-4.5654,-4.5127,-4.5027,0.0,0.0,0.0,0.0,0.0,0.0,0.0,0.0,-4.6199,-4.6199,-4.6199,-4.6199,-4.6082,-4.5556,-4.54,-4.5205,-4.4325,-4.4734,-4.5105,-4.3893,-4.3854,0.0,0.0,-4.4228,-4.3613,-4.3626,-4.3675,0.0,0.0,0.0,-4.5488,-4.6035,-4.6676,-4.7473,-4.8512,-4.8594,-4.8608,-4.8776,-4.9371,-4.9781,-4.9776,-5.0079,-5.0136,-4.9819,-5.0097,-5.0136,-4.9799,-4.9316,-4.8748,-4.8101,-4.785,-4.7261,-4.6302,-4.6632,-4.6632,-4.63,-4.63,-4.6303,-4.6308,-4.6303,-4.6303,-4.6308,-4.6303,-4.63,-4.63,-4.63,-4.63,-4.63,-4.63,-4.63,-4.63,-4.63,-4.6303,-4.6306,0.0,0.0,0.0,0.0,0.0,0.0,0.0,0.0,0.0,0.0,0.0,0.0,0.0,0.0,0.0,0.0,0.0,0.0,-4.1107,-4.1107,-4.1107,-4.1107,-4.1107,-4.1107,-4.1107,-4.0253,-3.9513,-3.8909,-4.0039,-4.1929,-4.4501,-4.505,-4.5634,-4.6199,-4.6199,-4.6199,-4.616,-4.5556,-4.5654,-4.616,-4.5556,-4.5673,0.0,0.0,0.0,0.0,0.0,0.0,0.0,0.0,-4.6024,-4.5848,-4.6115,-4.5816,-4.5322,-4.4985,-4.4705,-4.4364,-4.3757,-4.4033,-4.4286,0.0,0.0,0.0,-4.402,-4.3825,-4.376,-4.4304,-4.4241,-4.4081,-4.4102,0.0,0.0,0.0,-4.7416,-4.7996,-4.9156,-4.8535,-4.8081,-4.8392,-4.8654,-4.8808,-4.8804,-4.8796,-4.8695,-4.8434,-4.8417,-4.83,-4.8021,-4.7499,-4.7187,-4.7183,-4.662,-4.6303,-4.6302,-4.63,-4.63,-4.63,-4.63,-4.6305,-4.6293,-4.6305,-4.6305,-4.6293,-4.6305,-4.63,-4.63,-4.63,-4.63,-4.63,-4.63,-4.63,-4.63,-4.63,-4.63,-4.6302,0.0,0.0,0.0,0.0,0.0,0.0,0.0,0.0,0.0,0.0,0.0,0.0,0.0,0.0,0.0,0.0,0.0,0.0,-4.1107,-4.1107,-4.1107,-4.1107,-4.1107,-4.1107,-4.1107,-4.0253,-3.9805,-3.9805,-4.1477,-4.2744,-4.3659,-4.5377,-4.6199,-4.6199,-4.6199,-4.6199,-4.6199,-4.6199,-4.6199,-4.6199,-4.6199,-4.6199,-4.6199,0.0,0.0,0.0,0.0,0.0,0.0,0.0,-4.5615,-4.5037,-4.5905,-4.4997,-4.3767,-4.464,-4.4256,-4.3582,-4.3582,-4.3582,-4.3387,0.0,0.0,0.0,-4.251,-4.2986,-4.4094,-4.5835,-4.5493,-4.4929,-4.5,-4.5032,0.0,-4.619,-4.7055,-4.7619,-4.7617,-4.8281,-4.8476,-4.7688,-4.8301,-4.8772,-4.8788,-4.8785,-4.8453,-4.7656,-4.7598,-4.7206,-4.6341,-4.6307,-4.6308,-4.6308,-4.6306,-4.6296,-4.63,-4.63,-4.63,-4.63,-4.63,-4.6305,-4.6293,-4.6305,-4.6305,-4.6293,-4.6305,-4.63,-4.63,-4.63,-4.63,-4.63,-4.63,-4.63,-4.63,-4.63,-4.63,-4.63,0.0,0.0,0.0,0.0,0.0,0.0,0.0,0.0,0.0,0.0,0.0,0.0,0.0,0.0,0.0,0.0,0.0,0.0,-4.1107,-4.1107,-4.1107,-4.1107,-4.1107,-4.1107,-4.1107,-4.0854,-4.0718,-4.0718,-4.1205,-4.2513,-4.452,-4.505,-4.5615,-4.6199,-4.6199,-4.6199,-4.6199,-4.6199,-4.6199,-4.6199,-4.6199,-4.5829,-4.5283,0.0,0.0,0.0,0.0,0.0,0.0,0.0,0.0,0.0,-4.4284,-4.4016,-4.354,-4.3219,-4.2963,-4.2755,-4.2692,-4.3133,0.0,-4.251,0.0,0.0,0.0,-4.3416,0.0,0.0,-4.5086,-4.5116,-4.58,-4.6885,0.0,-4.8086,-4.8358,-4.8707,-4.9289,-4.8027,-4.7187,-4.7557,-4.7265,-4.7049,-4.7031,-4.7031,-4.6933,-4.6699,-4.6698,-4.6562,-4.6302,-4.6308,-4.6307,-4.6308,-4.6306,-4.6296,-4.63,-4.63,-4.63,-4.63,-4.6306,-4.6294,-4.63,-4.6306,-4.6308,-4.6299,-4.6306,-4.63,-4.63,-4.63,-4.63,-4.63,-4.63,-4.63,-4.63,-4.63,-4.63,-4.63,0.0,0.0,0.0,0.0,0.0,0.0,0.0,0.0,0.0,0.0,-4.1106,-4.11,0.0,0.0,0.0,0.0,0.0,0.0,0.0,-4.1107,-4.1107,-4.1107,-4.1107,-4.1107,-4.1107,-4.1107,-4.1107,-4.1107,-4.1419,-4.2357,-4.3877,-4.4582,-4.5186,-4.5693,-4.6043,-4.6199,-4.6199,-4.6199,-4.6199,-4.6199,-4.6199,-4.5673,-4.4894,0.0,0.0,0.0,0.0,0.0,0.0,0.0,0.0,0.0,-4.3522,-4.3158,-4.2572,-4.2438,-4.2158,-4.2025,-4.2656,-4.2958,0.0,-4.2861,-4.3604,-4.4337,-4.4163,0.0,0.0,0.0,-4.5426,-4.5691,-4.6638,-4.7624,0.0,-4.9258,-4.9101,-4.9061,-4.9564,-4.8007,-4.6875,-4.7066,-4.662,-4.6308,-4.6305,-4.6306,-4.6307,-4.6305,-4.6305,-4.6308,-4.6306,-4.6308,-4.6307,-4.6308,-4.6303,-4.6291,-4.63,-4.63,-4.63,-4.63,-4.6309,-4.6296,-4.6301,-4.6291,-4.6293,-4.6301,-4.6308,-4.63,-4.63,-4.63,-4.63,-4.63,-4.63,-4.63,-4.63,-4.63,-4.63,-4.63,0.0,0.0,0.0,0.0,0.0,0.0,0.0,0.0,0.0,0.0,-4.1107,-4.1107,0.0,0.0,0.0,0.0,0.0,0.0,0.0,-4.1107,-4.1107,-4.1107,-4.1107,-4.1107,-4.1107,-4.1107,-4.1107,-4.1107,-4.1828,-4.2237,-4.2335,-4.3916,-4.4757,-4.4933,-4.5732,-4.6082,-4.6082,-4.6082,-4.6043,-4.5962,-4.5962,-4.5439,-4.466,-4.466,0.0,0.0,0.0,0.0,0.0,0.0,0.0,0.0,-4.3212,-4.238,-4.1267,-4.2049,-4.1722,-4.1462,-4.3146,0.0,0.0,-4.3387,-4.3536,0.0,-4.4676,-4.5504,-4.6105,-4.618,0.0,-4.6498,-4.7439,-4.7602,-4.8175,-4.9843,-4.9508,-4.8981,-4.8906,-4.8144,-4.7283,-4.6404,-4.6308,-4.6306,-4.6306,-4.6295,-4.6297,-4.6305,-4.6305,-4.6308,-4.6308,-4.6308,-4.6308,-4.6308,-4.6296,-4.63,-4.63,-4.63,-4.6302,-4.6302,-4.629,-4.6297,-4.6302,-4.6296,-4.6296,-4.63,-4.6308,-4.63,-4.63,-4.63,-4.63,-4.63,-4.63,-4.63,-4.63,-4.63,-4.63,-4.63,0.0,0.0,0.0,0.0,0.0,0.0,0.0,0.0,0.0,0.0,0.0,0.0,0.0,0.0,0.0,0.0,0.0,0.0,0.0,-4.1107,-4.1107,-4.1107,-4.1107,-4.1107,-4.1107,-4.1107,-4.1107,-4.1107,-4.1263,-4.1672,-4.2315,-4.2685,-4.3585,-4.4913,-4.5108,-4.5186,-4.5186,-4.5186,-4.4773,-4.4166,-4.4166,-4.364,-4.2861,-4.2861,-4.2744,0.0,0.0,0.0,0.0,0.0,0.0,0.0,-4.1606,-4.1397,-4.1143,-4.1319,-4.1252,-4.1468,-4.3141,-4.3008,0.0,0.0,-4.3098,-4.2984,-4.4546,-4.505,-4.5365,-4.6063,-4.619,-4.6498,-4.7439,-4.8106,-4.8873,-5.0,-5.0039,-4.9687,-4.9003,-4.8143,-4.7283,-4.6401,-4.6304,-4.6303,-4.6299,-4.6296,-4.6297,-4.6304,-4.6304,-4.6306,-4.6308,-4.6307,-4.6305,-4.6305,-4.6291,-4.63,-4.63,-4.63,-4.6303,-4.6291,-4.6297,-4.6302,-4.6306,-4.6299,-4.6291,-4.6306,-4.6302,-4.63,-4.63,-4.63,-4.63,-4.63,-4.63,-4.63,-4.63,-4.63,-4.63,-4.63,0.0,0.0,0.0,0.0,0.0,0.0,0.0,0.0,0.0,0.0,0.0,0.0,0.0,0.0,0.0,0.0,0.0,0.0,0.0,0.0,-4.1107,-4.1107,-4.1107,-4.1107,-4.1107,-4.1107,-4.1107,-4.1107,-4.1107,-4.1302,-4.1731,-4.212,-4.3017,-4.4286,-4.4286,-4.4501,-4.4874,-4.4442,-4.4014,-4.3601,-4.3601,-4.3075,-4.2296,-4.2296,-4.2062,-4.1731,-4.1731,0.0,0.0,0.0,0.0,0.0,0.0,0.0,-4.1131,-4.1108,-4.1104,-4.1466,0.0,0.0,0.0,-4.2916,0.0,-4.2075,-4.3395,-4.4,-4.4523,-4.5394,-4.5914,-4.6476,-4.7395,-4.7886,-4.8479,-4.9433,-4.9922,-4.9902,-4.9023,-4.8514,-4.7908,-4.7027,-4.6557,-4.6301,-4.6301,-4.63,-4.6301,-4.6308,-4.6308,-4.6308,-4.6308,-4.6308,-4.6307,-4.6301,-4.6309,-4.63,-4.63,-4.63,-4.6305,-4.6293,-4.63,-4.6303,-4.6305,-4.6301,-4.6293,-4.63,-4.63,-4.63,-4.63,-4.63,-4.63,-4.63,-4.63,-4.63,-4.63,-4.63,-4.63,-4.63,0.0,0.0,0.0,0.0,0.0,0.0,0.0,0.0,0.0,0.0,0.0,0.0,0.0,0.0,0.0,0.0,0.0,0.0,0.0,0.0,0.0,-4.1107,-4.1107,-4.1107,-4.1107,-4.1107,-4.1107,-4.1107,-4.1107,-4.1107,-4.1107,-4.177,-4.2549,-4.3387,-4.3387,-4.378,-4.4403,-4.3679,-4.3309,-4.3172,-4.3172,-4.2744,-4.2081,-4.2081,-4.1672,-4.1107,-4.1107,-4.1094,-4.1103,-4.1091,0.0,0.0,0.0,0.0,-4.1191,-4.113,-4.1108,-4.1475,0.0,0.0,-4.2555,-4.2241,-4.1638,0.0,-4.2193,-4.2912,-4.3631,-4.4504,-4.5508,-4.6423,-4.7133,-4.7418,-4.7779,-4.8554,-4.9414,-4.9668,-4.8808,-4.8671,-4.8417,-4.7694,-4.697,-4.6577,-4.6733,-4.6734,-4.6737,-4.6738,-4.6597,-4.6516,-4.6501,-4.6384,-4.6308,-4.6301,-4.6308,-4.63,-4.63,-4.6302,-4.6306,-4.6295,-4.6301,-4.6303,-4.6301,-4.6301,-4.6295,-4.63,-4.63,-4.63,-4.63,-4.63,-4.63,-4.63,-4.63,-4.63,-4.63,-4.63,-4.63,-4.6319,0.0,0.0,0.0,0.0,0.0,0.0,0.0,0.0,0.0,0.0,-4.1107,-4.1107,0.0,0.0,0.0,0.0,0.0,0.0,0.0,0.0,0.0,-4.1107,-4.1107,-4.1107,-4.1107,-4.1107,-4.1107,-4.1107,-4.1107,-4.1107,-4.1107,-4.1205,-4.1692,-4.2471,-4.2471,-4.2549,-4.2646,-4.251,-4.2062,-4.1438,-4.1438,-4.1361,-4.1263,-4.1263,-4.1185,-4.1107,-4.1107,-4.1106,-4.1093,-4.1097,-4.1095,0.0,0.0,0.0,-4.1191,-4.1191,-4.1151,-4.1478,0.0,0.0,0.0,0.0,-4.1183,-4.1326,0.0,0.0,-4.2801,0.0,-4.5104,-4.6231,-4.6355,-4.7035,-4.7631,-4.7754,-4.8496,-4.8769,-4.7891,-4.7773,-4.7734,-4.7617,-4.75,-4.7715,-4.8476,-4.8496,-4.8474,-4.8464,-4.7772,-4.7344,-4.7336,-4.6676,-4.6308,-4.6295,-4.6305,-4.63,-4.63,-4.6308,-4.6295,-4.6301,-4.6307,-4.6307,-4.6301,-4.6301,-4.6295,-4.63,-4.63,-4.63,-4.63,-4.63,-4.63,-4.63,-4.63,-4.63,-4.63,-4.63,-4.63,-4.6417,0.0,0.0,0.0,0.0,0.0,0.0,0.0,0.0,0.0,0.0,0.0,-4.1095,0.0,0.0,0.0,0.0,0.0,0.0,0.0,0.0,0.0,-4.1107,-4.1107,-4.1107,-4.1107,-4.1107,-4.1107,-4.1107,-4.1107,-4.1107,-4.1107,-4.1107,-4.1536,-4.2276,-4.1828,-4.1887,-4.2276,-4.1828,-4.1419,-4.1107,-4.1107,-4.1361,-4.1711,-4.1263,-4.138,-4.1714,-4.1265,-4.1103,-4.11,-4.1094,-4.1104,-4.1108,-4.1172,0.0,0.0,0.0,-4.1172,0.0,-4.2048,0.0,0.0,0.0,-4.1097,-4.1196,-4.1575,0.0,-4.2502,-4.2884,-4.3957,-4.4958,-4.5434,-4.6259,-4.6871,-4.6875,-4.7598,-4.8047,-4.7656,-4.7598,-4.7598,-4.7598,-4.7168,-4.7012,-4.7402,-4.742,-4.7591,-4.8095,-4.7284,-4.7207,-4.8179,-4.7009,-4.6523,-4.7016,-4.6544,-4.6305,-4.63,-4.6309,-4.6297,-4.6305,-4.6308,-4.6307,-4.6301,-4.6301,-4.6295,-4.63,-4.63,-4.63,-4.63,-4.63,-4.63,-4.63,-4.63,-4.6593,-4.7022,-4.7022,-4.7315,-4.7764,0.0,0.0,0.0,0.0,0.0,0.0,0.0,0.0,0.0,0.0,0.0,0.0,0.0,0.0,0.0,0.0,0.0,0.0,0.0,0.0,0.0,0.0,-4.1107,-4.1107,-4.1107,-4.1107,-4.1107,-4.1107,-4.1107,-4.1107,-4.1107,-4.1107,-4.1419,-4.1984,-4.1575,-4.1497,-4.1653,-4.1477,-4.1283,-4.1127,-4.1322,-4.175,-4.2257,-4.1887,-4.2101,-4.2513,-4.1699,-4.1423,-4.1402,-4.1176,-4.1107,-4.113,-4.1172,-4.1191,0.0,0.0,0.0,0.0,0.0,0.0,0.0,0.0,0.0,-4.1091,0.0,0.0,-4.2104,0.0,-4.2765,-4.357,-4.4215,-4.523,-4.5974,-4.5976,-4.6699,-4.7266,-4.7266,-4.7266,-4.7344,-4.7578,-4.7031,-4.6719,-4.6933,-4.695,-4.72,-4.7864,-4.7051,-4.7111,-4.8414,-4.7107,-4.6601,-4.7253,-4.6645,-4.6407,-4.6632,-4.6623,-4.6515,-4.6307,-4.6308,-4.6307,-4.6301,-4.6301,-4.6295,-4.63,-4.63,-4.63,-4.63,-4.63,-4.6436,-4.6632,-4.6632,-4.7159,-4.7899,-4.7899,-4.8271,-4.8837,0.0,0.0,0.0,0.0,0.0,0.0,0.0,0.0,0.0,0.0,0.0,0.0,-4.1015,-4.1064,-4.1108,-4.1108,-4.1106,-4.1097,-4.1093,-4.1106,-4.1107,-4.1107,0.0,0.0,-4.1107,-4.1107,-4.1107,-4.1107,-4.1107,-4.1107,-4.1107,-4.1107,-4.1127,-4.1185,-4.1926,-4.138,-4.0039,-4.1575,-4.1809,-4.1166,-4.1926,-4.2257,-4.2393,-4.3172,-4.3504,-4.3426,-4.2552,-4.2278,-4.2219,-4.1382,-4.1145,-4.1191,-4.1191,-4.1191,-4.1191,0.0,0.0,0.0,0.0,-4.0525,0.0,0.0,0.0,0.0,0.0,0.0,0.0,-4.1269,-4.1914,-4.248,-4.2539,-4.3926,-4.5078,-4.5078,-4.5801,-4.6367,-4.6367,-4.6367,-4.668,-4.75,-4.7558,-4.7851,-4.8672,-4.8708,-4.8683,-4.8722,-4.7928,-4.7497,-4.7648,-4.6793,-4.6328,-4.636,-4.6316,-4.6698,-4.7528,-4.7524,-4.7123,-4.6307,-4.6308,-4.6307,-4.6301,-4.6301,-4.6295,-4.63,-4.63,-4.63,-4.63,-4.63,-4.6788,-4.7528,-4.7528,-4.8037,-4.874,-4.874,-4.8759,-4.8915,0.0,0.0,0.0,0.0,0.0,0.0,0.0,0.0,0.0,0.0,0.0,0.0,0.0,-4.0971,-4.1014,-4.1085,-4.1095,-4.1106,-4.1099,-4.1096,-4.1098,-4.1098,-4.11,-4.1107,-4.1107,-4.1107,-4.1107,-4.1107,-4.1107,-4.0815,-4.0273,-4.0273,-3.9669,-3.8675,-4.064,-4.1205,-4.0659,-4.1283,-4.1361,-4.1166,-4.1984,-4.2646,-4.3114,-4.2861,-4.3465,-4.4251,-4.2869,-4.2371,-4.2358,-4.2035,-4.1617,-4.1191,-4.1191,-4.1191,-4.1094,-4.0527,-3.957,0.0,0.0,0.0,0.0,0.0,0.0,-4.1152,-4.1152,-4.1172,-4.1191,-4.1191,-4.1426,-4.1621,-4.1621,-4.3027,-4.418,-4.418,-4.4433,-4.4824,-4.5391,-4.5469,-4.5781,-4.666,-4.6777,-4.668,-4.6426,-4.6384,-4.6362,-4.6366,-4.5559,-4.5558,-4.6698,-4.541,-4.5137,-4.6267,-4.5757,-4.5871,-4.6764,-4.7314,-4.7162,-4.6307,-4.6874,-4.6834,-4.6301,-4.6301,-4.6295,-4.63,-4.63,-4.63,-4.6339,-4.6905,-4.7315,-4.7645,-4.8174,-4.8896,-4.9636,-4.9636,-4.9989,-5.0516,0.0,0.0,0.0,0.0,0.0,0.0,0.0,0.0,0.0,-4.0877,0.0,0.0,0.0,0.0,-4.0972,-4.1069,-4.1055,-4.1033,-4.1069,-4.1077,-4.1078,-4.1093,-4.1095,-4.11,-4.1107,-4.0802,-4.0802,-4.1107,-4.0802,-4.0373,-3.9805,-3.9805,-3.9026,-3.772,-3.9766,-4.0506,-4.0273,-4.0854,-4.1107,-4.1205,-4.2296,-4.2919,-4.3153,-4.3176,-4.3708,-4.4328,-4.3197,-4.2815,-4.2795,-4.2491,-4.2049,-4.1504,-4.0937,-4.0566,-4.0156,-3.9277,-3.8203,-3.748,-3.8359,0.0,0.0,0.0,0.0,-4.1191,-4.1191,0.0,-4.1191,-4.1191,-4.1191,-4.1191,-4.1191,-4.2109,-4.2949,-4.3223,-4.3516,-4.3906,-4.4473,-4.4551,-4.4785,-4.5351,-4.5429,-4.5195,-4.4629,-4.457,-4.4569,-4.4551,-4.4022,-4.4217,-4.5371,-4.4336,-4.4238,-4.5389,-4.5427,-4.5562,-4.5852,-4.7023,-4.7162,-4.6305,-4.6892,-4.6852,-4.63,-4.6301,-4.6295,-4.6319,-4.6612,-4.6749,-4.6788,-4.7352,-4.7938,-4.8484,-4.9032,-4.9774,-5.0534,-5.0534,-5.0906,-5.1394,0.0,0.0,0.0,0.0,0.0,0.0,0.0,0.0,-4.0797,-4.0797,0.0,0.0,0.0,0.0,0.0,-4.1007,-4.0942,-4.0939,-4.1008,-4.0995,-4.1031,-4.1083,-4.11,-4.1106,-4.1097,-4.0271,-4.0248,-4.1091,-4.0226,-3.9797,-3.9766,-3.9747,-3.9279,-3.85,-3.9318,-3.926,-3.8656,-4.037,-4.1107,-4.1244,-4.2939,-4.3075,-4.2491,-4.4208,-4.4348,-4.3592,-4.3575,-4.3603,-4.3528,-4.2689,-4.2381,-4.207,-4.0449,-3.9316,-3.8437,-3.7598,-3.7305,-3.7441,0.0,0.0,0.0,0.0,0.0,0.0,-4.1191,0.0,-4.1191,-4.1191,-4.1191,-4.1191,-4.1191,-4.1191,-4.1445,-4.2226,-4.3066,-4.3633,-4.3652,-4.3652,-4.3672,-4.3691,-4.3691,-4.369,-4.3652,-4.3651,-4.3651,-4.3613,-4.3613,-4.3613,-4.3613,-4.3652,-4.3652,-4.3651,-4.5327,-4.5832,-4.5013,-4.6691,-4.714,-4.6301,-4.6325,-4.6323,-4.6293,-4.63,-4.6295,-4.6358,-4.7198,-4.7586,-4.7606,-4.7645,-4.8621,-5.0104,-5.0124,-5.0631,-5.1355,-5.1355,-5.1355,-5.1316,0.0,0.0,0.0,0.0,0.0,0.0,-4.0797,-4.0797,-4.0797,0.0,0.0,0.0,-4.0898,-4.0968,-4.097,-4.0932,-4.0954,-4.0975,-4.1008,-4.0957,-4.0935,-4.0946,-4.0953,-4.0976,-4.1034,-4.0791,-4.0816,-4.1094,-4.024,-3.9477,-3.885,-3.8207,-3.7798,-3.7545,-3.7155,-3.7896,-3.9513,-4.062,-4.1107,-4.1244,-4.2939,-4.3075,-4.2413,-4.3543,-4.3818,-4.3514,-4.2932,-4.2744,-4.2727,-4.2473,-4.201,-4.1445,-4.0996,-3.9805,-3.8555,-3.8301,-3.7344,-3.6543,-3.7422,0.0,0.0,0.0,0.0,0.0,0.0,0.0,-4.107,-4.1116,-4.112,-4.1144,-4.1191,-4.1168,-4.1198,-4.1414,-4.1697,-4.209,-4.2676,-4.2754,-4.2988,-4.3633,-4.3691,-4.3436,-4.2744,-4.2682,-4.2438,-4.1785,-4.1792,-4.1824,-4.1824,-4.242,-4.2754,-4.2754,-4.3847,-4.4608,-4.4997,-4.6107,-4.6535,-4.6301,-4.6943,-4.69,-4.6293,-4.6295,-4.6291,-4.63,-4.6554,-4.7022,-4.7684,-4.8913,-4.9675,-5.0163,-5.0789,-5.0809,-5.0455,-5.0455,-5.0067,-4.952,0.0,0.0,0.0,0.0,0.0,-4.0797,-4.0797,-4.0797,-4.0797,0.0,0.0,0.0,-4.0856,-4.0915,-4.0945,-4.0893,-4.0968,-4.1003,-4.105,-4.1007,-4.0986,-4.0985,-4.0971,-4.0995,-4.1035,-4.0695,-4.0701,-4.1095,-3.9853,-3.8993,-3.848,-3.7603,-3.7019,-3.6649,-3.6512,-3.7487,-3.9318,-4.0195,-4.0776,-4.1205,-4.2529,-4.2549,-4.189,-4.276,-4.2863,-4.2535,-4.2448,-4.2407,-4.24,-4.24,-4.162,-4.0664,-4.0664,-3.9707,-3.8594,-3.8594,-3.785,-3.7222,-3.8101,-3.8681,-3.9255,-4.0092,0.0,0.0,-4.0955,-4.0741,-4.0585,-4.1003,-4.1076,-4.1072,-4.1112,-4.108,-4.1064,-4.1064,-4.1083,-4.127,-4.1717,-4.1776,-4.1952,-4.2479,-4.2511,-4.2307,-4.1807,-4.1739,-4.1527,-4.1033,-4.1066,-4.1115,-4.1143,-4.162,-4.1894,-4.1894,-4.2715,-4.3398,-4.3905,-4.4782,-4.5404,-4.5755,-4.6278,-4.645,-4.6308,-4.6291,-4.6308,-4.6319,-4.6671,-4.7139,-4.7703,-4.9011,-4.9558,-4.9618,-5.0126,-5.0008,-4.9558,-4.9558,-4.9247,-4.8798,0.0,0.0,-4.0797,-4.0797,-4.0797,-4.0797,-4.0797,-4.0797,-4.0797,0.0,-4.0809,-4.0815,-4.0815,-4.0863,-4.0902,-4.0902,-4.0972,-4.1037,-4.1081,-4.1083,-4.1082,-4.1093,-4.1092,-4.109,-4.1082,-4.0331,-4.026,-4.0968,-3.9312,-3.8458,-3.8347,-3.7467,-3.6688,-3.6064,-3.6749,-3.7648,-3.87,-3.936,-4.0217,-4.1172,-4.1987,-4.1812,-4.1195,-4.2064,-4.1855,-4.1192,-4.1983,-4.2263,-4.2266,-4.2266,-4.1289,-4.0039,-4.0039,-3.9453,-3.873,-3.873,-3.8625,-3.8684,-3.954,-3.9743,-3.9874,-4.065,-4.0263,0.0,-4.0615,-4.012,-3.9769,-4.0621,-4.073,-4.0731,-4.0835,-4.0851,-4.0883,-4.0961,-4.0974,-4.097,-4.0912,-4.0912,-4.0912,-4.0912,-4.084,-4.0856,-4.0977,-4.0929,-4.0918,-4.0967,-4.105,-4.1114,-4.1171,-4.1191,-4.1191,-4.1191,-4.1894,-4.2305,-4.2402,-4.3163,-4.3981,-4.4857,-4.4855,-4.5319,-4.6165,-4.6152,-4.621,-4.6339,-4.712,-4.745,-4.7508,-4.8232,-4.8623,-4.8798,-4.8798,-4.8759,-4.8662,-4.8662,-4.8603,-4.8525,0.0,-4.0797,-4.0797,-4.0797,-4.0797,-4.0797,-4.0797,-4.0797,-4.0797,-4.0797,-4.084,-4.0878,-4.0878,-4.0945,-4.097,-4.097,-4.0984,-4.1016,-4.1031,-4.1011,-4.102,-4.1015,-4.1015,-4.1027,-4.101,-4.0855,-4.0527,-4.0056,-3.9013,-3.8146,-3.744,-3.6562,-3.6434,-3.6921,-3.6399,-3.7422,-3.9509,-3.898,-3.966,-4.1161,-4.1974,-4.1824,-4.1203,-4.2069,-4.1862,-4.1125,-4.1283,-4.1385,-4.1426,-4.1426,-4.1211,-4.0957,-4.0957,-4.0351,-3.9648,-3.9579,-3.9062,-3.8679,-3.9499,-3.9711,-3.9728,-3.9848,-3.9757,0.0,-3.8899,-3.8616,-3.8554,-3.8797,-3.884,-3.9062,-3.9818,-3.9917,-4.0103,-4.0818,-4.0868,-4.0868,-4.097,-4.0987,-4.0987,-4.0987,-4.0912,-4.0883,-4.092,-4.0869,-4.0829,-4.0834,-4.0893,-4.0987,-4.1115,-4.1117,-4.1145,-4.1191,-4.1348,-4.1758,-4.2383,-4.2577,-4.3084,-4.3943,-4.3955,-4.4418,-4.5255,-4.5251,-4.5638,-4.63,-4.6475,-4.6554,-4.6573,-4.6729,-4.7588,-4.8798,-4.8798,-4.8408,-4.782,-4.782,-4.7393,-4.6788,-4.0797,-4.0797,-4.0797,-4.0797,-4.0797,-4.0797,-4.0797,-4.0797,-4.0797,-4.0797,-4.0831,-4.0867,-4.0903,-4.0968,-4.1006,-4.1054,-4.1078,-4.1108,-4.1108,-4.1108,-4.1108,-4.1108,-4.1108,-4.1091,-4.1099,-4.0643,-4.0195,-3.9803,-3.8496,-3.7659,-3.7228,-3.636,-3.6415,-3.7214,-3.6347,-3.7386,-3.9749,-3.8869,-3.9513,-4.1131,-4.1532,-4.1451,-4.1154,-4.1589,-4.1488,-4.1108,-4.113,-4.1171,-4.1191,-4.1191,-4.1191,-4.1191,-4.1191,-4.0878,-4.048,-4.0468,-4.0082,-3.9773,-4.0182,-3.9967,-3.9592,-3.9567,-3.8893,0.0,0.0,-3.7896,-3.7691,-3.8199,-3.8273,-3.8384,-3.8863,-3.9277,-3.9688,-4.0134,-4.0548,-4.082,-4.0893,-4.0874,-4.0849,-4.0849,-4.0786,-4.0789,-4.0851,-4.0798,-4.0773,-4.0846,-4.0878,-4.0968,-4.1085,-4.1109,-4.1121,-4.1191,-4.1191,-4.1387,-4.1797,-4.1797,-4.2226,-4.3045,-4.3042,-4.3739,-4.5003,-4.5,-4.5483,-4.63,-4.63,-4.63,-4.63,-4.63,-4.6807,-4.7549,-4.7549,-4.7315,-4.6944,-4.6944,-4.6671,-4.63,-4.0739,-4.0797,-4.0797,-4.0797,-4.0797,-4.0797,-4.0797,-4.0797,-4.0797,-4.0797,-4.082,-4.0862,-4.0906,-4.0984,-4.1064,-4.1115,-4.1169,-4.1191,-4.1191,-4.1191,-4.1191,-4.1191,-4.1191,-4.1191,-4.1191,-4.0291,-3.9742,-3.9566,-3.7996,-3.7169,-3.7032,-3.6325,-3.6383,-3.7028,-3.6484,-3.7482,-3.9534,-3.8986,-3.9669,-4.1093,-4.1095,-4.1107,-4.1092,-4.11,-4.1108,-4.113,-4.1172,-4.1191,-4.1191,-4.1191,-4.1191,-4.1171,-4.1171,-4.1122,-4.1078,-4.107,-4.0977,-4.0864,-4.067,-4.0079,-3.9423,-3.9075,-3.7947,-3.7066,0.0,0.0,0.0,-3.7632,0.0,0.0,0.0,0.0,0.0,-3.9249,0.0,0.0,0.0,-4.0533,0.0,-4.0726,-4.0661,-4.0668,-4.079,-4.0746,-4.0764,-4.0868,-4.0878,-4.0937,-4.1061,-4.1066,-4.1108,-4.1171,-4.1171,-4.1191,-4.1191,-4.1191,-4.1523,-4.2167,-4.2166,-4.2964,-4.4518,-4.4673,-4.5237,-4.6051,-4.6225,-4.6303,-4.6303,-4.6302,-4.63,-4.63,-4.63,-4.63,-4.63,-4.63,-4.63,-4.63,-4.0507,-4.0797,-4.0797,-4.0797,-4.0797,-4.0797,-4.0797,-4.0797,-4.0797,-4.0797,-4.0893,-4.097,-4.0997,-4.1108,-4.1171,-4.1191,-4.1191,-4.1191,-4.1191,-4.1191,-4.1191,-4.1191,-4.1191,-4.1191,-4.1191,-4.0332,-3.9512,-3.873,-3.7751,-3.6908,-3.6146,-3.6057,-3.6051,-3.6189,-3.6845,-3.7747,-3.8783,-3.9388,-4.0207,-4.1105,-4.1104,-4.1104,-4.1104,-4.1106,-4.113,-4.1191,-4.1191,-4.1191,-4.1191,-4.1191,-4.1168,-4.1114,-4.1114,-4.1068,-4.099,-4.0945,-4.0906,-4.0714,-3.9882,-3.9571,-3.9133,-3.758,-3.7058,-3.6734,-3.6132,0.0,-3.5864,-3.5977,0.0,0.0,0.0,0.0,0.0,0.0,0.0,0.0,-3.8721,-3.9823,-4.079,-4.079,-4.0733,-4.0726,-4.079,-4.079,-4.0797,-4.0815,-4.0815,-4.084,-4.0915,-4.092,-4.0974,-4.1112,-4.1114,-4.1143,-4.1191,-4.1191,-4.125,-4.1348,-4.1288,-4.1756,-4.2712,-4.3509,-4.4327,-4.5186,-4.5962,-4.6291,-4.6291,-4.6303,-4.63,-4.63,-4.63,-4.63,-4.63,-4.63,-4.63,-4.63,-3.9146,-3.9282,-3.9282,-3.9282,-3.9282,-3.9282,-3.9282,-3.9282,-3.9282,-3.9282,-3.9779,-4.013,-4.0186,-4.0727,-4.1108,-4.1143,-4.1171,-4.1191,-4.1191,-4.0681,-4.0621,-4.1172,-4.0165,-3.9825,-4.0384,-3.9005,-3.8097,-3.7726,-3.6852,-3.625,-3.5879,-3.5885,-3.6141,-3.6649,-3.7011,-3.7975,-3.9313,-3.9664,-4.0331,-4.1151,-4.1151,-4.1151,-4.1151,-4.1151,-4.1171,-4.1191,-4.1167,-4.1144,-4.1142,-4.1106,-4.1068,-4.103,-4.103,-4.101,-4.0937,-4.0921,-4.0863,-4.0649,-3.9751,-3.9501,-3.9075,-3.7348,-3.6903,-3.669,-3.5878,-3.5704,-3.5704,-3.5704,0.0,0.0,0.0,0.0,0.0,0.0,-3.9984,-4.0545,0.0,0.0,-4.0797,-4.0797,0.0,0.0,-4.0797,-4.0797,-4.0797,-4.0797,-4.0797,-4.0831,-4.0903,-4.0907,-4.0953,-4.1106,-4.1109,-4.1122,-4.1191,-4.1191,-4.1191,-4.1191,-4.1172,-4.1581,-4.2439,-4.3298,-4.4174,-4.5052,-4.5929,-4.6296,-4.6293,-4.6309,-4.6305,-4.63,-4.63,-4.63,-4.63,-4.63,-4.63,-4.63,-3.7522,-3.7883,-3.8193,-3.8193,-3.8193,-3.8193,-3.8193,-3.8193,-3.829,-3.8528,-3.9124,-3.9644,-3.9912,-4.0579,-4.1011,-4.107,-4.1122,-4.1169,-4.1145,-4.0511,-4.0452,-4.1125,-3.9601,-3.9075,-3.9769,-3.8022,-3.7102,-3.7102,-3.6223,-3.5791,-3.5811,-3.6045,-3.6493,-3.7119,-3.7598,-3.8541,-3.9786,-4.0038,-4.0522,-4.1144,-4.1144,-4.1144,-4.1145,-4.1169,-4.1168,-4.1142,-4.1083,-4.1074,-4.1068,-4.1028,-4.0997,-4.0963,-4.0963,-4.0924,-4.0863,-4.0863,-4.0848,-4.0603,-3.9733,-3.9501,-3.9075,-3.7348,-3.6903,-3.669,-3.5878,-3.5858,-3.6033,-3.6033,-3.6226,0.0,0.0,0.0,-3.8682,0.0,0.0,-4.0623,0.0,-4.0507,0.0,0.0,0.0,0.0,0.0,-4.0797,-4.0797,-4.0797,-4.0797,-4.0814,-4.0863,-4.0863,-4.0924,-4.1033,-4.1054,-4.1081,-4.117,-4.117,-4.1171,-4.1191,-4.1191,-4.1504,-4.2108,-4.3202,-4.4041,-4.4703,-4.5816,-4.6301,-4.6295,-4.6294,-4.6309,-4.6303,-4.6302,-4.6302,-4.6303,-4.6302,-4.63,-4.63,-3.5781,-3.7096,-3.8193,-3.8193,-3.8193,-3.8193,-3.8193,-3.8193,-3.8508,-3.9346,-3.9543,-3.9917,-4.0771,-4.0949,-4.0994,-4.0994,-4.1068,-4.1076,-4.1003,-4.1048,-4.1033,-4.1,-4.0142,-3.9675,-3.9697,-3.7979,-3.7102,-3.7102,-3.6223,-3.5791,-3.5811,-3.6663,-3.7069,-3.7169,-3.8861,-3.9643,-3.976,-4.0604,-4.0977,-4.1016,-4.1016,-4.1016,-4.1006,-4.1078,-4.1066,-4.1016,-4.0997,-4.0994,-4.0994,-4.0994,-4.0964,-4.0893,-4.0893,-4.0862,-4.0803,-4.0803,-4.0797,-4.0603,-3.9733,-3.9501,-3.9075,-3.7348,-3.6903,-3.669,-3.5878,-3.6303,-3.6864,-3.6864,-3.7535,-3.8392,-3.9268,-3.9443,-3.9191,-3.8373,0.0,0.0,0.0,0.0,0.0,0.0,-4.0797,0.0,0.0,-4.0797,-4.0797,-4.0797,-4.0797,-4.0797,-4.0803,-4.0803,-4.0823,-4.0893,-4.0917,-4.0963,-4.109,-4.1091,-4.1142,-4.1191,-4.1191,-4.1211,-4.1289,-4.2949,-4.3711,-4.3848,-4.5565,-4.6305,-4.6301,-4.6295,-4.6293,-4.6291,-4.6303,-4.6305,-4.6291,-4.6303,-4.63,-4.63,-3.5628,-3.6126,-3.6555,-3.6555,-3.6555,-3.6555,-3.6555,-3.7,-3.7657,-3.8528,-3.9199,-3.9917,-4.0732,-4.0932,-4.0974,-4.0941,-4.1007,-4.1014,-4.0994,-4.0448,-4.037,-4.0971,-3.9531,-3.899,-3.9618,-3.8451,-3.7827,-3.7827,-3.6954,-3.6818,-3.7376,-3.7104,-3.7279,-3.788,-3.9049,-3.9592,-3.9692,-4.0567,-4.0968,-4.099,-4.099,-4.0963,-4.0945,-4.1,-4.1011,-4.0984,-4.0957,-4.0937,-4.0924,-4.0883,-4.0851,-4.0837,-4.0837,-4.0808,-4.0797,-4.0797,-4.0797,-4.0603,-3.9733,-3.9926,-3.9946,-3.8199,-3.8199,-3.8398,-3.756,-3.7555,-3.7748,-3.7748,-3.798,-3.847,-3.9346,-3.9501,-3.9597,0.0,0.0,0.0,0.0,0.0,-4.0797,-4.0797,-4.0797,0.0,0.0,-4.0797,-4.0797,-4.0797,-4.0797,-4.0797,-4.0797,-4.0797,-4.0831,-4.0903,-4.0907,-4.0949,-4.1022,-4.1076,-4.1114,-4.1123,-4.1171,-4.1191,-4.1269,-4.2949,-4.3691,-4.3808,-4.5547,-4.6307,-4.6305,-4.6304,-4.6302,-4.6299,-4.6297,-4.6297,-4.6297,-4.6306,-4.6305,-4.6309,-3.5522,-3.5559,-3.562,-3.5698,-3.5704,-3.58,-3.6071,-3.6574,-3.7328,-3.8508,-3.9182,-3.9876,-4.0706,-4.0873,-4.0906,-4.0877,-4.0924,-4.0941,-4.0928,-4.0382,-4.0319,-4.0909,-3.9464,-3.8955,-3.9558,-3.8665,-3.8193,-3.8193,-3.7632,-3.7651,-3.8193,-3.7947,-3.8121,-3.8682,-3.9249,-3.9702,-4.0043,-4.029,-4.0602,-4.0928,-4.0928,-4.0893,-4.0863,-4.0915,-4.0932,-4.092,-4.0878,-4.0853,-4.0862,-4.0802,-4.0797,-4.0797,-4.0797,-4.0797,-4.0797,-4.0797,-4.0797,-4.0681,-4.012,-4.0371,-4.0468,-3.9011,-3.9075,-3.9268,-3.8411,-3.845,-3.8663,-3.8663,-3.8914,-3.9301,-3.9868,-3.9965,-4.0133,0.0,0.0,0.0,0.0,-4.0797,-4.0797,-4.0797,-4.0797,0.0,0.0,-4.0797,-4.0797,-4.0797,-4.0797,-4.0797,-4.0797,-4.0797,-4.0814,-4.0867,-4.0853,-4.0903,-4.0953,-4.1022,-4.1076,-4.1109,-4.1169,-4.1191,-4.1269,-4.2949,-4.3691,-4.3808,-4.5547,-4.6308,-4.6307,-4.6307,-4.6306,-4.6304,-4.6302,-4.6302,-4.6303,-4.6294,-4.6293,-4.6296,-3.5391,-3.5398,-3.5464,-3.5701,-3.5762,-3.6013,-3.6787,-3.698,-3.7638,-3.9346,-3.9565,-3.9894,-4.0758,-4.0842,-4.0803,-4.0797,-4.0862,-4.0877,-4.0803,-4.0862,-4.0877,-4.0803,-4.0004,-3.9559,-3.9559,-3.876,-3.8328,-3.8328,-3.829,-3.8251,-3.827,-3.9075,-3.9443,-3.9443,-3.9481,-3.9965,-4.0681,-3.9907,-4.0042,-4.0797,-4.0797,-4.0797,-4.0803,-4.0808,-4.0802,-4.0797,-4.0797,-4.0797,-4.0797,-4.0797,-4.0797,-4.0797,-4.0797,-4.0797,-4.0797,-4.0797,-4.0797,-4.0797,-4.0797,-4.0797,-4.0603,-3.9771,-3.9559,-3.9346,-3.8528,-3.8972,-3.9559,-3.9559,-4.0216,-4.0797,-4.0797,-4.079,-4.0752,0.0,0.0,0.0,-4.0797,-4.0797,-4.0797,-4.0797,-4.0797,-4.0797,-4.0797,-4.0797,-4.0797,-4.0797,-4.0797,-4.0797,0.0,-4.0797,-4.0797,-4.0797,-4.0797,-4.0831,-4.0898,-4.0968,-4.1037,-4.1085,-4.1168,-4.1191,-4.125,-4.293,-4.3691,-4.3808,-4.5547,-4.6308,-4.6307,-4.6307,-4.6307,-4.6307,-4.6304,-4.6305,-4.6307,-4.6304,-4.6301,-4.6301,-3.546,-3.5376,-3.5637,-3.6395,-3.6565,-3.6651,-3.6864,-3.8005,-3.923,-4.0313,-4.051,-4.0837,-4.1615,-4.1203,-4.0856,-4.0803,-4.0827,-4.0808,-4.0797,-4.0827,-4.0827,-4.0797,-4.0584,-4.0468,-4.0468,-4.0255,-4.0133,-4.0133,-3.9481,-3.9172,-3.9152,-3.8721,-3.8528,-3.8566,-3.921,-3.9617,-3.9868,-4.0294,-4.0603,-4.0797,-4.0797,-4.0809,-4.0808,-4.0794,-4.0806,-4.0804,-4.0794,-4.0808,-4.0802,-4.0803,-4.0797,-4.0797,-4.0797,-4.0797,-4.0797,-4.0797,-4.0797,-4.0797,-4.0797,-4.0797,-4.0758,-4.0526,-4.0468,-4.041,-4.0172,-4.0313,-4.0468,-4.0468,-4.0642,-4.0797,-4.0797,-4.0713,-4.0635,-4.0614,-4.0628,-4.07,-4.079,-4.0797,-4.0797,-4.0797,-4.0797,-4.0797,-4.0797,-4.0797,-4.0797,-4.0797,-4.0797,-4.0797,-4.0797,-4.0797,-4.0797,-4.0797,-4.0797,-4.0809,-4.0825,-4.0898,-4.0937,-4.0941,-4.1072,-4.1139,-4.1178,-4.2909,-4.3691,-4.3808,-4.5547,-4.6308,-4.6308,-4.6308,-4.6308,-4.6308,-4.6308,-4.6308,-4.6308,-4.6307,-4.6305,-4.6302,-3.54,-3.5655,-3.615,-3.6704,-3.777,-3.8431,-3.8083,-3.8862,-3.981,-4.07,-4.0837,-4.1009,-4.1441,-4.1108,-4.0834,-4.0803,-4.0797,-4.0797,-4.0797,-4.0797,-4.0797,-4.0797,-4.0797,-4.0797,-4.0797,-4.0797,-4.0797,-4.0797,-4.0313,-4.0062,-4.0042,-3.9185,-3.876,-3.876,0.0,-3.8785,-3.9559,-4.0429,-4.0797,-4.0797,-4.0797,-4.079,0.0,-4.0792,-4.0821,-4.0842,-4.084,-4.0818,-4.0794,-4.0796,-4.0803,-4.0797,-4.0797,-4.0797,-4.0797,-4.0797,-4.0797,-4.0797,-4.0797,-4.0797,-4.0797,-4.0797,-4.0797,-4.0797,-4.0797,-4.0797,-4.0784,-4.072,-4.0713,-4.0713,-4.0713,-4.0633,-4.0564,-4.0564,-4.0534,-4.0561,-4.0653,-4.0694,-4.0713,-4.0713,-4.0759,-4.0797,-4.0797,-4.0797,-4.0797,-4.0797,-4.0797,-4.0797,-4.0797,-4.0797,-4.0797,-4.0797,-4.0797,-4.0797,-4.0797,-4.0877,-4.0907,-4.0888,-4.1047,-4.1109,-4.1169,-4.2908,-4.3691,-4.3808,-4.5547,-4.6308,-4.6308,-4.6308,-4.6308,-4.6308,-4.6308,-4.6308,-4.6308,-4.6308,-4.6307,-4.6306,-3.5629,-3.6278,-3.6892,-3.7089,-3.9013,-4.0314,-3.9746,-3.9752,-4.0068,-4.0719,-4.0797,-4.0797,-4.0797,-4.0797,-4.0797,-4.0797,-4.0797,-4.0797,-4.0797,-4.0797,-4.0797,-4.0797,-4.0797,-4.0797,-4.0797,-4.0797,-4.0797,-4.0797,-4.0797,-4.0739,-4.0603,-3.9849,0.0,0.0,0.0,0.0,0.0,-4.0429,-4.0797,-4.0797,-4.0797,-4.0796,-4.0806,-4.0796,-4.0848,-4.0907,-4.0907,-4.0856,-4.0806,-4.08,-4.0802,-4.0803,-4.0797,-4.0797,-4.0797,-4.0797,-4.0797,-4.0797,-4.0797,-4.0797,-4.0797,-4.0797,-4.0797,-4.079,-4.0784,-4.0765,-4.0746,-4.0614,-4.06,-4.06,-4.06,-4.0534,-4.05,-4.05,-4.0444,-4.0436,-4.0496,-4.0579,-4.0628,-4.0628,-4.072,0.0,-4.0797,-4.0797,-4.0797,-4.0797,-4.0797,-4.0797,-4.0797,-4.0797,-4.0797,-4.0797,-4.0797,-4.0797,-4.0797,-4.0862,-4.0888,-4.0888,-4.1009,-4.1074,-4.1135,-4.2886,-4.3691,-4.3789,-4.5547,-4.6308,-4.6308,-4.6308,-4.6308,-4.6308,-4.6308,-4.6308,-4.6308,-4.6308,-4.6308,-4.6308,-3.7351,-3.7491,-3.7873,-3.8726,-3.9247,-3.9758,-4.0391,-4.1151,-4.1447,-4.0874,-4.0797,-4.0797,-4.0797,-4.0797,-4.0797,-4.0797,-4.0797,-4.0797,-4.0797,-4.0797,-4.0797,-4.0797,-4.0797,-4.0797,-4.0797,-4.0797,-4.0797,-4.0797,-4.0797,-4.0429,-3.9713,-3.9578,0.0,0.0,0.0,0.0,-3.9559,-4.0429,-4.0797,-4.0797,-4.0797,-4.0788,-4.0801,-4.0807,-4.0839,-4.0898,-4.0898,-4.0898,-4.0862,-4.0812,-4.0794,-4.0808,-4.0803,-4.0797,-4.0797,-4.0797,-4.0797,-4.0797,-4.0797,-4.0797,-4.0797,-4.0797,-4.0797,-4.0759,-4.0668,-4.0635,-4.0607,-4.0534,-4.0519,-4.0519,-4.0519,-4.0468,-4.043,-4.043,-4.046,-4.0504,-4.0559,-4.0694,-4.0759,-4.0759,-4.079,-4.0797,-4.0797,-4.0797,-4.0797,-4.0797,-4.0797,-4.0797,-4.0797,-4.0797,-4.0797,-4.0797,-4.0797,-4.0797,-4.0797,-4.0815,-4.0827,-4.0814,-4.0903,-4.0937,-4.1003,-4.2807,-4.3618,-4.3717,-4.5526,-4.6308,-4.6308,-4.6308,-4.6308,-4.6308,-4.6308,-4.6308,-4.6308,-4.6308,-4.6308,-4.6308,-3.7849,-3.823,-3.8692,-3.9264,-4.0444,-4.1328,-4.1377,-4.2538,-4.2918,-4.1609,-4.1409,-4.1409,-4.1409,-4.1409,-4.1255,-4.0835,-4.0797,-4.0797,-4.0797,-4.0797,-4.0797,-4.0797,-4.0797,-4.0797,-4.0797,-4.0797,-4.0797,-4.0797,-4.0797,-4.0584,-4.0158,-3.9713,-3.9288,-3.8876,0.0,-3.9114,0.0,-4.0429,-4.0797,-4.0797,-4.0797,-4.0802,-4.0804,-4.0801,-4.0833,-4.0908,-4.0903,-4.0898,-4.0898,-4.0826,-4.0792,-4.0794,-4.0803,-4.0797,-4.0797,-4.0797,-4.0797,-4.0797,-4.0797,-4.0797,-4.0797,-4.0797,-4.0752,-4.0674,-4.0602,-4.0559,-4.0534,-4.0468,-4.0452,-4.0436,-4.0405,-4.0396,-4.0388,-4.0354,-4.0381,-4.0405,-4.0447,-4.0535,-4.0588,-4.0588,-4.0624,-4.066,-4.07,-4.0666,-4.0699,-4.079,-4.0797,-4.0797,-4.0797,-4.0797,-4.0797,-4.0797,-4.0797,-4.0797,-4.0797,-4.0797,-4.0797,-4.0797,-4.0877,-4.0907,-4.0956,-4.2771,-4.3591,-4.371,-4.5506,-4.6308,-4.6308,-4.6308,-4.6308,-4.6308,-4.6308,-4.6308,-4.6308,-4.6308,-4.6308,-4.6308,-3.8618,-3.9248,-3.9834,-4.0121,-4.1846,-4.2975,-4.2337,-4.3413,-4.3813,-4.2454,-4.2106,-4.2009,-4.2009,-4.1854,-4.1487,-4.0855,-4.0797,-4.0797,-4.0797,-4.0797,-4.0797,-4.0797,-4.0797,-4.0797,-4.0797,-4.0797,-4.0797,-4.0797,-4.0797,-4.0719,-4.0507,-4.0004,-3.9675,-3.9501,-3.9694,-3.9675,-3.9559,-4.0429,-4.0797,-4.0797,-4.0797,-4.079,-4.08,-4.0809,-4.0837,-4.0907,-4.0883,-4.0893,-4.0888,-4.0818,-4.0804,-4.08,-4.0809,-4.0797,-4.079,-4.0778,-4.0778,-4.0778,-4.0765,-4.0765,-4.0752,-4.0752,-4.0674,-4.0607,-4.0574,-4.0542,-4.0492,-4.0394,-4.0379,-4.0363,-4.0301,-4.0336,-4.0363,-4.032,-4.0301,-4.0319,-4.0319,-4.037,-4.0419,-4.0419,-4.0473,-4.0542,-4.0586,-4.0549,-4.0591,-4.0746,-4.0752,-4.0759,-4.0797,-4.0797,-4.0797,-4.0797,-4.0797,-4.0797,-4.0797,-4.0797,-4.0797,-4.0797,-4.0851,-4.097,-4.1189,-4.2815,-4.366,-4.3938,-4.5578,-4.6289,-4.6308,-4.6308,-4.6308,-4.6308,-4.6308,-4.6308,-4.6308,-4.6308,-4.6308,-4.6308,-4.102,-4.1421,-4.1735,-4.2604,-4.2961,-4.3081,-4.3011,-4.3188,-4.3283,-4.3182,-4.2492,-4.2009,-4.2009,-4.1351,-4.0874,-4.0816,-4.0797,-4.0797,-4.0797,-4.0797,-4.0797,-4.0797,-4.0797,-4.0797,-4.0797,-4.0797,-4.0797,-4.0797,-4.0797,-4.041,-3.9636,-4.0352,-4.0255,-3.952,-4.0332,-4.0236,-3.9559,-4.0429,-4.0797,-4.0797,-4.0797,-4.079,-4.0794,-4.08,-4.0834,-4.0883,-4.0823,-4.0848,-4.0897,-4.0823,-4.0798,-4.0796,-4.0796,-4.0797,-4.0784,-4.0641,-4.0661,-4.0706,-4.0644,-4.0612,-4.0621,-4.0621,-4.0614,-4.0574,-4.0527,-4.0504,-4.0457,-4.0342,-4.0318,-4.032,-4.0301,-4.031,-4.032,-4.0301,-4.0345,-4.0388,-4.0388,-4.0452,-4.0481,-4.0481,-4.0557,-4.0579,-4.0512,-4.0564,-4.0607,-4.0621,-4.0621,-4.0668,-4.079,-4.0797,-4.0797,-4.0797,-4.0797,-4.0797,-4.0797,-4.0797,-4.0797,-4.0797,-4.0809,-4.1196,-4.1938,-4.2946,-4.3855,-4.4657,-4.5743,-4.6241,-4.6308,-4.6308,-4.6308,-4.6308,-4.6308,-4.6308,-4.6308,-4.6308,-4.6308,-4.6308,-4.233,-4.2482,-4.2614,-4.3038,-4.3506,-4.3838,-4.3863,-4.4357,-4.4716,-4.4742,-4.3606,-4.2589,-4.2067,-4.1699,-4.1332,-4.0835,-4.0797,-4.0797,-4.0797,-4.0797,-4.0797,-4.0797,-4.0797,-4.1029,-4.1506,-4.1048,-4.1048,-4.1525,-4.1048,-4.0623,-4.0294,-4.0642,-4.0603,-4.0294,-4.0642,-4.0603,-4.0294,-4.0642,-4.0797,-4.0797,-4.0797,-4.0803,-4.0796,-4.0788,-4.0812,-4.0834,-4.0807,-4.0812,-4.0837,-4.0812,-4.0806,-4.0787,-4.0701,-4.0674,-4.0661,-4.0564,-4.0557,-4.0576,-4.0546,-4.0546,-4.0542,-4.0542,-4.05,-4.0477,-4.0438,-4.0452,-4.0411,-4.0379,-4.0326,-4.03,-4.0291,-4.0301,-4.0301,-4.0301,-4.0319,-4.0327,-4.0327,-4.0363,-4.0389,-4.0389,-4.0396,-4.043,-4.0436,-4.0438,-4.0452,-4.0534,-4.0586,-4.0661,-4.079,-4.0797,-4.0797,-4.0797,-4.0797,-4.0797,-4.0797,-4.0797,-4.0797,-4.0797,-4.0797,-4.1222,-4.2035,-4.2959,-4.4171,-4.557,-4.5962,-4.6189,-4.624,-4.624,-4.6265,-4.6308,-4.6308,-4.6308,-4.6308,-4.6308,-4.6308,-4.6308,-4.3325,-4.3372,-4.3485,-4.3769,-4.4297,-4.4699,-4.4752,-4.5288,-4.5613,-4.5348,-4.4329,-4.329,-4.2453,-4.1925,-4.1409,-4.0855,-4.0797,-4.0797,-4.0797,-4.0797,-4.0797,-4.0797,-4.0797,-4.1184,-4.197,-4.1216,-4.1177,-4.2009,-4.1177,-4.0681,-4.0429,-4.0429,-4.0545,-4.0797,-4.0797,-4.0797,-4.0797,-4.0797,-4.0797,-4.0797,-4.0797,-4.0797,-4.0797,-4.0796,-4.0796,-4.077,-4.075,-4.073,-4.0712,-4.072,-4.0707,-4.0701,-4.0628,-4.06,-4.0564,-4.0481,-4.0465,-4.0473,-4.0441,-4.0468,-4.0476,-4.0476,-4.0444,-4.04,-4.04,-4.0422,-4.0432,-4.0432,-4.037,-4.0298,-4.03,-4.0291,-4.0301,-4.0301,-4.0301,-4.0301,-4.0301,-4.0301,-4.0301,-4.0301,-4.031,-4.0327,-4.0372,-4.0355,-4.0372,-4.0468,-4.0512,-4.0598,-4.0713,-4.0771,-4.0784,-4.0746,-4.0784,-4.0797,-4.0797,-4.0797,-4.0913,-4.1145,-4.1145,-4.1719,-4.2802,-4.3695,-4.4827,-4.6064,-4.6064,-4.6109,-4.6165,-4.6199,-4.6235,-4.6267,-4.6289,-4.6308,-4.6308,-4.6308,-4.6308,-4.6308,-4.4103,-4.4285,-4.4552,-4.5413,-4.5575,-4.5575,-4.5594,-4.5648,-4.5384,-4.4529,-4.4388,-4.4087,-4.3282,-4.1777,-4.0816,-4.0797,-4.0797,-4.0797,-4.0797,-4.0797,-4.0797,-4.0797,-4.0797,-4.1184,-4.197,-4.1216,-4.1177,-4.2009,-4.1177,-4.0352,-3.952,-3.952,-3.9984,-4.0797,-4.0797,-4.0797,-4.0797,-4.0797,-4.0797,-4.0797,-4.0797,-4.0797,-4.0797,-4.0797,-4.0752,-4.0694,-4.0628,-4.0566,-4.0503,-4.0492,-4.0496,-4.0512,-4.0586,-4.0537,-4.0481,-4.0411,-4.0392,-4.0389,-4.0314,-4.0362,-4.0407,-4.0407,-4.0407,-4.0407,-4.0407,-4.0449,-4.0502,-4.0502,-4.0388,-4.0307,-4.0307,-4.03,-4.0301,-4.0301,-4.0301,-4.0301,-4.0301,-4.0301,-4.0301,-4.0301,-4.0363,-4.0362,-4.032,-4.0363,-4.0405,-4.0405,-4.0405,-4.0427,-4.0496,-4.068,-4.0746,-4.0614,-4.072,-4.0797,-4.0797,-4.0797,-4.1203,-4.199,-4.199,-4.2899,-4.4594,-4.5401,-4.5867,-4.6002,-4.6002,-4.6041,-4.6109,-4.6167,-4.6202,-4.6207,-4.6268,-4.6308,-4.6308,-4.6308,-4.6308,-4.6308,-4.4988,-4.5045,-4.5141,-4.5409,-4.5457,-4.5457,-4.5457,-4.5485,-4.5399,-4.5121,-4.46,-4.4165,-4.3912,-4.2536,-4.1343,-4.0656,-4.064,-4.0668,-4.0668,-4.0668,-4.0707,-4.079,-4.0797,-4.1448,-4.286,-4.2048,-4.2028,-4.2899,-4.2028,-4.1197,-4.039,-4.039,-4.0526,-4.0797,-4.0797,-4.0752,-4.0668,-4.0668,-4.064,-4.0591,-4.0591,-4.0591,-4.0591,-4.0591,-4.0583,-4.0569,-4.0534,-4.0527,-4.0492,-4.0496,-4.0476,-4.0436,-4.046,-4.0452,-4.043,-4.0345,-4.0327,-4.0327,-4.0319,-4.0319,-4.0328,-4.0328,-4.0336,-4.0325,-4.0325,-4.0379,-4.0424,-4.0379,-4.0325,-4.0298,-4.03,-4.0301,-4.0301,-4.0301,-4.0301,-4.0301,-4.0301,-4.0301,-4.0301,-4.0301,-4.0319,-4.0319,-4.031,-4.0319,-4.0337,-4.0337,-4.037,-4.0427,-4.0489,-4.0593,-4.0635,-4.0595,-4.072,-4.0797,-4.0797,-4.1332,-4.1757,-4.2009,-4.2009,-4.2609,-4.3769,-4.5162,-4.5808,-4.5854,-4.5854,-4.5927,-4.6032,-4.6044,-4.6118,-4.6204,-4.6215,-4.6265,-4.6308,-4.6308,-4.6308,-4.6308,-4.54,-4.54,-4.54,-4.54,-4.54,-4.54,-4.54,-4.54,-4.54,-4.54,-4.4959,-4.4527,-4.4202,-4.3355,-4.2341,-4.1093,-4.0735,-4.0571,-4.0571,-4.0571,-4.0593,-4.0673,-4.0699,-4.1465,-4.3144,-4.2381,-4.2394,-4.3257,-4.2112,-4.1287,-4.0752,-4.0746,-4.072,-4.072,-4.0694,-4.0633,-4.0571,-4.0571,-4.0542,-4.0496,-4.0496,-4.0496,-4.0496,-4.0496,-4.0473,-4.0468,-4.0468,-4.0444,-4.0411,-4.0411,-4.0396,-4.0363,-4.0363,-4.0363,-4.0354,-4.0301,-4.0301,-4.0301,-4.0301,-4.0301,-4.0301,-4.0301,-4.0291,-4.0299,-4.0298,-4.0325,-4.0362,-4.0334,-4.0316,-4.0298,-4.03,-4.0301,-4.0301,-4.0301,-4.0301,-4.0301,-4.0301,-4.0301,-4.0301,-4.0301,-4.0301,-4.0301,-4.0301,-4.0301,-4.0301,-4.0301,-4.0346,-4.037,-4.043,-4.0512,-4.0557,-4.0527,-4.0975,-4.1203,-4.1203,-4.2054,-4.2647,-4.2976,-4.3285,-4.3711,-4.4272,-4.5323,-4.5807,-4.5807,-4.5807,-4.5854,-4.5935,-4.598,-4.6056,-4.616,-4.6197,-4.6234,-4.6265,-4.6265,-4.6242,-4.6235,-4.539,-4.539,-4.539,-4.539,-4.539,-4.539,-4.539,-4.539,-4.539,-4.539,-4.539,-4.5084,-4.4269,-4.4183,-4.3585,-4.2071,-4.1115,-4.0585,-4.0585,-4.0527,-4.0508,-4.0496,-4.0554,-4.1354,-4.297,-4.2395,-4.2432,-4.3196,-4.1634,-4.0804,-4.0687,-4.0621,-4.0588,-4.0581,-4.0527,-4.0496,-4.0489,-4.0489,-4.0489,-4.0481,-4.05,-4.05,-4.0481,-4.05,-4.0452,-4.0377,-4.0396,-4.0354,-4.0301,-4.0301,-4.0301,-4.0301,-4.0301,-4.0301,-4.0301,-4.0301,-4.0301,-4.0301,-4.0301,-4.0301,-4.0301,-4.0301,-4.0301,-4.0301,-4.0308,-4.0298,-4.0316,-4.0389,-4.0344,-4.0298,-4.0298,-4.03,-4.0301,-4.0301,-4.0301,-4.0301,-4.0301,-4.0301,-4.0301,-4.0301,-4.0301,-4.0301,-4.0301,-4.0301,-4.0301,-4.0301,-4.0301,-4.0301,-4.0301,-4.046,-4.0518,-4.0405,-4.1374,-4.1899,-4.1907,-4.2878,-4.3801,-4.4613,-4.5413,-4.5768,-4.5729,-4.5768,-4.5807,-4.5807,-4.5807,-4.5807,-4.5814,-4.5922,-4.6032,-4.6098,-4.6158,-4.6197,-4.6199,-4.6199,-4.615,-4.6109,-4.5319,-4.5319,-4.5319,-4.5319,-4.5319,-4.5319,-4.5319,-4.5319,-4.5319,-4.5319,-4.5319,-4.5262,-4.5031,-4.4439,-4.3895,-4.3503,-4.2161,-4.1351,-4.1351,-4.0756,-4.0452,-4.0496,-4.1143,-4.197,-4.2989,-4.3478,-4.3514,-4.3052,-4.2056,-4.1216,-4.0554,-4.0527,-4.0527,-4.0527,-4.0504,-4.0473,-4.0422,-4.0408,-4.0394,-4.036,-4.0354,-4.0344,-4.0351,-4.0354,-4.0345,-4.0325,-4.0318,-4.031,-4.0301,-4.0301,-4.0301,-4.0301,-4.0301,-4.0301,-4.0301,-4.0301,-4.0301,-4.0301,-4.0301,-4.0301,-4.0301,-4.0301,-4.0301,-4.031,-4.0301,-4.0301,-4.031,-4.0319,-4.031,-4.0301,-4.0301,-4.0291,-4.0301,-4.0301,-4.0301,-4.0301,-4.0301,-4.0301,-4.0301,-4.0301,-4.0301,-4.0301,-4.0301,-4.0301,-4.0301,-4.0301,-4.0301,-4.0301,-4.0301,-4.0911,-4.1004,-4.0424,-4.133,-4.1859,-4.1907,-4.338,-4.4286,-4.4613,-4.5413,-4.5471,-4.491,-4.551,-4.5807,-4.5807,-4.5807,-4.5807,-4.5807,-4.5822,-4.5916,-4.6022,-4.6046,-4.6076,-4.6125,-4.6125,-4.6115,-4.6102,-4.5307,-4.5307,-4.5307,-4.5307,-4.5307,-4.5307,-4.5307,-4.5307,-4.5307,-4.5307,-4.5307,-4.5307,-4.5307,-4.4876,-4.459,-4.459,-4.3091,-4.2144,-4.2144,-4.1732,-4.1502,-4.1555,-4.1996,-4.2629,-4.3454,-4.397,-4.3833,-4.3002,-4.2181,-4.1351,-4.0496,-4.0496,-4.0481,-4.0446,-4.046,-4.0427,-4.0366,-4.0396,-4.0379,-4.0353,-4.0345,-4.0345,-4.0353,-4.0345,-4.0345,-4.0344,-4.0299,-4.03,-4.03,-4.0291,-4.0301,-4.0301,-4.0301,-4.0301,-4.0301,-4.0301,-4.0301,-4.0301,-4.0301,-4.0301,-4.0301,-4.0301,-4.0301,-4.0301,-4.0301,-4.0301,-4.0301,-4.0301,-4.0301,-4.0301,-4.0301,-4.0301,-4.0301,-4.0301,-4.0301,-4.0301,-4.0301,-4.0301,-4.0301,-4.0301,-4.0301,-4.0301,-4.0301,-4.0301,-4.0301,-4.0301,-4.0301,-4.0454,-4.0826,-4.1266,-4.1313,-4.0909,-4.2206,-4.2909,-4.294,-4.3917,-4.4657,-4.5142,-4.522,-4.522,-4.5162,-4.5594,-4.5807,-4.5807,-4.5807,-4.5807,-4.5807,-4.5807,-4.5886,-4.6002,-4.6002,-4.6018,-4.6044,-4.6044,-4.6017,-4.5959,-4.5317,-4.5317,-4.5317,-4.5307,-4.5307,-4.5307,-4.5317,-4.5307,-4.5307,-4.5317,-4.5307,-4.5307,-4.5317,-4.5307,-4.5307,-4.5309,-4.4018,-4.3129,-4.2985,-4.287,-4.2794,-4.2794,-4.2928,-4.331,-4.3987,-4.424,-4.3914,-4.2979,-4.228,-4.145,-4.0473,-4.0473,-4.0449,-4.0389,-4.0405,-4.037,-4.0334,-4.0379,-4.0415,-4.0415,-4.0388,-4.0415,-4.0415,-4.0407,-4.0415,-4.0415,-4.0334,-4.0316,-4.0326,-4.0319,-4.0301,-4.0301,-4.0301,-4.0291,-4.0301,-4.0301,-4.0301,-4.0301,-4.0301,-4.0301,-4.0301,-4.0301,-4.0301,-4.0301,-4.0301,-4.0301,-4.0301,-4.0301,-4.0301,-4.0301,-4.0301,-4.0301,-4.0301,-4.0301,-4.0301,-4.0301,-4.0301,-4.0301,-4.0301,-4.0301,-4.0301,-4.0301,-4.0301,-4.0301,-4.0339,-4.0473,-4.0482,-4.0855,-4.1648,-4.182,-4.1896,-4.1896,-4.336,-4.4231,-4.4384,-4.4515,-4.499,-4.5786,-4.5083,-4.5128,-4.5807,-4.5807,-4.58,-4.5786,-4.58,-4.5793,-4.5771,-4.5786,-4.5854,-4.5947,-4.5947,-4.5947,-4.5947,-4.5947,-4.588,-4.5759,-4.5379,-4.5369,-4.5378,-4.5307,-4.5307,-4.5317,-4.5388,-4.5338,-4.5317,-4.5388,-4.5328,-4.5317,-4.5388,-4.5328,-4.5319,-4.5371,-4.515,-4.466,-4.3883,-4.3176,-4.2794,-4.2794,-4.3452,-4.3873,-4.4006,-4.4744,-4.4403,-4.2926,-4.2717,-4.1874,-4.0413,-4.0413,-4.0405,-4.0396,-4.0388,-4.0424,-4.0458,-4.0424,-4.0432,-4.0485,-4.0424,-4.0432,-4.0485,-4.0424,-4.0432,-4.0485,-4.0415,-4.0379,-4.0379,-4.0389,-4.0344,-4.0298,-4.0298,-4.03,-4.0301,-4.0301,-4.0301,-4.0301,-4.0301,-4.0301,-4.0301,-4.0301,-4.0301,-4.0301,-4.0301,-4.0301,-4.0301,-4.0301,-4.0301,-4.0301,-4.0301,-4.0301,-4.0301,-4.0301,-4.0301,-4.0301,-4.0301,-4.0301,-4.0301,-4.0301,-4.0301,-4.0301,-4.0301,-4.0301,-4.0578,-4.1266,-4.137,-4.1762,-4.2556,-4.334,-4.3743,-4.3704,-4.3913,-4.4402,-4.5208,-4.5348,-4.5519,-4.5704,-4.5588,-4.5626,-4.5807,-4.5807,-4.5771,-4.5731,-4.5778,-4.5727,-4.5637,-4.5692,-4.57,-4.566,-4.566,-4.566,-4.566,-4.566,-4.5662,-4.5637,-4.539,-4.5409,-4.538,-4.5361,-4.5351,-4.5351,-4.5408,-4.537,-4.536,-4.5348,-4.535,-4.537,-4.5408,-4.537,-4.537,-4.54,-4.54,-4.5227,-4.4776,-4.4413,-4.4211,-4.4201,-4.4565,-4.4757,-4.4757,-4.5159,-4.4557,-4.2898,-4.2917,-4.2082,-4.0449,-4.0455,-4.0455,-4.0449,-4.0455,-4.0463,-4.0502,-4.0463,-4.046,-4.0503,-4.0479,-4.046,-4.0503,-4.0479,-4.046,-4.0495,-4.0466,-4.0449,-4.0441,-4.0415,-4.0379,-4.0362,-4.0362,-4.0326,-4.0309,-4.0309,-4.031,-4.0301,-4.0301,-4.0301,-4.0301,-4.0301,-4.0301,-4.0301,-4.0301,-4.0301,-4.0301,-4.0301,-4.0301,-4.0301,-4.0301,-4.0301,-4.0301,-4.0301,-4.0301,-4.0301,-4.0301,-4.0301,-4.0301,-4.0301,-4.0301,-4.0301,-4.0301,-4.0301,-4.0635,-4.1437,-4.1523,-4.2107,-4.3378,-4.3866,-4.4287,-4.4726,-4.4715,-4.4928,-4.54,-4.5025,-4.5117,-4.5635,-4.5164,-4.5208,-4.57,-4.57,-4.5676,-4.5654,-4.5676,-4.5651,-4.5594,-4.5637,-4.5629,-4.5594,-4.5594,-4.5594,-4.5594,-4.5594,-4.5594,-4.5586,-4.5429,-4.5419,-4.5419,-4.541,-4.54,-4.5419,-4.5429,-4.541,-4.5381,-4.535,-4.538,-4.541,-4.5429,-4.541,-4.541,-4.5438,-4.5429,-4.5419,-4.5419,-4.5438,-4.5429,-4.5409,-4.54,-4.541,-4.5419,-4.541,-4.4595,-4.2944,-4.2981,-4.2134,-4.0499,-4.05,-4.0492,-4.0499,-4.05,-4.0492,-4.0499,-4.05,-4.0496,-4.0496,-4.0496,-4.0496,-4.0496,-4.0496,-4.0496,-4.0489,-4.0495,-4.0499,-4.0491,-4.0438,-4.0413,-4.0424,-4.0424,-4.0379,-4.0325,-4.0325,-4.0308,-4.031,-4.0291,-4.0301,-4.0301,-4.0301,-4.0301,-4.0301,-4.0301,-4.0301,-4.0301,-4.0301,-4.0301,-4.0301,-4.0301,-4.0301,-4.0301,-4.0301,-4.0301,-4.0301,-4.0301,-4.0301,-4.0301,-4.0301,-4.0301,-4.0301,-4.0301,-4.0473,-4.0922,-4.1743,-4.1982,-4.2737,-4.4257,-4.4344,-4.466,-4.53,-4.5317,-4.5319,-4.539,-4.4758,-4.4834,-4.5559,-4.4878,-4.4925,-4.5594,-4.5594,-4.5577,-4.5559,-4.5586,-4.5568,-4.5523,-4.555,-4.555,-4.5523,-4.5523,-4.5523,-4.5523,-4.5523,-4.5532,-4.5532,-4.5504,-4.5495,-4.5457,-4.541,-4.54,-4.5419,-4.5485,-4.5429,-4.5419,-4.5476,-4.5429,-4.5419,-4.5485,-4.5429,-4.5448,-4.5577,-4.5522,-4.5495,-4.5495,-4.5559,-4.5522,-4.54,-4.54,-4.5429,-4.5495,-4.5429,-4.4642,-4.3096,-4.3035,-4.2132,-4.0489,-4.0496,-4.0496,-4.0489,-4.0496,-4.0496,-4.0489,-4.0496,-4.0496,-4.0496,-4.0496,-4.0496,-4.0496,-4.0496,-4.0496,-4.0496,-4.0489,-4.0489,-4.0508,-4.0489,-4.0495,-4.0493,-4.0493,-4.0441,-4.0379,-4.0379,-4.0398,-4.0381,-4.0329,-4.0301,-4.0301,-4.0301,-4.0301,-4.0301,-4.0301,-4.0301,-4.0301,-4.0301,-4.0301,-4.0301,-4.0301,-4.0301,-4.0301,-4.0301,-4.0301,-4.0301,-4.0301,-4.0301,-4.0301,-4.0301,-4.0301,-4.0301,-4.0301,-4.0979,-4.1762,-4.2641,-4.3445,-4.4298,-4.5256,-4.5361,-4.5381,-4.539,-4.5339,-4.5307,-4.5317,-4.526,-4.5273,-4.5419,-4.5362,-4.5428,-4.5594,-4.5594,-4.5522,-4.5419,-4.555,-4.5486,-4.5338,-4.54,-4.538,-4.5328,-4.5328,-4.5328,-4.5328,-4.5328,-4.5359,-4.5399,-4.5568,-4.5568,-4.5559,-4.5522,-4.5522,-4.5513,-4.5504,-4.5513,-4.5504,-4.5457,-4.5495,-4.5513,-4.5504,-4.5513,-4.5531,-4.5605,-4.5577,-4.5568,-4.5568,-4.5586,-4.5577,-4.5541,-4.5522,-4.555,-4.5568,-4.555,-4.4974,-4.3835,-4.3319,-4.2453,-4.1296,-4.0746,-4.0496,-4.0496,-4.0496,-4.0496,-4.0496,-4.0496,-4.0496,-4.0496,-4.0496,-4.0496,-4.0496,-4.0496,-4.0496,-4.0496,-4.0496,-4.0496,-4.0496,-4.0496,-4.05,-4.0511,-4.0511,-4.0471,-4.0564,-4.1057,-4.1566,-4.194,-4.1923,-4.113,-4.0433,-4.0968,-4.0692,-4.0444,-4.0988,-4.0692,-4.0301,-4.0301,-4.0301,-4.0301,-4.0301,-4.0301,-4.0301,-4.0301,-4.0301,-4.0301,-4.0301,-4.0301,-4.0301,-4.0301,-4.0301,-4.0511,-4.1045,-4.1379,-4.2154,-4.3561,-4.3982,-4.4518,-4.5362,-4.541,-4.5438,-4.54,-4.5379,-4.5338,-4.5307,-4.5307,-4.5309,-4.535,-4.535,-4.537,-4.5409,-4.5409,-4.539,-4.535,-4.539,-4.536,-4.5307,-4.5329,-4.5319,-4.5307,-4.5307,-4.5307,-4.5307,-4.5307,-4.5317,-4.5328,-4.5594,-4.5594,-4.5594,-4.5594,-4.5594,-4.5586,-4.555,-4.5568,-4.5568,-4.5466,-4.5531,-4.5577,-4.555,-4.5577,-4.5594,-4.5594,-4.5594,-4.5594,-4.5594,-4.5594,-4.5594,-4.5594,-4.5594,-4.5594,-4.5594,-4.5594,-4.5171,-4.4297,-4.3489,-4.2643,-4.1769,-4.0912,-4.0496,-4.0496,-4.0496,-4.0496,-4.0496,-4.0496,-4.0496,-4.0496,-4.0496,-4.0496,-4.0496,-4.0496,-4.0496,-4.0496,-4.0496,-4.0496,-4.0496,-4.0496,-4.0496,-4.0496,-4.0496,-4.0684,-4.1075,-4.1906,-4.253,-4.2953,-4.2944,-4.2054,-4.129,-4.1856,-4.1551,-4.1265,-4.1866,-4.1523,-4.1084,-4.1121,-4.1093,-4.1094,-4.1093,-4.1084,-4.1094,-4.1094,-4.1094,-4.1094,-4.1093,-4.1084,-4.1094,-4.1093,-4.1093,-4.1323,-4.1924,-4.224,-4.2919,-4.4116,-4.4422,-4.4834,-4.541,-4.5419,-4.5419,-4.5438,-4.5399,-4.5379,-4.5339,-4.5338,-4.5317,-4.5307,-4.5307,-4.5307,-4.5307,-4.5307,-4.5307,-4.5307,-4.5307,-4.5307,-4.5307,-4.5307,-4.5307,-4.5307,-4.5307,-4.5307,-4.5307,-4.5307,-4.5317,-4.5328,-4.5594,-4.5594,-4.5594,-4.5594,-4.5594,-4.5594,-4.5594,-4.5594,-4.5594,-4.5594,-4.5594,-4.5594,-4.5594,-4.5594,-4.5594,-4.5594,-4.5594,-4.5594,-4.5594,-4.5594,-4.5594,-4.5594,-4.5594,-4.5594,-4.5594,-4.5594,-4.519,-4.4316,-4.3508,-4.2662,-4.1788,-4.0912,-4.0496,-4.0496,-4.0496,-4.0496,-4.0496,-4.0496,-4.0496,-4.0496,-4.0496,-4.0496,-4.0496,-4.0496,-4.0496,-4.0496,-4.0516,-4.0516,-4.0516,-4.0516,-4.0516,-4.0516,-4.0516,-4.1123,-4.1981,-4.2854,-4.3104,-4.3115,-4.3043,-4.3007,-4.2998,-4.2926,-4.2917,-4.2898,-4.2917,-4.2852,-4.2814,-4.2889,-4.2852,-4.2794,-4.2805,-4.2795,-4.2794,-4.2794,-4.2794,-4.2794,-4.2805,-4.2804,-4.2794,-4.2805,-4.2795,-4.2795,-4.2814,-4.3647,-4.4192,-4.4211,-4.494,-4.5429,-4.5495,-4.5438,-4.5429,-4.5495,-4.5438,-4.539,-4.54,-4.539,-4.5378,-4.5307,-4.5307,-4.5307,-4.5307,-4.5307,-4.5307,-4.5307,-4.5307,-4.5307,-4.5307,-4.5307,-4.5307,-4.5307,-4.5307,-4.5307,-4.5307,-4.5307,-4.5338,-4.5398,-4.5622,-4.5594,-4.5594,-4.5594,-4.5594,-4.5594,-4.5594,-4.5594,-4.5594,-4.5594,-4.5594,-4.5594,-4.5594,-4.5594,-4.5594,-4.5594,-4.5594,-4.5594,-4.5594,-4.5594,-4.5594,-4.5594,-4.5594,-4.5594,-4.5594,-4.5594,-4.5479,-4.521,-4.3797,-4.297,-4.2681,-4.1189,-4.0496,-4.0496,-4.0496,-4.0496,-4.0496,-4.0496,-4.0496,-4.0496,-4.0496,-4.0496,-4.0496,-4.0496,-4.0496,-4.0573,-4.1181,-4.1412,-4.1508,-4.2124,-4.2316,-4.2316,-4.2316,-4.2893,-4.3605,-4.3874,-4.4374,-4.4855,-4.4827,-4.4827,-4.4675,-4.4035,-4.3395,-4.3079,-4.372,-4.332,-4.2805,-4.2833,-4.2805,-4.2794,-4.2794,-4.2804,-4.2794,-4.2794,-4.2794,-4.2804,-4.2794,-4.2804,-4.2804,-4.2794,-4.2794,-4.3043,-4.3647,-4.3972,-4.4394,-4.5064,-4.5378,-4.5559,-4.5568,-4.5504,-4.5485,-4.5504,-4.5476,-4.5448,-4.539,-4.539,-4.54,-4.5359,-4.5359,-4.5338,-4.5307,-4.5307,-4.5307,-4.5307,-4.5307,-4.5307,-4.5307,-4.5307,-4.5307,-4.5307,-4.5307,-4.5307,-4.5307,-4.5307,-4.5317,-4.5328,-4.5603,-4.5631,-4.5631,-4.5594,-4.5594,-4.5594,-4.5594,-4.5594,-4.5594,-4.5594,-4.5594,-4.5594,-4.5594,-4.5594,-4.5594,-4.5594,-4.5594,-4.5594,-4.5594,-4.5594,-4.5594,-4.5594,-4.5594,-4.5594,-4.5594,-4.5594,-4.5594,-4.5594,-4.3912,-4.3104,-4.3066,-4.1324,-4.0496,-4.0496,-4.0496,-4.0496,-4.0496,-4.0496,-4.0496,-4.0496,-4.0496,-4.0496,-4.0496,-4.0496,-4.0496,-4.0573,-4.1104,-4.1508,-4.1885,-4.2412,-4.2816,-4.3162,-4.347,-4.3912,-4.4374,-4.4701,-4.519,-4.5594,-4.5594,-4.5594,-4.547,-4.4963,-4.4399,-4.4112,-4.4676,-4.4315,-4.3876,-4.3876,-4.3857,-4.3827,-4.3827,-4.3807,-4.3787,-4.3787,-4.3787,-4.3797,-4.3818,-4.3807,-4.3797,-4.3818,-4.3827,-4.4048,-4.4556,-4.4614,-4.4844,-4.5428,-4.5495,-4.5522,-4.5559,-4.5495,-4.5485,-4.555,-4.5495,-4.5448,-4.5448,-4.5419,-4.539,-4.5348,-4.5348,-4.5338,-4.5307,-4.5307,-4.5307,-4.5307,-4.5307,-4.5307,-4.5307,-4.5307,-4.5307,-4.5307,-4.5307,-4.5307,-4.5307,-4.5307,-4.5307,-4.5307,-4.5612,-4.5648,-4.5665,-4.5622,-4.5594,-4.5594,-4.5594,-4.5594,-4.5594,-4.5594,-4.5594,-4.5594,-4.5594,-4.5594,-4.5594,-4.5594,-4.5594,-4.5594,-4.5594,-4.5594,-4.5594,-4.5594,-4.5594,-4.5594,-4.5594,-4.5594,-4.5594,-4.5594,-4.3912,-4.3104,-4.3066,-4.1324,-4.0496,-4.0496,-4.0496,-4.0496,-4.0496,-4.0496,-4.0496,-4.0496,-4.0496,-4.0496,-4.0496,-4.0496,-4.0496,-4.0516,-4.0593,-4.1123,-4.1808,-4.1962,-4.2604,-4.3451,-4.4182,-4.4412,-4.4566,-4.5364,-4.5594,-4.5594,-4.5594,-4.5594,-4.5594,-4.5594,-4.5594,-4.5594,-4.5594,-4.5559,-4.5504,-4.5504,-4.5448,-4.5389,-4.5408,-4.5348,-4.5307,-4.5307,-4.5307,-4.5317,-4.5369,-4.5338,-4.5317,-4.5369,-4.5398,-4.5398,-4.5398,-4.5409,-4.54,-4.54,-4.54,-4.5429,-4.5495,-4.5438,-4.5457,-4.5577,-4.5476,-4.5429,-4.5485,-4.5419,-4.537,-4.5307,-4.5307,-4.5307,-4.5307,-4.5307,-4.5307,-4.5307,-4.5307,-4.5307,-4.5307,-4.5307,-4.5307,-4.5307,-4.5307,-4.5307,-4.5307,-4.5307,-4.5307,-4.5307,-4.5612,-4.5603,-4.5622,-4.5594,-4.5594,-4.5594,-4.5594,-4.5594,-4.5594,-4.5594,-4.5594,-4.5594,-4.5594,-4.5594,-4.5594,-4.5594,-4.5594,-4.5594,-4.5594,-4.5594,-4.5594,-4.5594,-4.5594,-4.5594,-4.5594,-4.5594,-4.5594,-4.5594,-4.3912,-4.3104,-4.3066,-4.1324,-4.0496,-4.0496,-4.0496,-4.0496,-4.0496,-4.0496,-4.0496,-4.0496,-4.0496,-4.0496,-4.0496,-4.0496,-4.0496,-4.0593,-4.1277,-4.1643,-4.2,-4.3316,-4.4335,-4.5094,-4.5267,-4.5325,-4.5364,-4.5537,-4.5594,-4.5594,-4.5594,-4.5594,-4.5594,-4.5594,-4.5594,-4.5594,-4.5594,-4.5559,-4.5504,-4.5504,-4.5448,-4.54,-4.5389,-4.5398,-4.5359,-4.5307,-4.5307,-4.5307,-4.5317,-4.5307,-4.5307,-4.5317,-4.5317,-4.5317,-4.5317,-4.5369,-4.5399,-4.5399,-4.54,-4.541,-4.5419,-4.5467,-4.5476,-4.5438,-4.5476,-4.5448,-4.5419,-4.5409,-4.5389,-4.5388,-4.5388,-4.5348,-4.5307,-4.5307,-4.5307,-4.5307,-4.5307,-4.5307,-4.5307,-4.5307,-4.5307,-4.5307,-4.5307,-4.5307,-4.5307,-4.5348,-4.5338,-4.5307,-4.5665,-4.5662,-4.569,-4.5603,-4.5631,-4.564,-4.5594,-4.5594,-4.5594,-4.5594,-4.5594,-4.5594,-4.5594,-4.5594,-4.5594,-4.5594,-4.5594,-4.5594,-4.5594,-4.5594,-4.5594,-4.5594,-4.5594,-4.5594,-4.5594,-4.5594,-4.5594,-4.5594,-4.3912,-4.3104,-4.3066,-4.1324,-4.0496,-4.0496,-4.0496,-4.0496,-4.0496,-4.0496,-4.0496,-4.0496,-4.0496,-4.0496,-4.0496,-4.0496,-4.0496,-4.0554,-4.1008,-4.172,-4.2604,-4.3874,-4.4874,-4.5594,-4.5594,-4.5594,-4.5594,-4.5594,-4.5594,-4.5594,-4.5594,-4.5594,-4.5594,-4.5594,-4.5594,-4.5594,-4.5594,-4.5577,-4.555,-4.5504,-4.5476,-4.5448,-4.5409,-4.5399,-4.5398,-4.5348,-4.5317,-4.5307,-4.5307,-4.5307,-4.5307,-4.5307,-4.5307,-4.5307,-4.5307,-4.5328,-4.5348,-4.5348,-4.535,-4.5361,-4.5409,-4.5429,-4.5448,-4.54,-4.5429,-4.5438,-4.5408,-4.5408,-4.5408,-4.5408,-4.5378,-4.5328,-4.5307,-4.5307,-4.5317,-4.5338,-4.5338,-4.5359,-4.5341,-4.5341,-4.5341,-4.5341,-4.5341,-4.5341,-4.5341,-4.539,-4.539,-4.5351,-4.5714,-4.5746,-4.5743,-4.5648,-4.5657,-4.5684,-4.5622,-4.5594,-4.5594,-4.5594,-4.5594,-4.5594,-4.5594,-4.5594,-4.5594,-4.5594,-4.5594,-4.5594,-4.5594,-4.5594,-4.5594,-4.5594,-4.5594,-4.5594,-4.5594,-4.5594,-4.5594,-4.5594,-4.4066,-4.3239,-4.3066,-4.147,-4.065,-4.0496,-4.0496,-4.0496,-4.0496,-4.0496,-4.0496,-4.0496,-4.0496,-4.0496,-4.0496,-4.0496,-4.0593,-4.0708,-4.0554,-4.1631,-4.3201,-4.3874,-4.4759,-4.5594,-4.5594,-4.5594,-4.5594,-4.5594,-4.5594,-4.5594,-4.5594,-4.5594,-4.5594,-4.5594,-4.5594,-4.5586,-4.5531,-4.5568,-4.5577,-4.5522,-4.5513,-4.5495,-4.5429,-4.5419,-4.5409,-4.5399,-4.5348,-4.5317,-4.5317,-4.5307,-4.5307,-4.5307,-4.5307,-4.5307,-4.5307,-4.5307,-4.5307,-4.5307,-4.5307,-4.5328,-4.5388,-4.5379,-4.538,-4.5381,-4.538,-4.5379,-4.5369,-4.5379,-4.5408,-4.5408,-4.5348,-4.5309,-4.5309,-4.5309,-4.5359,-4.5399,-4.5399,-4.54,-4.54,-4.54,-4.54,-4.54,-4.54,-4.54,-4.54,-4.54,-4.5419,-4.5429,-4.5708,-4.5708,-4.5719,-4.5682,-4.5693,-4.5684,-4.5622,-4.5594,-4.5594,-4.5594,-4.5594,-4.5594,-4.5594,-4.5594,-4.5594,-4.5594,-4.5594,-4.5594,-4.5594,-4.5594,-4.5594,-4.5594,-4.5594,-4.5594,-4.5594,-4.5594,-4.5594,-4.5594,-4.4624,-4.3778,-4.3085,-4.2085,-4.1219,-4.0496,-4.0496,-4.0496,-4.0496,-4.0496,-4.0496,-4.0496,-4.0496,-4.0496,-4.0496,-4.0496,-4.0969,-4.1527,-4.0766,-4.1631,-4.3124,-4.3239,-4.4297,-4.5594,-4.5594,-4.5594,-4.5594,-4.5594,-4.5594,-4.5594,-4.5594,-4.5594,-4.5594,-4.5594,-4.5594,-4.555,-4.5312,-4.5429,-4.5594,-4.5586,-4.5586,-4.5568,-4.5504,-4.5485,-4.5467,-4.54,-4.539,-4.5398,-4.5398,-4.5338,-4.5307,-4.5307,-4.5307,-4.5307,-4.5307,-4.5307,-4.5307,-4.5307,-4.5307,-4.5307,-4.5317,-4.5378,-4.5369,-4.5328,-4.5369,-4.5359,-4.5317,-4.5359,-4.5408,-4.5408,-4.539,-4.5381,-4.5381,-4.5381,-4.539,-4.539,-4.539,-4.54,-4.54,-4.54,-4.54,-4.54,-4.54,-4.54,-4.54,-4.54,-4.5457,-4.5568,-4.5765,-4.5761,-4.5746,-4.5717,-4.5698,-4.5671,-4.5603,-4.5594,-4.5603,-4.5648,-4.5631,-4.5603,-4.5648,-4.5631,-4.5594,-4.5594,-4.5594,-4.5594,-4.5594,-4.5594,-4.5594,-4.5594,-4.5594,-4.5594,-4.5594,-4.5594,-4.5594,-4.5594,-4.472,-4.3893,-4.3085,-4.222,-4.1335,-4.0496,-4.0496,-4.0496,-4.0496,-4.0496,-4.0496,-4.0535,-4.1027,-4.1239,-4.1239,-4.1239,-4.147,-4.175,-4.1354,-4.2027,-4.3162,-4.3624,-4.4586,-4.5594,-4.5594,-4.5594,-4.5594,-4.5594,-4.5594,-4.5594,-4.5594,-4.5594,-4.5568,-4.5419,-4.5495,-4.5495,-4.5074,-4.5191,-4.539,-4.539,-4.5495,-4.5586,-4.5568,-4.5541,-4.5495,-4.5448,-4.5429,-4.539,-4.539,-4.537,-4.536,-4.5348,-4.5367,-4.5338,-4.5307,-4.5307,-4.5307,-4.5307,-4.5307,-4.5307,-4.5307,-4.5328,-4.5328,-4.5307,-4.5328,-4.5328,-4.5307,-4.5378,-4.5408,-4.5408,-4.54,-4.54,-4.54,-4.54,-4.5419,-4.5467,-4.5467,-4.5485,-4.5513,-4.5513,-4.5513,-4.5513,-4.5513,-4.5513,-4.5513,-4.5513,-4.5559,-4.5605]},{"header":{"parameterUnit":"m.s-1","parameterCategory":1,"la1":30.6,"la2":28.766,"lo1":-90.7593,"lo2":-88.6598,"dy":0.0162,"dx":0.0183,"nx":116,"ny":114,"refTime":"2023-03-03T06:00:00:Z","depth":0,"parameterNumber":3,"parameterNumberName":"V-component_of_WINDS"},"data":[0.0,0.0,0.0,0.0,0.0,0.0,0.0,0.0,0.0,0.0,0.0,0.0,0.0,0.0,0.0,0.0,0.0,0.0,0.0,0.0,0.0,0.0,0.0,0.0,0.0,0.0,0.0,0.0,0.0,0.0,0.0,0.0,0.0,0.0,0.0,0.0,0.0,0.0,0.0,0.0,0.0,0.0,0.0,0.0,0.0,0.0,0.0,0.0,0.0,0.0,0.0,0.0,0.0,0.0,0.0,0.0,0.0,0.0,0.0,0.0,0.0,0.0,0.0,0.0,0.0,0.0,0.0,0.0,0.0,0.0,0.0,0.0,0.0,0.0,0.0,0.0,0.0,0.0,0.0,0.0,0.0,0.0,0.0,0.0,0.0,0.0,0.0,0.0,0.0,0.0,0.0,0.0,0.0,0.0,0.0,0.0,0.0,0.0,0.0,0.0,0.0,0.0,0.0,0.0,0.0,0.0,0.0,0.0,0.0,0.0,0.0,0.0,0.0,0.0,0.0,0.0,0.0,0.0,0.0,0.0,0.0,0.0,0.0,0.0,0.0,0.0,0.0,0.0,0.0,0.0,0.0,0.0,0.0,0.0,0.0,0.0,0.0,0.0,0.0,0.0,0.0,0.0,0.0,0.0,0.0,0.0,0.0,0.0,0.0,0.0,0.0,0.0,0.0,0.0,0.0,0.0,0.0,0.0,0.0,0.0,0.0,0.0,0.0,0.0,0.0,0.0,0.0,0.0,0.0,0.0,0.0,0.0,0.0,0.0,0.0,0.0,0.0,0.0,0.0,0.0,0.0,0.0,0.0,0.0,0.0,0.0,0.0,0.0,0.0,0.0,0.0,0.0,0.0,0.0,0.0,0.0,0.0,0.0,0.0,0.0,0.0,0.0,0.0,0.0,0.0,0.0,0.0,0.0,0.0,0.0,0.0,0.0,0.0,0.0,0.0,0.0,0.0,0.0,0.0,0.0,0.0,0.0,0.0,0.0,0.0,0.0,0.0,0.0,0.0,0.0,0.0,0.0,0.0,0.0,0.0,0.0,0.0,0.0,0.0,0.0,0.0,0.0,0.0,0.0,0.0,0.0,0.0,0.0,0.0,0.0,0.0,0.0,0.0,0.0,0.0,0.0,0.0,0.0,0.0,0.0,0.0,0.0,0.0,0.0,0.0,0.0,0.0,0.0,0.0,0.0,0.0,0.0,0.0,0.0,0.0,0.0,0.0,0.0,0.0,0.0,0.0,0.0,0.0,0.0,0.0,0.0,0.0,0.0,0.0,0.0,0.0,0.0,0.0,0.0,0.0,0.0,0.0,0.0,0.0,0.0,0.0,0.0,0.0,0.0,0.0,0.0,0.0,0.0,0.0,0.0,0.0,0.0,0.0,0.0,0.0,0.0,0.0,0.0,0.0,0.0,0.0,0.0,0.0,0.0,0.0,0.0,0.0,0.0,0.0,0.0,0.0,0.0,0.0,0.0,0.0,0.0,0.0,0.0,0.0,0.0,0.0,0.0,0.0,0.0,0.0,0.0,0.0,0.0,0.0,0.0,0.0,0.0,0.0,0.0,0.0,0.0,0.0,0.0,0.0,0.0,0.0,0.0,0.0,0.0,0.0,0.0,0.0,0.0,0.0,0.0,0.0,0.0,0.0,0.0,0.0,0.0,0.0,0.0,0.0,0.0,0.0,0.0,0.0,0.0,0.0,0.0,0.0,0.0,0.0,0.0,0.0,0.0,0.0,0.0,0.0,0.0,0.0,0.0,0.0,0.0,0.0,0.0,0.0,0.0,0.0,0.0,0.0,0.0,0.0,0.0,0.0,0.0,0.0,0.0,0.0,0.0,0.0,0.0,0.0,0.0,0.0,0.0,0.0,0.0,0.0,0.0,0.0,0.0,0.0,0.0,0.0,0.0,0.0,0.0,0.0,0.0,0.0,0.0,0.0,0.0,0.0,0.0,0.0,0.0,0.0,0.0,0.0,0.0,0.0,0.0,0.0,0.0,0.0,0.0,0.0,0.0,0.0,0.0,0.0,0.0,0.0,0.0,0.0,0.0,0.0,0.0,0.0,0.0,0.0,0.0,0.0,0.0,0.0,0.0,0.0,0.0,0.0,0.0,0.0,0.0,0.0,0.0,0.0,0.0,0.0,0.0,0.0,0.0,0.0,0.0,0.0,0.0,0.0,0.0,0.0,0.0,0.0,0.0,0.0,0.0,0.0,0.0,0.0,0.0,0.0,0.0,0.0,0.0,0.0,0.0,0.0,0.0,0.0,0.0,0.0,0.0,0.0,0.0,0.0,0.0,0.0,0.0,0.0,0.0,0.0,0.0,0.0,0.0,0.0,0.0,0.0,0.0,0.0,0.0,0.0,0.0,0.0,0.0,0.0,0.0,0.0,0.0,0.0,0.0,0.0,0.0,0.0,0.0,0.0,0.0,0.0,0.0,0.0,0.0,0.0,0.0,0.0,0.0,0.0,0.0,0.0,0.0,0.0,0.0,0.0,0.0,0.0,0.0,0.0,0.0,0.0,0.0,0.0,0.0,0.0,0.0,0.0,0.0,0.0,0.0,0.0,0.0,0.0,0.0,0.0,0.0,0.0,0.0,0.0,0.0,0.0,0.0,0.0,0.0,0.0,0.0,0.0,0.0,0.0,0.0,0.0,0.0,0.0,0.0,0.0,0.0,0.0,0.0,0.0,0.0,0.0,0.0,0.0,0.0,0.0,0.0,0.0,0.0,0.0,0.0,0.0,0.0,0.0,0.0,0.0,0.0,0.0,0.0,0.0,0.0,0.0,0.0,0.0,0.0,0.0,0.0,0.0,0.0,0.0,0.0,0.0,0.0,0.0,0.0,0.0,0.0,0.0,0.0,0.0,0.0,0.0,0.0,0.0,0.0,0.0,0.0,0.0,0.0,0.0,0.0,0.0,0.0,0.0,0.0,0.0,0.0,0.0,0.0,0.0,0.0,0.0,0.0,0.0,0.0,0.0,0.0,0.0,0.0,0.0,0.0,0.0,0.0,0.0,0.0,0.0,0.0,0.0,0.0,0.0,0.0,0.0,0.0,0.0,0.0,0.0,0.0,0.0,0.0,0.0,0.0,0.0,0.0,0.0,0.0,0.0,0.0,0.0,0.0,0.0,0.0,0.0,0.0,0.0,0.0,0.0,0.0,0.0,0.0,0.0,0.0,0.0,0.0,0.0,0.0,0.0,0.0,0.0,0.0,0.0,0.0,0.0,0.0,0.0,0.0,0.0,0.0,0.0,0.0,0.0,0.0,0.0,0.0,0.0,0.0,0.0,0.0,0.0,0.0,0.0,0.0,0.0,0.0,0.0,0.0,0.0,0.0,0.0,0.0,0.0,0.0,0.0,0.0,0.0,0.0,0.0,0.0,0.0,0.0,0.0,0.0,0.0,0.0,0.0,0.0,0.0,0.0,0.0,0.0,0.0,0.0,0.0,0.0,0.0,0.0,0.0,0.0,0.0,0.0,0.0,0.0,0.0,0.0,0.0,0.0,0.0,0.0,0.0,0.0,0.0,0.0,0.0,0.0,0.0,0.0,0.0,0.0,0.0,0.0,0.0,0.0,0.0,0.0,0.0,0.0,0.0,0.0,0.0,0.0,0.0,0.0,0.0,0.0,0.0,0.0,0.0,0.0,0.0,0.0,0.0,0.0,0.0,0.0,0.0,0.0,0.0,0.0,0.0,0.0,0.0,0.0,0.0,0.0,0.0,0.0,0.0,0.0,0.0,0.0,0.0,0.0,0.0,0.0,0.0,0.0,0.0,0.0,0.0,0.0,0.0,0.0,0.0,0.0,0.0,0.0,0.0,0.0,0.0,0.0,0.0,0.0,0.0,0.0,0.0,0.0,0.0,0.0,0.0,0.0,0.0,0.0,0.0,0.0,0.0,0.0,0.0,0.0,0.0,0.0,0.0,0.0,0.0,0.0,0.0,0.0,0.0,0.0,0.0,0.0,0.0,0.0,0.0,0.0,0.0,0.0,0.0,0.0,0.0,0.0,0.0,0.0,0.0,0.0,0.0,0.0,0.0,0.0,0.0,0.0,0.0,0.0,0.0,0.0,0.0,0.0,0.0,0.0,0.0,0.0,0.0,0.0,0.0,0.0,0.0,0.0,0.0,0.0,0.0,0.0,0.0,0.0,0.0,0.0,0.0,0.0,0.0,0.0,0.0,0.0,0.0,0.0,0.0,0.0,0.0,0.0,0.0,0.0,0.0,0.0,0.0,0.0,0.0,0.0,0.0,0.0,0.0,0.0,0.0,0.0,0.0,0.0,0.0,0.0,0.0,0.0,0.0,0.0,0.0,0.0,0.0,0.0,0.0,0.0,0.0,0.0,0.0,0.0,0.0,0.0,0.0,0.0,0.0,0.0,0.0,0.0,0.0,0.0,0.0,0.0,0.0,0.0,0.0,0.0,0.0,0.0,0.0,0.0,0.0,0.0,0.0,0.0,0.0,0.0,0.0,0.0,0.0,0.0,0.0,0.0,0.0,0.0,0.0,0.0,0.0,0.0,0.0,0.0,0.0,0.0,0.0,0.0,0.0,0.0,0.0,0.0,0.0,0.0,0.0,0.0,0.0,0.0,0.0,0.0,0.0,0.0,0.0,0.0,0.0,0.0,0.0,0.0,0.0,0.0,0.0,0.0,0.0,0.0,0.0,0.0,0.0,0.0,0.0,0.0,0.0,0.0,0.0,0.0,0.0,0.0,0.0,0.0,0.0,0.0,0.0,0.0,0.0,0.0,0.0,0.0,0.0,0.0,0.0,0.0,0.0,0.0,0.0,0.0,0.0,0.0,0.0,0.0,0.0,0.0,0.0,0.0,0.0,0.0,0.0,0.0,0.0,0.0,0.0,0.0,0.0,0.0,0.0,0.0,0.0,0.0,0.0,0.0,0.0,0.0,0.0,0.0,0.0,0.0,0.0,0.0,0.0,0.0,0.0,0.0,0.0,0.0,0.0,0.0,0.0,0.0,0.0,0.0,0.0,0.0,0.0,0.0,0.0,0.0,0.0,0.0,0.0,0.0,0.0,0.0,0.0,0.0,0.0,0.0,0.0,0.0,0.0,0.0,0.0,0.0,0.0,0.0,0.0,0.0,0.0,0.0,0.0,0.0,0.0,0.0,0.0,0.0,0.0,0.0,0.0,0.0,0.0,0.0,0.0,0.0,0.0,0.0,0.0,0.0,0.0,0.0,0.0,0.0,0.0,0.0,0.0,0.0,0.0,0.0,0.0,0.0,0.0,0.0,0.0,0.0,0.0,0.0,0.0,0.0,0.0,0.0,0.0,0.0,0.0,0.0,0.0,0.0,0.0,0.0,0.0,0.0,0.0,0.0,0.0,0.0,0.0,0.0,0.0,0.0,0.0,0.0,0.0,0.0,0.0,0.0,0.0,0.0,0.0,0.0,0.0,0.0,0.0,0.0,0.0,0.0,0.0,0.0,0.0,0.0,0.0,0.0,0.0,0.0,0.0,0.0,0.0,0.0,0.0,0.0,0.0,0.0,0.0,0.0,0.0,0.0,0.0,0.0,0.0,0.0,0.0,0.0,0.0,0.0,0.0,0.0,0.0,0.0,0.0,0.0,0.0,0.0,0.0,0.0,0.0,0.0,0.0,0.0,0.0,0.0,0.0,0.0,0.0,0.0,0.0,0.0,0.0,0.0,0.0,0.0,0.0,0.0,0.0,0.0,0.0,0.0,0.0,0.0,0.0,0.0,0.0,0.0,0.0,0.0,0.0,0.0,0.0,0.0,0.0,0.0,0.0,0.0,0.0,0.0,0.0,0.0,0.0,0.0,0.0,0.0,0.0,0.0,0.0,0.0,0.0,0.0,0.0,0.0,0.0,0.0,0.0,0.0,0.0,0.0,0.0,0.0,0.0,0.0,0.0,0.0,0.0,0.0,0.0,0.0,0.0,0.0,0.0,0.0,0.0,0.0,0.0,0.0,0.0,0.0,0.0,0.0,0.0,0.0,0.0,0.0,0.0,0.0,0.0,0.0,0.0,0.0,0.0,0.0,0.0,0.0,0.0,0.0,0.0,0.0,0.0,0.0,0.0,0.0,0.0,0.0,0.0,0.0,0.0,0.0,-0.4765,-0.4773,0.0,0.0,0.0,0.0,0.0,0.0,0.0,0.0,0.0,0.0,0.0,0.0,0.0,0.0,0.0,0.0,0.0,0.0,0.0,0.0,0.0,0.0,0.0,0.0,0.0,0.0,0.0,0.0,0.0,0.0,0.0,0.0,0.0,0.0,0.0,0.0,0.0,0.0,-0.5927,-0.5772,-0.549,-0.4893,-0.4661,-0.48,0.0,0.0,0.0,0.0,0.0,0.0,0.0,0.0,0.0,0.0,0.0,0.0,0.0,0.0,0.0,0.0,0.0,0.0,0.0,0.0,0.0,0.0,0.0,0.0,0.0,0.0,0.0,0.0,0.0,0.0,0.0,0.0,0.0,0.0,0.0,0.0,0.0,0.0,0.0,0.0,0.0,0.0,0.0,0.0,0.0,0.0,0.0,0.0,0.0,0.0,0.0,0.0,0.0,0.0,0.0,0.0,0.0,0.0,0.0,0.0,0.0,0.0,0.0,0.0,0.0,0.0,0.0,0.0,0.0,0.0,-0.4738,-0.4744,0.0,0.0,0.0,0.0,0.0,0.0,0.0,0.0,0.0,0.0,0.0,0.0,0.0,0.0,0.0,0.0,0.0,0.0,0.0,0.0,0.0,0.0,0.0,0.0,-0.8854,-0.8093,-0.7578,-0.7027,0.0,0.0,0.0,0.0,0.0,0.0,0.0,0.0,0.0,0.0,-0.6254,-0.6067,-0.5498,-0.5187,-0.516,-0.5425,-0.4739,0.0,0.0,0.0,0.0,0.0,0.0,0.0,0.0,0.0,0.0,0.0,0.0,0.0,0.0,0.0,0.0,0.0,0.0,0.0,0.0,0.0,0.0,0.0,0.0,0.0,0.0,0.0,0.0,0.0,0.0,0.0,0.0,0.0,0.0,0.0,0.0,0.0,0.0,0.0,0.0,0.0,0.0,0.0,0.0,0.0,0.0,0.0,0.0,0.0,0.0,0.0,0.0,0.0,0.0,0.0,0.0,0.0,0.0,0.0,0.0,0.0,0.0,0.0,-0.4744,-0.4784,-0.4782,-0.4763,-0.4769,-0.4784,-0.4784,-0.4784,-0.4782,-0.4768,0.0,0.0,0.0,0.0,0.0,0.0,0.0,0.0,0.0,0.0,0.0,0.0,0.0,0.0,0.0,0.0,0.0,0.0,0.0,0.0,0.0,-0.8815,-0.8423,-0.7712,-0.715,-0.6709,0.0,0.0,0.0,0.0,0.0,0.0,0.0,-0.6512,-0.6684,-0.677,-0.6811,-0.6791,-0.6735,-0.5658,-0.5308,-0.5537,-0.4868,-0.4612,-0.4714,0.0,0.0,0.0,0.0,0.0,0.0,0.0,0.0,0.0,0.0,0.0,0.0,0.0,0.0,0.0,0.0,0.0,0.0,0.0,0.0,0.0,0.0,0.0,0.0,0.0,0.0,0.0,0.0,0.0,0.0,0.0,0.0,0.0,0.0,0.0,0.0,0.0,0.0,0.0,0.0,0.0,-0.516,-0.5376,0.0,0.0,0.0,0.0,0.0,0.0,0.0,0.0,0.0,0.0,0.0,0.0,0.0,-0.472,-0.4708,-0.472,-0.4718,-0.471,-0.4744,-0.4784,-0.4784,-0.4772,-0.4774,-0.4784,-0.4784,0.0,-0.4778,-0.4755,0.0,0.0,0.0,0.0,0.0,0.0,0.0,0.0,0.0,0.0,0.0,0.0,0.0,0.0,0.0,0.0,0.0,0.0,0.0,0.0,0.0,-0.9213,-0.8744,-0.8044,-0.7493,-0.7013,-0.6528,-0.6453,0.0,0.0,0.0,0.0,0.0,-0.6549,-0.6898,-0.7305,-0.723,-0.7076,-0.692,-0.6187,-0.5866,-0.5848,-0.5561,-0.5179,-0.4781,-0.4768,0.0,0.0,0.0,0.0,0.0,0.0,0.0,0.0,0.0,0.0,0.0,0.0,0.0,0.0,0.0,0.0,0.0,0.0,0.0,0.0,0.0,0.0,0.0,0.0,0.0,0.0,0.0,0.0,0.0,0.0,0.0,0.0,0.0,0.0,0.0,0.0,0.0,0.0,0.0,-0.5523,-0.5514,-0.5455,-0.5492,-0.5565,0.0,0.0,0.0,0.0,0.0,0.0,0.0,0.0,0.0,-0.4985,-0.485,-0.4779,-0.4779,-0.4779,-0.4779,-0.4779,-0.4869,-0.4883,-0.4786,-0.4888,-0.4883,-0.4784,-0.4784,-0.4784,-0.478,-0.4744,-0.4779,-0.4779,0.0,0.0,0.0,0.0,-0.4784,-0.4784,0.0,0.0,0.0,0.0,0.0,0.0,0.0,0.0,0.0,0.0,0.0,0.0,-0.9777,-0.9388,-0.8852,-0.824,-0.7714,-0.7203,-0.6644,-0.6552,0.0,0.0,0.0,0.0,-0.6412,-0.6661,-0.7071,-0.76,-0.7352,-0.7079,-0.6885,-0.6457,-0.6216,-0.6132,-0.613,-0.5807,-0.5186,-0.5186,-0.5186,-0.5186,0.0,0.0,0.0,0.0,0.0,0.0,0.0,0.0,0.0,0.0,0.0,0.0,0.0,0.0,0.0,0.0,0.0,0.0,0.0,0.0,0.0,0.0,0.0,0.0,0.0,0.0,0.0,0.0,0.0,0.0,0.0,0.0,0.0,0.0,0.0,0.0,0.0,-0.5777,-0.5709,-0.5296,-0.5552,-0.5659,0.0,0.0,0.0,0.0,0.0,0.0,-0.5053,-0.4913,-0.4821,-0.4782,-0.4857,-0.4869,-0.4869,-0.4892,-0.4892,-0.4871,-0.4939,-0.4922,-0.4788,-0.493,-0.4934,-0.4871,-0.4843,-0.4855,-0.4849,-0.4802,-0.4784,-0.4784,-0.4784,-0.4784,-0.4784,-0.4784,-0.4784,-0.4784,0.0,0.0,0.0,0.0,0.0,0.0,0.0,0.0,0.0,0.0,0.0,-0.9305,-0.9345,-0.8903,-0.8412,-0.7881,-0.7267,-0.6922,-0.6862,-0.677,-0.6685,-0.6678,-0.6539,-0.6529,-0.6675,-0.6923,-0.723,-0.76,-0.703,-0.6753,-0.6791,-0.6184,-0.6024,-0.6209,-0.6249,-0.6317,-0.6337,-0.6337,-0.6337,-0.6287,-0.5787,0.0,0.0,0.0,0.0,0.0,0.0,0.0,0.0,0.0,0.0,0.0,0.0,0.0,0.0,0.0,0.0,0.0,0.0,0.0,0.0,0.0,0.0,0.0,0.0,0.0,0.0,0.0,0.0,0.0,0.0,0.0,0.0,0.0,0.0,0.0,0.0,0.0,0.0,-0.5225,-0.5839,0.0,0.0,0.0,0.0,-0.4973,-0.508,-0.5047,-0.472,-0.4988,-0.5083,-0.4784,-0.4918,-0.4965,-0.4965,-0.5051,-0.5051,-0.4965,-0.5021,-0.4922,-0.4788,-0.493,-0.5021,-0.4969,-0.5057,-0.5094,-0.5081,-0.4855,-0.4784,-0.4784,-0.4784,-0.4784,-0.4784,-0.4784,-0.4784,-0.4784,0.0,0.0,0.0,0.0,0.0,0.0,0.0,0.0,0.0,-0.9262,-0.9432,-0.9432,-0.9305,-0.8727,-0.8153,-0.7669,-0.7139,-0.681,-0.6715,-0.679,-0.6803,-0.6705,-0.6647,-0.6732,-0.6937,-0.7041,-0.7247,-0.76,-0.7306,-0.7217,-0.7312,-0.7026,-0.7013,-0.7233,-0.7276,-0.7306,-0.7388,-0.6686,-0.6387,-0.6387,-0.6187,-0.5884,0.0,0.0,0.0,0.0,0.0,0.0,0.0,0.0,0.0,0.0,0.0,0.0,0.0,0.0,0.0,0.0,0.0,0.0,0.0,0.0,0.0,0.0,0.0,0.0,0.0,0.0,0.0,0.0,0.0,0.0,0.0,0.0,0.0,0.0,0.0,0.0,0.0,-0.5899,-0.5828,0.0,-0.5767,-0.5623,-0.5487,-0.5377,-0.5248,-0.5102,-0.4926,-0.501,-0.5026,-0.4922,-0.5012,-0.5032,-0.5025,-0.5061,-0.5092,-0.5059,-0.512,-0.51,-0.5014,-0.5106,-0.5116,-0.5061,-0.5094,-0.5108,-0.5102,-0.5037,-0.501,-0.501,-0.501,-0.4975,-0.4922,-0.4922,-0.4885,-0.4784,0.0,0.0,0.0,0.0,0.0,0.0,0.0,0.0,-0.8922,-0.9253,-0.9422,-0.9491,-0.951,-0.8727,-0.8109,-0.7885,-0.7231,-0.6797,-0.6784,-0.6867,-0.6839,-0.678,-0.6776,-0.6892,-0.7092,-0.7095,-0.722,-0.7522,-0.7467,-0.7424,-0.7522,-0.7519,-0.7624,-0.7814,-0.7865,-0.7894,-0.7939,-0.7238,-0.6936,-0.6936,-0.6736,-0.6437,-0.6087,0.0,0.0,0.0,0.0,0.0,0.0,0.0,0.0,0.0,0.0,0.0,0.0,0.0,0.0,0.0,0.0,0.0,0.0,0.0,0.0,0.0,0.0,0.0,0.0,0.0,0.0,0.0,0.0,0.0,0.0,0.0,0.0,0.0,0.0,-0.6069,-0.6071,-0.6168,-0.5958,-0.5868,-0.6027,-0.5814,-0.5631,-0.5533,-0.5409,-0.5295,-0.5218,-0.5145,-0.5141,-0.5224,-0.5159,-0.5124,-0.5063,-0.5155,-0.5186,-0.5155,-0.516,-0.5142,-0.5112,-0.5148,-0.5156,-0.5155,-0.5188,-0.52,-0.52,-0.52,-0.52,-0.5194,-0.5132,-0.5071,-0.5018,-0.5018,-0.4959,-0.4877,0.0,0.0,0.0,0.0,0.0,0.0,0.0,-0.8626,-0.8785,-0.9235,-0.9314,-0.9482,-0.9932,-0.8899,-0.8285,-0.8548,-0.7496,-0.6877,-0.7088,-0.696,-0.6886,-0.6886,0.0,0.0,-0.7092,-0.7095,-0.7217,-0.7415,-0.7415,-0.7422,-0.7436,-0.7678,-0.7814,-0.7824,-0.7924,-0.7988,-0.7988,-0.7988,-0.7988,-0.7939,-0.7437,-0.7238,-0.7086,0.0,0.0,0.0,0.0,0.0,0.0,0.0,0.0,0.0,0.0,0.0,0.0,0.0,0.0,0.0,0.0,0.0,0.0,0.0,0.0,0.0,0.0,0.0,0.0,0.0,0.0,0.0,0.0,0.0,0.0,0.0,0.0,0.0,-0.6317,-0.632,-0.6225,-0.5927,-0.6223,-0.615,-0.5606,-0.5839,-0.5845,-0.5433,-0.5549,-0.563,-0.5622,-0.5493,-0.5437,-0.5587,-0.5366,-0.5196,-0.5194,-0.5339,-0.5339,-0.5194,-0.5194,-0.5148,-0.512,-0.5154,-0.5194,-0.5198,-0.5343,-0.5382,-0.5382,-0.5382,-0.5382,-0.5363,-0.5186,-0.5114,-0.5112,-0.5112,-0.5053,-0.4959,0.0,0.0,0.0,0.0,0.0,0.0,0.0,-0.8869,-0.9152,-0.9297,-0.9605,-0.9716,-0.9515,-0.8544,-0.7881,-0.7797,-0.7003,-0.6568,-0.6727,-0.6817,-0.6886,-0.6886,0.0,0.0,-0.7095,-0.7095,-0.7217,-0.7415,-0.7415,-0.7482,-0.7692,-0.7773,-0.7872,-0.7928,-0.7971,-0.7988,-0.7988,-0.7988,-0.7988,-0.7988,-0.7839,-0.754,-0.7185,0.0,0.0,0.0,0.0,0.0,0.0,0.0,0.0,0.0,0.0,0.0,0.0,0.0,0.0,0.0,0.0,0.0,0.0,0.0,0.0,0.0,0.0,0.0,0.0,0.0,0.0,0.0,0.0,0.0,0.0,0.0,-0.6045,-0.6119,-0.6282,-0.6339,-0.6341,-0.6289,-0.6247,-0.6253,-0.627,-0.6117,-0.6007,-0.596,-0.5821,-0.5658,-0.5527,-0.551,-0.5465,-0.5465,-0.5671,-0.5745,-0.5618,-0.5769,-0.5769,-0.5616,-0.5454,-0.5331,-0.5306,-0.5333,-0.5343,-0.5345,-0.5371,-0.5382,-0.5382,-0.5382,-0.5382,-0.5375,-0.5326,-0.5265,-0.5152,-0.5152,-0.5106,-0.4959,0.0,0.0,0.0,0.0,0.0,0.0,0.0,-0.8974,-0.9208,-0.9419,-0.9659,-0.977,-0.9598,-0.8636,-0.7969,-0.7973,-0.6994,-0.6449,-0.6715,-0.6783,-0.6861,-0.6883,0.0,-0.7038,-0.7095,-0.7204,-0.7282,-0.7415,-0.7495,-0.7645,-0.7814,-0.7875,-0.7904,-0.7988,-0.7988,-0.7988,-0.7988,-0.7988,-0.7988,-0.7988,-0.7988,-0.7789,-0.7487,-0.7288,-0.6986,-0.6686,-0.6487,-0.6118,-0.5774,-0.5774,0.0,0.0,0.0,0.0,0.0,0.0,0.0,0.0,0.0,0.0,0.0,0.0,0.0,0.0,0.0,0.0,0.0,0.0,0.0,0.0,0.0,0.0,0.0,0.0,-0.5826,-0.5984,-0.6368,-0.6472,-0.6462,-0.6313,-0.6419,-0.649,-0.6643,-0.6498,-0.6318,-0.63,-0.6255,-0.616,-0.6091,-0.6058,-0.6019,-0.6109,-0.623,-0.6233,-0.6114,-0.623,-0.623,-0.6114,-0.6005,-0.5814,-0.5662,-0.5662,-0.5585,-0.5382,-0.5382,-0.5382,-0.5382,-0.5382,-0.5382,-0.5382,0.0,0.0,0.0,0.0,-0.5096,-0.4959,0.0,0.0,0.0,0.0,0.0,0.0,0.0,-0.8893,-0.9094,-0.9492,-0.9619,-0.9752,-0.9975,-0.8942,-0.8281,-0.8563,-0.7213,-0.649,-0.6859,-0.6793,-0.6787,-0.6879,-0.6916,-0.6994,-0.7119,-0.7319,-0.745,-0.7467,-0.7682,-0.7821,-0.7838,-0.7928,-0.7988,-0.7988,-0.7988,-0.7988,-0.7988,-0.7988,-0.7988,-0.7988,-0.7988,-0.7988,-0.7939,-0.7487,-0.7288,-0.7238,-0.6736,-0.6506,-0.64,-0.64,0.0,0.0,0.0,0.0,0.0,0.0,0.0,0.0,0.0,0.0,0.0,0.0,0.0,0.0,0.0,0.0,0.0,0.0,0.0,0.0,0.0,0.0,0.0,0.0,-0.5631,-0.5888,-0.64,-0.654,-0.6502,-0.6233,-0.654,-0.677,-0.677,-0.6728,-0.6671,-0.6609,-0.6687,-0.6826,-0.6868,-0.6789,0.0,0.0,0.0,-0.6659,-0.6659,-0.6659,-0.6652,-0.664,-0.664,-0.6418,-0.6045,-0.6045,-0.5884,-0.5522,-0.5522,-0.5516,-0.5508,-0.5508,-0.5502,-0.5437,-0.5437,-0.5382,-0.5361,-0.5188,-0.5073,-0.4988,0.0,0.0,0.0,0.0,0.0,0.0,0.0,-0.8965,-0.9257,-0.934,-0.9701,-0.9952,-0.999,-0.8942,-0.8233,-0.8353,-0.7239,-0.6616,-0.6711,-0.6831,-0.6856,-0.6883,-0.716,-0.7299,-0.7326,-0.7475,-0.7611,-0.7726,-0.7784,-0.7875,-0.7944,-0.7975,-0.7988,-0.7988,-0.7988,-0.7988,-0.7988,-0.7988,-0.7988,-0.7988,-0.7988,-0.7988,-0.7988,-0.7889,-0.7839,-0.7839,-0.7739,-0.7346,-0.6937,-0.6937,-0.6658,-0.6364,-0.6364,0.0,0.0,0.0,0.0,0.0,0.0,0.0,0.0,0.0,0.0,0.0,0.0,0.0,0.0,0.0,0.0,0.0,0.0,0.0,0.0,-0.5489,-0.5994,-0.6233,-0.5693,-0.6155,-0.6501,-0.6361,-0.6501,-0.6565,-0.6565,-0.6434,-0.6606,-0.7008,-0.6824,-0.6773,-0.6878,-0.6865,-0.6839,-0.6881,-0.7065,-0.7124,-0.7062,-0.7124,-0.7138,-0.6988,-0.6754,0.0,-0.6495,-0.6495,-0.6425,-0.6348,-0.6348,-0.6302,-0.6223,-0.6223,-0.6005,-0.5712,-0.5491,-0.5382,-0.5367,-0.5259,-0.5152,-0.5167,0.0,0.0,0.0,0.0,0.0,0.0,0.0,-0.9043,-0.9349,-0.9432,-0.9645,-0.98,-0.98,-0.8679,-0.7951,-0.7995,-0.7101,-0.6521,-0.6536,-0.6823,-0.7028,-0.7146,-0.7366,-0.7485,-0.7485,-0.7631,-0.774,-0.7811,-0.7889,-0.7914,-0.7988,-0.7988,-0.7988,-0.7988,-0.7988,-0.7988,-0.7988,-0.7988,-0.7988,-0.7988,-0.7988,-0.7988,-0.7988,-0.7988,-0.7988,-0.7988,-0.7988,-0.7793,-0.753,-0.753,-0.7238,-0.6843,-0.6843,-0.6651,-0.6227,0.0,0.0,0.0,0.0,0.0,0.0,0.0,0.0,0.0,0.0,0.0,0.0,0.0,0.0,-0.4689,0.0,0.0,-0.5282,-0.5584,-0.5727,-0.5832,-0.5941,-0.6043,-0.6091,-0.6041,-0.6399,-0.6651,-0.671,-0.6766,-0.6935,-0.7331,-0.7166,-0.7161,-0.7282,-0.7288,-0.7308,-0.7357,-0.7541,-0.7601,-0.7541,-0.7601,-0.7572,-0.7511,-0.7334,-0.7127,-0.6956,-0.6956,-0.6808,-0.6581,-0.6581,-0.655,-0.65,-0.65,-0.6327,-0.6064,-0.5784,-0.556,-0.5308,-0.5207,-0.516,-0.5163,0.0,0.0,0.0,0.0,0.0,0.0,0.0,0.0,-0.9388,-0.9559,-0.9637,-0.9663,-0.9663,-0.8585,-0.7761,-0.7529,-0.6861,-0.6443,0.0,-0.6917,-0.7241,-0.7412,-0.7543,-0.7641,-0.7641,-0.778,-0.7855,-0.7855,-0.7931,-0.7988,-0.7988,-0.7988,-0.7988,-0.7988,-0.7988,-0.7988,-0.7988,-0.7988,-0.7988,-0.7988,-0.7988,-0.7988,-0.7988,-0.7789,-0.769,-0.7739,-0.7939,-0.7889,-0.769,-0.769,-0.7388,-0.6986,-0.6783,-0.662,-0.6163,-0.4415,-0.4072,0.0,0.0,0.0,0.0,0.0,0.0,0.0,0.0,0.0,-0.4795,-0.4951,-0.4825,-0.4732,-0.4732,-0.4854,-0.5139,-0.5576,-0.5467,-0.5494,-0.6138,-0.6018,-0.5814,-0.5702,-0.6289,-0.6728,-0.6876,-0.713,-0.7363,-0.7546,-0.7554,-0.7608,-0.7728,-0.7733,-0.7777,-0.7869,-0.7872,-0.7872,-0.7872,-0.7872,-0.7872,-0.7872,-0.7872,-0.776,-0.7428,-0.7428,-0.7199,-0.6877,-0.6798,-0.6789,-0.6789,-0.6767,-0.6705,-0.651,-0.6283,-0.589,-0.5349,-0.5277,-0.5224,-0.5159,0.0,0.0,0.0,0.0,0.0,0.0,0.0,0.0,0.0,-0.9559,-0.9802,-0.9961,-0.9961,-0.9065,-0.8061,-0.693,-0.674,-0.6657,-0.6657,-0.7105,-0.7353,-0.7415,-0.7638,-0.7787,-0.7787,-0.7887,-0.7965,-0.7965,-0.7982,-0.7988,-0.7988,-0.7988,-0.7988,-0.7988,-0.7988,-0.7988,-0.7988,-0.7988,-0.7988,-0.7988,-0.7988,-0.7988,-0.7889,-0.6936,-0.6587,-0.6686,-0.7637,-0.7388,-0.6587,-0.6587,-0.6537,-0.6334,-0.5377,-0.5318,-0.5324,-0.4162,-0.4094,-0.4072,-0.2577,-0.2281,-0.2618,-0.3542,-0.4246,-0.4801,0.0,0.0,-0.5349,-0.5189,-0.4964,-0.477,-0.477,-0.53,-0.5576,-0.5175,-0.5792,-0.6084,-0.5458,-0.5865,-0.6142,-0.5806,-0.6172,-0.6581,-0.6883,-0.7028,-0.7253,-0.7671,-0.7682,-0.7731,-0.7845,-0.7853,-0.7858,-0.7872,-0.7872,-0.7872,-0.7872,-0.7872,-0.7872,-0.7872,-0.7872,-0.7864,-0.7853,-0.7853,-0.7784,-0.7765,-0.7605,-0.7562,-0.7554,-0.7445,-0.7275,-0.7026,-0.6968,-0.6549,-0.5871,-0.5508,-0.5359,-0.5339,0.0,0.0,0.0,0.0,0.0,0.0,0.0,0.0,0.0,0.0,-0.9636,-0.9643,-0.9382,-0.8339,-0.7376,-0.6581,-0.6609,0.0,-0.6792,-0.7173,-0.7456,-0.7499,-0.7702,-0.7851,-0.7894,-0.7958,-0.7988,-0.7988,-0.7988,-0.7988,-0.7988,-0.7988,-0.7988,-0.7988,-0.7988,-0.7988,-0.7988,-0.7988,-0.7988,-0.7988,-0.7988,-0.764,-0.7036,-0.6587,-0.5632,-0.4772,-0.6352,-0.6328,0.0,0.0,-0.5932,-0.54,-0.4958,-0.4911,-0.477,-0.3393,-0.307,-0.3148,-0.3062,-0.3132,-0.37,-0.5475,-0.5829,-0.5772,-0.6069,-0.5708,-0.5291,-0.5231,-0.4987,-0.4851,-0.511,-0.5255,-0.5421,0.0,-0.5679,-0.5698,-0.5588,-0.5688,-0.5848,-0.6125,-0.6393,-0.663,-0.6978,-0.7258,-0.7552,-0.779,-0.7801,-0.782,-0.7869,-0.7872,-0.7872,-0.7872,-0.7872,-0.7872,-0.7872,-0.7872,-0.7872,-0.7872,-0.7872,-0.7872,-0.7872,-0.7872,-0.7872,-0.7869,-0.782,-0.7801,-0.7796,-0.7744,-0.7625,-0.7444,-0.7264,-0.696,-0.6561,-0.5945,-0.5593,-0.5375,0.0,0.0,0.0,0.0,0.0,0.0,0.0,0.0,0.0,0.0,-0.9608,-0.9469,-0.8862,-0.7812,-0.7007,-0.6589,0.0,0.0,0.0,-0.7207,-0.7421,-0.7533,-0.7712,-0.7865,-0.7924,-0.7968,-0.7988,-0.7988,-0.7988,-0.7988,-0.7988,-0.7988,-0.7988,-0.7988,-0.7988,-0.7988,-0.7988,-0.7988,-0.7988,-0.7988,-0.7988,-0.7537,-0.6786,-0.6537,-0.5413,-0.4185,-0.5401,-0.5373,-0.4785,0.0,-0.5089,-0.4665,-0.4092,-0.4056,-0.3982,-0.2556,-0.2067,-0.2259,-0.3491,-0.3943,-0.4631,-0.6939,-0.7185,-0.6836,-0.6792,-0.6142,-0.5489,-0.5338,-0.5037,-0.4913,-0.5214,-0.5201,-0.5321,-0.576,-0.5591,-0.5469,-0.5646,-0.5601,-0.5749,-0.6353,-0.6517,-0.6767,-0.7087,-0.7495,-0.7782,-0.7867,-0.7872,-0.7872,-0.7872,-0.7872,-0.7872,-0.7872,-0.7872,-0.7872,-0.7872,-0.7872,-0.7872,-0.7872,-0.7872,-0.7872,-0.7872,-0.7872,-0.7872,-0.7872,-0.7872,-0.7872,-0.7872,-0.7872,-0.7823,-0.7747,-0.7564,-0.7311,-0.7082,-0.6539,-0.6086,-0.5637,0.0,0.0,0.0,0.0,0.0,0.0,0.0,0.0,0.0,0.0,0.0,0.0,0.0,0.0,-0.7382,-0.6922,0.0,0.0,0.0,-0.7207,-0.7419,-0.7426,-0.7655,-0.7814,-0.7818,-0.7914,-0.7988,-0.7988,-0.7988,-0.7988,-0.7988,-0.7988,-0.7988,-0.7988,-0.7988,-0.7988,-0.7988,-0.7988,-0.7988,-0.7988,-0.7988,-0.7988,-0.7839,-0.6786,-0.6265,-0.6014,-0.513,-0.474,0.0,0.0,-0.3805,-0.4235,-0.2242,-0.2213,0.0,-0.1806,-0.1324,0.0,0.0,0.0,-0.4836,-0.672,-0.7587,-0.7739,-0.6992,-0.6589,-0.6234,-0.5687,-0.5183,-0.4863,-0.5006,-0.5304,-0.5503,-0.5283,-0.5537,-0.5708,-0.5435,-0.5656,-0.5913,-0.6351,-0.6517,-0.674,0.0,-0.7614,-0.7867,-0.7872,-0.7872,-0.7872,-0.7872,-0.7872,-0.7872,-0.7872,-0.7872,-0.7872,-0.7872,-0.7872,-0.7872,-0.7872,-0.7872,-0.7872,-0.7872,-0.7872,-0.7872,-0.7872,-0.7872,-0.7872,-0.7872,-0.7872,-0.7869,-0.7867,-0.7864,-0.7612,-0.7269,-0.7267,-0.6889,-0.6289,0.0,0.0,0.0,0.0,0.0,0.0,0.0,0.0,0.0,0.0,0.0,0.0,0.0,0.0,0.0,0.0,0.0,0.0,0.0,-0.7119,-0.7265,-0.7412,-0.7563,-0.7716,-0.7811,-0.7911,-0.7988,-0.7988,-0.7988,-0.7988,-0.7988,-0.7988,-0.7988,-0.7988,-0.7988,-0.7988,-0.7988,-0.7988,-0.7988,-0.7988,-0.7988,-0.7532,-0.6758,-0.6412,-0.5754,-0.4979,0.0,0.0,0.0,0.0,0.0,0.0,-0.1898,0.0,0.0,-0.1547,0.0,0.0,0.0,0.0,-0.6891,-0.8424,-0.868,-0.8482,-0.818,-0.7388,-0.6592,-0.6439,-0.5631,-0.5142,-0.5714,-0.5464,-0.5328,-0.5705,-0.5652,-0.5491,-0.5437,-0.5541,-0.5838,-0.6457,-0.6443,0.0,0.0,0.0,0.0,-0.7569,-0.775,-0.7872,-0.7872,-0.7872,-0.7872,-0.7872,-0.7872,-0.7872,-0.7872,-0.7872,-0.7872,-0.7872,-0.7872,-0.7872,-0.7872,-0.7872,-0.7872,-0.7872,-0.7872,-0.7872,-0.7872,-0.7872,-0.7872,-0.7864,-0.7788,-0.7719,-0.7661,-0.7426,-0.7225,-0.7033,0.0,0.0,0.0,0.0,0.0,0.0,0.0,0.0,0.0,0.0,0.0,0.0,0.0,0.0,0.0,0.0,0.0,0.0,0.0,0.0,-0.7292,-0.7448,-0.7546,-0.7641,-0.7733,-0.7882,-0.7911,-0.7911,-0.7965,-0.7988,-0.7988,-0.7988,-0.7988,-0.7988,-0.7988,-0.7988,-0.7985,-0.7931,-0.7941,-0.7982,-0.7877,-0.7411,-0.6785,-0.6738,-0.6211,0.0,0.0,0.0,0.0,0.0,0.0,0.0,0.0,0.0,0.0,0.0,0.0,0.0,0.0,-0.6891,-0.8025,-0.9284,-0.9327,-0.9027,-0.8825,-0.8081,-0.7241,-0.6895,-0.6049,-0.5487,-0.5763,-0.5467,-0.5272,-0.566,-0.5606,-0.5479,-0.5337,-0.5435,-0.5715,-0.6336,-0.6259,-0.6357,0.0,0.0,0.0,-0.7385,-0.7689,-0.7872,-0.7872,-0.7872,-0.7872,-0.7872,-0.7872,-0.785,-0.7809,-0.7809,-0.7809,-0.7809,-0.7809,-0.7831,-0.7872,-0.7872,-0.7872,-0.7872,-0.7872,-0.7872,-0.7872,-0.7872,-0.7872,-0.7864,-0.779,-0.7807,-0.7842,-0.7611,-0.7551,-0.7495,0.0,0.0,0.0,0.0,0.0,0.0,0.0,0.0,0.0,0.0,0.0,0.0,0.0,0.0,0.0,0.0,0.0,0.0,0.0,0.0,0.0,-0.7594,-0.7607,-0.7611,-0.7611,-0.775,-0.7824,-0.7824,-0.7917,-0.7988,-0.7988,-0.7988,-0.7988,-0.7988,-0.7982,-0.7978,-0.7968,-0.7865,-0.7885,-0.7941,-0.7712,-0.7675,-0.7773,-0.7648,0.0,0.0,0.0,0.0,0.0,0.0,0.0,0.0,0.0,0.0,0.0,0.0,0.0,-0.4402,-0.6519,-0.7517,-0.8184,-0.9284,-0.9579,-0.9426,-0.8973,-0.863,-0.8131,-0.7083,-0.6336,-0.575,0.0,0.0,-0.5274,-0.5074,-0.5465,-0.5618,-0.5263,-0.5404,-0.5662,0.0,0.0,0.0,0.0,0.0,0.0,-0.7324,-0.7689,-0.7872,-0.7869,-0.7872,-0.7869,-0.7861,-0.7861,-0.7807,-0.7693,-0.7698,-0.7703,-0.7709,-0.7709,-0.7766,-0.7872,-0.7872,-0.7872,-0.7872,-0.7872,-0.7872,-0.7872,-0.7872,-0.7872,-0.7872,-0.7864,-0.7867,-0.7869,-0.7856,-0.7788,-0.7592,0.0,0.0,0.0,0.0,0.0,0.0,0.0,0.0,0.0,0.0,0.0,0.0,0.0,0.0,0.0,0.0,0.0,0.0,0.0,0.0,0.0,0.0,0.0,0.0,0.0,0.0,0.0,-0.7931,-0.7971,-0.7988,-0.7988,-0.7988,-0.7988,-0.7985,-0.7919,-0.7868,-0.7862,-0.7712,-0.7675,-0.7706,0.0,-0.7553,-0.7492,0.0,0.0,0.0,0.0,0.0,0.0,0.0,0.0,0.0,0.0,-0.3325,-0.2722,0.0,0.0,-0.5987,-0.5781,-0.7122,-0.8674,-0.9171,-0.9282,-0.9331,-0.9377,-0.9027,-0.8495,-0.7746,-0.684,-0.5997,0.0,0.0,0.0,-0.5261,-0.5305,0.0,-0.5341,-0.5498,0.0,-0.6055,0.0,-0.6012,-0.634,-0.6714,0.0,0.0,-0.7444,-0.7811,-0.7569,-0.775,-0.7834,-0.7747,-0.7744,-0.7687,-0.7568,-0.7657,-0.7744,-0.7828,-0.7828,-0.7842,-0.7872,-0.7872,-0.7872,-0.7872,-0.7872,-0.7872,-0.7872,-0.7872,-0.7872,-0.7861,-0.7777,-0.7796,-0.785,-0.7674,-0.7649,-0.7674,0.0,0.0,0.0,0.0,0.0,0.0,0.0,0.0,0.0,0.0,0.0,0.0,0.0,0.0,0.0,0.0,0.0,0.0,0.0,0.0,0.0,0.0,0.0,0.0,0.0,0.0,0.0,0.0,0.0,0.0,-0.7891,-0.7891,-0.7857,-0.7841,-0.7756,-0.7719,-0.7709,-0.756,0.0,0.0,0.0,0.0,0.0,0.0,0.0,0.0,0.0,0.0,0.0,0.0,0.0,-0.1716,-0.2904,-0.3186,-0.3189,-0.3695,0.0,-0.6748,-0.6657,-0.7319,-0.8273,-0.9031,-0.8829,-0.8658,-0.9376,-0.8961,-0.8126,-0.7155,-0.6367,-0.5585,-0.4831,-0.4805,0.0,0.0,0.0,0.0,-0.5314,-0.5451,-0.5645,0.0,-0.5866,0.0,-0.616,-0.6591,-0.6775,-0.6403,-0.7322,-0.775,-0.7447,-0.7689,-0.7842,-0.7777,-0.7777,-0.7657,-0.7359,-0.7555,-0.7619,-0.7612,-0.7735,-0.7823,-0.7872,-0.7872,-0.7872,-0.7872,-0.7872,-0.7872,-0.7872,-0.7872,-0.7872,-0.7867,-0.7801,-0.7815,-0.7856,-0.7722,-0.7717,-0.7766,0.0,0.0,0.0,0.0,0.0,0.0,0.0,0.0,0.0,0.0,0.0,0.0,0.0,0.0,0.0,0.0,0.0,0.0,0.0,0.0,0.0,0.0,0.0,0.0,0.0,0.0,0.0,0.0,0.0,0.0,0.0,0.0,0.0,0.0,0.0,0.0,0.0,0.0,0.0,0.0,0.0,0.0,0.0,0.0,0.0,0.0,0.0,0.0,0.0,0.0,-0.3974,-0.1586,-0.1825,-0.2494,-0.3316,-0.4296,-0.5489,-0.6686,-0.7496,-0.7325,-0.7173,-0.8382,-0.7975,-0.7579,-0.8661,-0.8235,-0.7171,-0.5889,-0.5322,-0.4706,-0.3644,-0.4227,-0.4873,-0.472,0.0,-0.5324,-0.5257,-0.5311,-0.5409,-0.5584,-0.5806,-0.5916,-0.5916,-0.6532,-0.6714,-0.6342,-0.7322,-0.775,-0.7447,-0.7627,-0.7742,-0.7726,-0.7831,-0.7661,-0.7215,-0.7415,-0.7426,-0.7298,-0.7603,-0.7774,-0.7872,-0.7872,-0.7872,-0.7872,-0.7872,-0.7872,-0.7872,-0.7872,-0.7872,-0.7872,-0.7872,-0.7872,-0.7872,-0.7872,-0.7872,-0.7872,0.0,0.0,0.0,0.0,0.0,0.0,0.0,0.0,0.0,0.0,-0.687,-0.6546,0.0,0.0,0.0,0.0,0.0,0.0,0.0,0.0,0.0,0.0,0.0,0.0,0.0,0.0,0.0,0.0,0.0,0.0,0.0,0.0,0.0,0.0,0.0,0.0,0.0,0.0,0.0,0.0,0.0,0.0,0.0,0.0,0.0,0.0,0.0,0.0,0.0,0.0,-0.3407,-0.19,-0.3688,-0.3738,-0.3243,-0.3403,-0.4253,-0.5003,-0.4271,-0.4624,-0.5325,-0.5779,-0.5777,-0.5748,-0.6371,-0.6096,0.0,0.0,-0.4105,-0.35,-0.3552,-0.3483,-0.3701,-0.4628,-0.4157,-0.4035,-0.5214,-0.4718,-0.4526,0.0,-0.5806,-0.5916,-0.5916,-0.6532,0.0,0.0,-0.7199,-0.775,-0.7447,-0.7204,-0.7043,-0.689,-0.7334,-0.7439,-0.7212,-0.7497,-0.7725,-0.7778,-0.7842,-0.785,-0.7872,-0.7872,-0.7872,-0.7872,-0.7872,-0.7872,-0.7872,-0.7872,-0.7872,-0.7872,-0.7872,-0.7872,-0.7872,-0.7872,-0.7872,-0.7872,0.0,0.0,0.0,0.0,0.0,0.0,0.0,-0.7115,-0.6227,-0.4892,-0.4706,-0.4609,-0.4262,-0.4261,-0.4289,0.0,0.0,0.0,0.0,0.0,0.0,0.0,0.0,0.0,0.0,0.0,0.0,0.0,0.0,0.0,0.0,0.0,0.0,0.0,0.0,0.0,0.0,0.0,0.0,0.0,0.0,0.0,0.0,0.0,0.0,0.0,0.0,0.0,0.0,0.0,-0.2934,-0.1945,-0.2864,-0.3173,-0.3224,-0.3224,-0.3974,-0.4674,-0.4175,-0.4024,-0.4175,-0.4979,-0.4776,-0.4589,-0.542,0.0,0.0,0.0,-0.2737,-0.2169,-0.1985,-0.2124,0.0,-0.3741,-0.308,-0.2882,-0.4126,-0.3452,0.0,-0.4581,-0.4802,-0.5253,0.0,-0.6591,-0.6839,-0.6714,-0.7263,-0.7508,-0.7143,-0.7143,-0.724,-0.7306,-0.7433,-0.743,-0.7304,-0.7488,-0.7517,-0.7385,-0.7569,-0.7627,-0.7627,-0.7811,-0.7872,-0.7872,-0.7872,-0.7872,-0.7872,-0.7872,-0.7872,-0.7872,-0.7872,-0.7872,-0.7872,-0.7872,-0.7872,-0.7872,0.0,0.0,0.0,0.0,0.0,0.0,0.0,-0.6046,-0.5133,-0.3466,-0.2799,-0.2813,-0.3571,-0.3682,-0.3691,0.0,0.0,0.0,0.0,0.0,0.0,0.0,0.0,0.0,0.0,0.0,0.0,0.0,0.0,0.0,0.0,0.0,0.0,0.0,0.0,0.0,0.0,0.0,0.0,0.0,0.0,0.0,0.0,0.0,0.0,0.0,0.0,0.0,0.0,0.0,-0.3095,-0.2558,-0.1899,-0.2264,-0.2922,-0.2909,-0.3513,-0.4124,-0.4124,-0.3524,-0.3124,-0.4176,-0.3775,-0.3437,-0.4355,-0.371,0.0,-0.201,-0.1442,-0.0885,-0.0512,-0.0927,-0.1673,0.0,-0.1982,-0.1703,-0.2915,-0.2162,-0.2013,0.0,-0.3517,0.0,-0.5347,-0.6094,0.0,-0.6276,-0.6582,-0.6771,-0.6775,-0.7263,-0.7508,-0.7564,-0.7508,-0.7447,-0.7385,-0.7447,-0.7388,-0.7143,-0.7385,-0.7508,-0.7508,-0.7811,-0.7872,-0.7872,-0.7872,-0.7872,-0.7872,-0.7872,-0.7872,-0.7872,-0.7872,-0.7872,-0.7872,-0.7872,-0.7872,-0.7872,0.0,0.0,0.0,0.0,0.0,0.0,0.0,-0.3952,-0.3257,-0.259,-0.1948,-0.1637,-0.19,-0.1762,-0.1668,0.0,0.0,0.0,0.0,0.0,0.0,0.0,0.0,0.0,0.0,0.0,0.0,-0.4924,0.0,0.0,0.0,0.0,0.0,0.0,0.0,0.0,0.0,0.0,0.0,0.0,0.0,0.0,0.0,0.0,0.0,0.0,0.0,0.0,0.0,0.0,0.0,-0.4501,-0.2557,-0.2043,-0.2115,-0.2028,0.0,0.0,-0.1918,-0.1818,-0.1768,-0.1919,-0.1869,-0.185,-0.2164,0.0,-0.1073,-0.1193,-0.0428,0.0048,-0.057,-0.0562,-0.0884,-0.1993,0.0,-0.0602,0.0,0.0,0.0,-0.1934,0.0,0.0,-0.2396,-0.4057,-0.4366,-0.2646,-0.3876,-0.517,-0.6403,-0.7322,-0.7444,-0.6587,-0.7383,-0.7689,-0.7385,-0.7689,-0.7811,-0.7811,-0.7811,-0.7872,-0.7872,-0.7869,-0.7872,-0.7872,-0.7872,-0.7872,-0.7872,-0.7872,-0.7872,-0.7872,-0.7872,-0.7872,-0.7872,-0.7872,-0.7872,-0.7872,0.0,0.0,0.0,0.0,0.0,0.0,-0.3736,-0.3341,-0.2803,-0.1909,-0.1547,-0.1436,-0.153,-0.1612,-0.1709,-0.188,0.0,0.0,0.0,0.0,0.0,0.0,0.0,0.0,0.0,0.0,-0.3302,-0.4331,-0.443,0.0,0.0,0.0,0.0,0.0,0.0,0.0,0.0,0.0,0.0,0.0,0.0,0.0,0.0,0.0,0.0,0.0,0.0,0.0,0.0,0.0,0.0,0.0,-0.2425,-0.2295,0.0,0.0,-0.1909,-0.1819,-0.1667,-0.1617,-0.1617,-0.1617,-0.1603,-0.1534,-0.1315,0.0,-0.0735,-0.0486,0.0,0.0338,0.0191,0.0328,0.0139,-0.0919,0.0095,0.0,-0.0808,0.0,0.0,0.0,-0.0984,0.0,0.0,0.0,-0.3199,-0.2645,-0.3198,-0.369,-0.4062,-0.6092,-0.7324,-0.7322,-0.7505,-0.7627,-0.7689,-0.7627,-0.763,-0.763,-0.763,-0.763,-0.763,-0.7811,-0.7872,-0.7872,-0.7872,-0.7872,-0.7872,-0.7872,-0.7872,-0.7872,-0.7872,-0.7872,-0.7872,-0.7872,-0.7872,-0.7872,0.0,0.0,0.0,0.0,0.0,-0.3905,-0.2995,-0.2821,-0.2468,-0.1593,-0.1471,-0.1529,-0.1597,-0.1853,-0.2075,-0.2196,-0.2243,0.0,0.0,0.0,0.0,0.0,0.0,0.0,0.0,0.0,-0.2785,-0.353,-0.3581,-0.398,0.0,0.0,0.0,0.0,0.0,0.0,0.0,0.0,0.0,0.0,0.0,0.0,0.0,0.0,0.0,0.0,0.0,0.0,0.0,0.0,0.0,0.0,0.0,0.0,0.0,0.0,-0.2162,-0.207,-0.1768,-0.1718,-0.1718,-0.1617,-0.16,-0.1484,0.0,0.0,-0.0544,-0.0098,0.0197,0.0442,0.067,0.0848,0.074,0.0045,0.0,0.1211,0.0245,0.0765,0.0,0.0,0.0,-0.0289,0.0,-0.1339,-0.1785,-0.289,-0.246,-0.2276,-0.2646,-0.4555,-0.6031,-0.7006,-0.738,-0.7689,-0.7872,-0.7689,-0.7569,-0.7569,-0.7569,-0.7569,-0.7569,-0.7811,-0.7872,-0.7872,-0.7872,-0.7872,-0.7872,-0.7872,-0.7872,-0.7872,-0.7872,-0.7872,-0.7872,-0.7872,-0.7872,-0.7867,0.0,0.0,0.0,0.0,0.0,0.0,-0.226,-0.213,-0.2027,-0.1729,-0.1714,-0.1781,-0.2043,-0.2349,-0.2423,-0.2199,-0.2379,0.0,0.0,0.0,0.0,0.0,0.0,0.0,0.0,0.0,-0.2623,-0.2422,-0.2674,-0.2674,-0.2471,-0.3776,-0.3828,-0.2874,0.0,0.0,0.0,0.0,0.0,0.0,0.0,0.0,0.0,0.0,0.0,0.0,0.0,0.0,0.0,0.0,0.0,0.0,0.0,0.0,0.0,0.0,-0.2536,-0.2321,-0.2071,-0.1971,-0.1921,-0.1667,-0.1616,-0.1457,0.0,0.0,-0.0352,-0.0049,0.0199,0.0449,0.0672,0.0715,0.0706,0.0677,0.1142,0.0,0.0928,0.1049,0.0,0.0,0.0,0.1364,0.1351,0.1395,0.0247,-0.2705,-0.1108,-0.0924,-0.289,-0.2707,-0.326,-0.4855,-0.6884,-0.7872,-0.7872,-0.7872,-0.7872,-0.7872,-0.7872,-0.7872,-0.7872,-0.7872,-0.7872,-0.7872,-0.7872,-0.7872,-0.7872,-0.7872,-0.7872,-0.7872,-0.7872,-0.7872,-0.7872,-0.7872,-0.7872,-0.7856,0.0,0.0,0.0,0.0,0.0,0.0,0.0,-0.2237,-0.2178,-0.1801,-0.1946,-0.2088,-0.2177,-0.2235,-0.2257,-0.2198,-0.2535,0.0,0.0,0.0,0.0,0.0,0.0,0.0,0.0,-0.2951,-0.2961,-0.2871,-0.301,-0.3029,-0.2977,-0.338,-0.3356,-0.3019,-0.3344,0.0,0.0,0.0,0.0,0.0,0.0,0.0,0.0,0.0,0.0,0.0,0.0,0.0,0.0,0.0,0.0,0.0,0.0,0.0,0.0,0.0,0.0,0.0,-0.2322,-0.2271,-0.2271,-0.217,-0.2149,-0.1935,-0.1249,-0.0846,-0.0546,-0.01,0.0199,0.0442,0.067,0.0707,0.0694,0.0721,0.1141,0.0,0.0,0.0,0.0,0.1684,0.1494,0.1393,0.0,0.0,0.1111,0.0185,0.0863,0.1111,0.0431,-0.0554,-0.1845,-0.3504,-0.4179,-0.4547,-0.4547,-0.4485,-0.4916,-0.5839,-0.6086,-0.6086,-0.5839,-0.6086,-0.6113,-0.6051,-0.6051,-0.6676,-0.7568,-0.6734,-0.6956,-0.7687,-0.676,-0.6958,-0.7744,-0.766,-0.763,-0.7506,0.0,0.0,0.0,0.0,0.0,0.0,0.0,-0.1952,-0.199,-0.1971,-0.2109,-0.2199,-0.2199,-0.2289,-0.2211,-0.1919,-0.2442,0.0,0.0,0.0,0.0,0.0,0.0,0.0,-0.3003,-0.3041,-0.3056,-0.309,-0.3154,-0.3174,-0.3145,-0.3173,-0.3142,-0.3105,-0.3082,-0.3063,0.0,0.0,0.0,0.0,0.0,0.0,-0.3158,0.0,0.0,0.0,0.0,0.0,0.0,0.0,0.0,0.0,0.0,0.0,0.0,0.0,0.0,0.0,0.0,-0.2573,-0.2522,-0.2422,-0.24,0.0,0.0,-0.0901,-0.0596,0.0,0.0347,0.0584,0.0663,0.07,0.0689,0.072,0.1043,0.0,0.0,0.0,0.0,0.153,0.0,0.0,0.0,0.1349,0.1359,0.1482,0.1791,0.1977,0.1977,0.0986,0.0,-0.1046,-0.2275,-0.2951,-0.3012,-0.2951,-0.3381,-0.4179,-0.4364,-0.4351,-0.4203,-0.4387,-0.4471,-0.4346,-0.4346,-0.4974,0.0,-0.5044,-0.5312,-0.6191,-0.5242,-0.5432,-0.6246,-0.6147,-0.617,-0.6043,0.0,0.0,0.0,0.0,0.0,0.0,0.0,-0.1436,-0.1615,-0.2109,-0.2199,-0.2199,-0.2199,-0.2379,-0.2199,-0.1525,0.0,0.0,0.0,0.0,0.0,0.0,0.0,0.0,-0.2997,-0.3003,-0.3015,-0.3085,-0.3076,-0.308,-0.3089,-0.3082,-0.3098,-0.3087,-0.3034,-0.304,-0.3094,-0.3102,-0.3097,-0.3102,-0.311,-0.31,0.0,0.0,0.0,0.0,0.0,0.0,0.0,0.0,0.0,0.0,0.0,0.0,0.0,0.0,0.0,0.0,0.0,0.0,0.0,0.0,0.0,0.0,0.0,0.0,0.0,0.0197,0.0588,0.0774,0.0745,0.0693,0.0688,0.072,0.0897,0.0,0.0,0.1083,0.0,0.0,0.0945,0.0,0.1235,0.1092,0.1111,0.142,0.1791,0.1977,0.1977,0.1977,0.1977,0.1977,-0.0985,-0.2582,-0.2644,-0.2644,-0.2703,-0.2762,-0.2762,-0.2739,-0.2819,-0.2819,-0.2854,-0.281,-0.281,-0.3043,-0.3391,-0.3035,-0.3212,-0.3801,-0.3499,-0.3557,-0.3847,-0.3902,-0.3881,-0.3863,0.0,0.0,0.0,0.0,0.0,0.0,0.0,0.0,0.0,0.0,-0.2064,-0.2243,-0.2424,-0.2334,-0.2244,0.0,0.0,0.0,0.0,0.0,0.0,0.0,0.0,0.0,-0.2939,-0.2982,-0.3041,-0.3119,-0.3104,-0.308,-0.309,-0.3077,-0.3068,-0.3027,-0.3061,-0.3057,-0.3027,-0.3041,-0.3066,-0.3098,-0.3112,-0.3109,0.0,0.0,0.0,0.0,-0.296,-0.2967,0.0,0.0,0.0,0.0,0.0,0.0,0.0,0.0,-0.318,0.0,0.0,0.0,0.0,0.0,0.0,0.0,0.0,0.0,0.0,0.0,0.0,0.0,0.0,0.0,0.0,0.0,0.0,0.0,0.1071,0.0,0.0,0.1015,0.0507,0.0171,0.006,0.0366,0.0679,0.0741,0.1297,0.1606,0.1606,0.1853,0.1853,0.1606,0.1111,0.0863,0.0802,0.0802,0.0306,-0.0726,-0.0967,-0.0959,-0.0768,-0.1064,-0.1113,-0.1038,-0.1038,-0.1717,-0.2825,-0.1785,-0.2069,-0.3047,-0.22,-0.2578,-0.3545,-0.3648,-0.3679,-0.3513,0.0,0.0,0.0,0.0,0.0,0.0,0.0,0.0,0.0,0.0,0.0,-0.2109,-0.2334,-0.2244,0.0,0.0,0.0,0.0,0.0,0.0,0.0,0.0,0.0,-0.292,-0.292,-0.295,-0.3008,-0.3097,-0.3068,-0.3052,-0.309,-0.311,-0.3048,-0.3004,-0.3012,-0.2997,-0.2969,-0.3023,-0.305,-0.3059,-0.3068,0.0,0.0,0.0,0.0,0.0,-0.2969,-0.2997,0.0,-0.307,-0.3112,-0.3101,0.0,0.0,0.0,0.0,-0.318,-0.318,-0.318,-0.318,-0.313,-0.2876,0.0,0.0,0.0,0.0,0.0,0.0,0.0,0.0,0.0,0.0,0.0,0.0,0.0638,0.0,0.0,0.0,0.1166,0.095,0.0502,0.0,0.0,-0.0121,0.0061,0.0062,0.0679,0.105,0.105,0.1359,0.1482,0.1297,0.1606,0.1853,0.1977,0.1962,0.1582,0.0844,0.0717,0.065,0.0756,0.0578,0.0513,0.0617,0.0557,0.0,-0.082,-0.0054,-0.0271,-0.1147,-0.0429,-0.0696,-0.1507,-0.1692,-0.1786,-0.168,0.0,0.0,0.0,0.0,0.0,0.0,0.0,0.0,0.0,0.0,0.0,0.0,0.0,0.0,0.0,0.0,0.0,0.0,0.0,0.0,0.0,0.0,-0.292,-0.292,-0.292,-0.292,-0.2974,-0.3083,-0.3022,-0.3003,-0.3062,-0.3116,-0.3075,-0.303,-0.2972,-0.2946,-0.2953,-0.3054,-0.3061,-0.3014,-0.3071,0.0,0.0,0.0,0.0,0.0,0.0,0.0,0.0,-0.3123,-0.3097,-0.3113,-0.3164,0.0,0.0,0.0,0.0,0.0,-0.318,-0.318,-0.3079,-0.2623,-0.2472,0.0,0.0,0.0,0.0,0.0,0.0,0.0,0.0,0.0182,0.0,0.0,0.0,0.0,0.1307,0.139,0.1214,0.0708,0.0329,0.0,-0.0526,-0.0537,-0.0425,-0.0369,0.0185,0.0494,0.0494,0.0864,0.1047,0.0981,0.1291,0.1656,0.1949,0.1932,0.1917,0.1903,0.1877,0.1849,0.1762,0.1793,0.1767,0.1795,0.1715,0.1545,0.1386,0.1594,0.138,0.0956,0.1219,0.1111,0.0845,0.0572,0.0465,0.0413,0.0,0.0,0.0,0.0,0.0,0.0,0.0,0.0,0.0,0.0,0.0,0.0,0.0,0.0,0.0,0.0,0.0,0.0,0.0,0.0,0.0,-0.292,-0.292,-0.292,-0.292,-0.292,-0.2951,-0.3018,-0.296,-0.2967,-0.3033,-0.3077,-0.3071,-0.3061,-0.3097,-0.3069,-0.307,-0.3088,-0.3061,-0.3005,-0.3025,0.0,0.0,0.0,0.0,0.0,0.0,0.0,0.0,-0.3087,-0.3125,-0.3168,-0.3177,0.0,0.0,0.0,0.0,0.0,-0.318,-0.318,-0.318,-0.3079,-0.2725,-0.2261,0.0,0.0,0.0,0.0,0.0,0.0,0.0,0.0137,0.0045,0.0,0.0,0.069,0.0,0.0,0.0053,-0.0545,0.0,-0.1014,-0.0864,-0.083,-0.0544,0.0182,0.0429,0.0494,0.0494,0.1111,0.1281,0.095,0.1262,0.1544,0.1823,0.1869,0.1854,0.1833,0.1828,0.1755,0.1725,0.172,0.1716,0.1711,0.1706,0.1652,0.165,0.1679,0.1669,0.1562,0.1282,0.1172,0.1121,0.0813,0.0761,0.071,0.0,0.0,0.0,0.0,0.0,0.0,0.0,0.0,0.0,0.0,0.0,0.0,0.0,0.0,0.0,0.0,0.0,0.0,0.0,0.0,-0.292,-0.292,-0.292,-0.292,-0.292,-0.292,-0.2932,-0.2958,-0.2962,-0.2979,-0.3005,-0.3068,-0.3082,-0.3087,-0.3076,-0.3097,-0.3097,-0.3097,-0.3099,-0.3056,0.0,0.0,0.0,0.0,0.0,0.0,0.0,0.0,0.0,0.0,-0.3157,-0.318,-0.318,0.0,0.0,0.0,0.0,0.0,-0.318,-0.318,-0.318,-0.318,-0.2775,-0.2265,-0.1747,-0.1424,0.0,0.0,0.0,0.0,0.0,0.0,-0.0329,-0.0049,0.0,0.1092,0.0613,0.0468,0.0106,0.0,0.0,-0.1062,-0.0918,-0.1224,-0.1121,-0.0417,-0.018,-0.006,-0.006,0.0418,0.0768,0.0872,0.0929,0.1082,0.1475,0.1663,0.1775,0.1804,0.1787,0.1718,0.1704,0.1688,0.1682,0.1681,0.1664,0.1657,0.1656,0.1643,0.1638,0.1637,0.147,0.1415,0.1364,0.1111,0.0909,0.0758,0.0,0.0,0.0,0.0,0.0,0.0,0.0,0.0,0.0,0.0,0.0,0.0,0.0,0.0,0.0,0.0,0.0,0.0,0.0,-0.292,-0.292,-0.292,-0.292,-0.292,-0.292,-0.2904,-0.2897,-0.2897,-0.294,-0.2985,-0.3027,-0.309,-0.3102,-0.311,-0.3113,-0.314,-0.314,-0.314,-0.311,-0.309,0.0,0.0,0.0,0.0,0.0,0.0,0.0,0.0,0.0,0.0,0.0,0.0,0.0,0.0,0.0,-0.318,-0.318,-0.3177,-0.3162,-0.3169,-0.3173,-0.3195,0.0,-0.2405,-0.1904,-0.1778,0.0,0.0,0.0,0.0,0.0,-0.07,0.0,-0.0051,0.0801,0.1248,0.0771,0.0626,0.0211,-0.0957,-0.1086,-0.1056,-0.0912,-0.1434,-0.1558,-0.0931,-0.0584,-0.0409,-0.0582,-0.0115,0.0342,0.0791,0.056,0.0767,0.1265,0.1585,0.1703,0.1772,0.1695,0.1684,0.1683,0.1662,0.1652,0.165,0.1627,0.1617,0.1617,0.1617,0.1617,0.1617,0.1617,0.1617,0.1566,0.1364,0.1111,0.0859,0.0,0.0,0.0,0.0,0.0,0.0,0.0,0.0,0.0,0.0,0.0,0.0,0.0,0.0,0.0,0.0,0.0,0.0,0.0,-0.292,-0.292,-0.292,-0.292,-0.292,-0.292,-0.2819,-0.2789,-0.2789,-0.2794,-0.2925,-0.3091,-0.3105,-0.3116,-0.3173,-0.3169,-0.3217,-0.3217,-0.3217,-0.3137,-0.309,-0.309,0.0,0.0,0.0,0.0,0.0,0.0,0.0,0.0,0.0,0.0,0.0,0.0,0.0,-0.318,-0.318,-0.318,-0.3168,-0.3112,-0.3137,-0.3203,-0.3138,-0.3057,0.0,-0.2456,-0.2274,0.0,-0.1335,0.0,0.0,0.0,-0.0904,-0.0525,0.0,0.0592,0.0757,0.0152,0.0,-0.0379,-0.1494,-0.1701,-0.1513,-0.0955,-0.1425,-0.1429,-0.0507,-0.0171,-0.0229,-0.0732,0.0,0.0443,0.043,0.0435,0.0802,0.1574,0.1651,0.1652,0.1626,0.1624,0.1623,0.1623,0.1621,0.162,0.162,0.1618,0.1617,0.1617,0.1617,0.1617,0.1617,0.1617,0.1617,0.1617,0.1566,0.1415,0.1162,0.0,0.0,0.0,0.0,0.0,0.0,0.0,0.0,0.0,0.0,0.0,0.0,0.0,0.0,0.0,0.0,0.0,0.0,0.0,-0.292,-0.292,-0.292,-0.292,-0.292,-0.292,-0.2815,-0.2764,-0.2726,-0.2764,-0.2894,-0.3106,-0.3081,-0.3122,-0.318,-0.318,-0.318,-0.3177,-0.314,-0.3133,-0.3142,-0.3106,-0.3149,0.0,0.0,0.0,0.0,0.0,0.0,0.0,0.0,-0.318,-0.318,-0.318,-0.318,-0.3172,-0.3136,-0.3125,-0.3112,-0.31,-0.3128,-0.3154,-0.3117,-0.2826,0.0,0.0,-0.2802,-0.262,-0.2,-0.1764,0.0,0.0,0.0,-0.0149,0.005,0.056,0.0829,0.0582,-0.0106,-0.0689,-0.1118,-0.1508,-0.1521,-0.0923,-0.1366,-0.1422,-0.0707,-0.0219,-0.0219,-0.0761,-0.0161,0.0372,0.0682,0.0365,0.0619,0.1566,0.1628,0.1628,0.1617,0.1617,0.1516,0.1364,0.1516,0.1516,0.1364,0.1516,0.1617,0.1617,0.1617,0.1617,0.1617,0.1617,0.1617,0.1617,0.1617,0.1516,0.1415,0.0,0.0,0.0,0.0,0.0,0.0,0.0,0.0,0.0,0.0,0.0,0.0,0.0,0.0,0.0,0.0,0.0,0.0,-0.292,-0.292,-0.292,-0.292,-0.292,-0.292,-0.292,-0.2815,-0.2763,-0.2721,-0.28,-0.2932,-0.3112,-0.3101,-0.3141,-0.318,-0.318,-0.318,-0.3177,-0.3136,-0.3142,-0.3177,-0.3136,-0.3144,0.0,0.0,0.0,0.0,0.0,0.0,0.0,0.0,-0.3168,-0.3156,-0.2972,-0.3053,-0.312,-0.2899,-0.2979,-0.3102,-0.3108,-0.3079,-0.3097,0.0,0.0,0.0,-0.2982,-0.2968,-0.2772,-0.2516,-0.2222,-0.1876,-0.1299,0.0,0.0,0.0,0.0724,0.1047,0.0643,-0.0106,-0.0682,-0.0792,-0.1327,-0.1385,-0.0639,-0.1118,-0.1222,-0.0581,-0.0211,-0.0211,-0.0786,-0.0311,0.0206,0.0618,0.0356,0.0707,0.1566,0.1617,0.1617,0.1617,0.1617,0.1465,0.1212,0.1465,0.1465,0.1212,0.1465,0.1617,0.1617,0.1617,0.1617,0.1617,0.1617,0.1617,0.1617,0.1617,0.1617,0.1566,0.0,0.0,0.0,0.0,0.0,0.0,0.0,0.0,0.0,0.0,0.0,0.0,0.0,0.0,0.0,0.0,0.0,0.0,-0.292,-0.292,-0.292,-0.292,-0.292,-0.292,-0.292,-0.2815,-0.2783,-0.2783,-0.2946,-0.3036,-0.3101,-0.3173,-0.318,-0.318,-0.318,-0.318,-0.318,-0.318,-0.318,-0.318,-0.318,-0.318,-0.318,0.0,0.0,0.0,0.0,0.0,0.0,0.0,-0.314,-0.3001,-0.2556,-0.2703,-0.2965,-0.2437,-0.2658,-0.3095,-0.3095,-0.3095,-0.3081,0.0,0.0,0.0,-0.3019,-0.2629,-0.2407,-0.2753,-0.2583,-0.2158,-0.1326,-0.0786,0.0,0.0403,0.1181,0.1299,0.0156,0.0,-0.0212,-0.0832,-0.137,-0.1277,-0.0213,-0.0585,-0.0634,-0.0052,0.0,-0.0206,-0.0758,-0.0303,0.0,0.0,0.0505,0.1061,0.1617,0.1617,0.1617,0.1617,0.1617,0.1465,0.1212,0.1465,0.1465,0.1212,0.1465,0.1617,0.1617,0.1617,0.1617,0.1617,0.1617,0.1617,0.1617,0.1617,0.1617,0.1617,0.0,0.0,0.0,0.0,0.0,0.0,0.0,0.0,0.0,0.0,0.0,0.0,0.0,0.0,0.0,0.0,0.0,0.0,-0.292,-0.292,-0.292,-0.292,-0.292,-0.292,-0.292,-0.2902,-0.2892,-0.2892,-0.2926,-0.2973,-0.3113,-0.3101,-0.314,-0.318,-0.318,-0.318,-0.318,-0.318,-0.318,-0.318,-0.318,-0.3154,-0.3117,0.0,0.0,0.0,0.0,0.0,0.0,0.0,0.0,0.0,-0.2515,-0.2403,-0.252,-0.2312,-0.2346,-0.2568,-0.2939,-0.3063,0.0,-0.3019,0.0,0.0,0.0,-0.2941,0.0,0.0,-0.2511,-0.2315,-0.1349,-0.0921,0.0,0.0105,0.0369,0.0584,0.086,0.021,-0.0103,0.0311,-0.0155,-0.0359,-0.0051,-0.0154,-0.0205,0.0,0.0357,0.0152,-0.0758,0.0051,0.0404,0.0,0.0505,0.1061,0.1617,0.1617,0.1617,0.1617,0.1415,0.1162,0.0909,0.1415,0.1364,0.096,0.1415,0.1617,0.1617,0.1617,0.1617,0.1617,0.1617,0.1617,0.1617,0.1617,0.1617,0.1617,0.0,0.0,0.0,0.0,0.0,0.0,0.0,0.0,0.0,0.0,-0.2649,-0.2739,0.0,0.0,0.0,0.0,0.0,0.0,0.0,-0.292,-0.292,-0.292,-0.292,-0.292,-0.292,-0.292,-0.292,-0.292,-0.2942,-0.2962,-0.3068,-0.3069,-0.311,-0.3145,-0.3169,-0.318,-0.318,-0.318,-0.318,-0.318,-0.318,-0.3144,-0.309,0.0,0.0,0.0,0.0,0.0,0.0,0.0,0.0,0.0,-0.2138,-0.1979,-0.1952,-0.1899,-0.2025,-0.234,-0.2889,-0.3051,0.0,-0.3044,-0.2762,-0.2615,-0.2895,0.0,0.0,0.0,-0.2729,-0.2545,-0.1425,-0.1091,0.0,0.0107,0.0268,0.0428,0.0757,0.0262,0.0102,0.0616,0.0305,0.0152,0.0606,0.0455,0.0404,0.0606,0.0556,0.0202,-0.0455,0.0152,0.0354,0.0,0.0707,0.1263,0.1617,0.1617,0.1617,0.1617,0.1314,0.1061,0.0808,0.1263,0.1212,0.0808,0.1364,0.1617,0.1617,0.1617,0.1617,0.1617,0.1617,0.1617,0.1617,0.1617,0.1617,0.1617,0.0,0.0,0.0,0.0,0.0,0.0,0.0,0.0,0.0,0.0,-0.292,-0.292,0.0,0.0,0.0,0.0,0.0,0.0,0.0,-0.292,-0.292,-0.292,-0.292,-0.292,-0.292,-0.292,-0.292,-0.292,-0.2971,-0.3,-0.3007,-0.3071,-0.3081,-0.3093,-0.3148,-0.3172,-0.3172,-0.3172,-0.3169,-0.3214,-0.3214,-0.3128,-0.3074,-0.3074,0.0,0.0,0.0,0.0,0.0,0.0,0.0,0.0,-0.1603,-0.1387,-0.1351,-0.1331,-0.173,-0.2264,-0.2875,0.0,0.0,-0.3081,-0.2901,0.0,-0.283,-0.3032,-0.3123,-0.2875,0.0,-0.2793,-0.1449,-0.1195,-0.0893,0.0163,0.0594,0.0588,0.0107,0.0263,0.0413,0.0456,0.0202,0.0455,0.1415,0.1111,0.101,0.1465,0.0606,0.0051,0.0,0.0051,0.0051,0.0051,0.1061,0.1617,0.1617,0.1617,0.1566,0.1566,0.1313,0.101,0.0758,0.1061,0.1061,0.0909,0.1364,0.1617,0.1617,0.1617,0.1617,0.1617,0.1617,0.1617,0.1617,0.1617,0.1617,0.1617,0.0,0.0,0.0,0.0,0.0,0.0,0.0,0.0,0.0,0.0,0.0,0.0,0.0,0.0,0.0,0.0,0.0,0.0,0.0,-0.292,-0.292,-0.292,-0.292,-0.292,-0.292,-0.292,-0.292,-0.292,-0.2931,-0.296,-0.3005,-0.3032,-0.3048,-0.3091,-0.3105,-0.311,-0.311,-0.311,-0.3131,-0.3137,-0.3137,-0.3099,-0.3044,-0.3044,-0.3036,0.0,0.0,0.0,0.0,0.0,0.0,0.0,-0.1135,-0.0858,-0.0853,-0.0856,-0.1215,-0.172,-0.2308,-0.2583,0.0,0.0,-0.3014,-0.2959,-0.3017,-0.3101,-0.3073,-0.2868,-0.3027,-0.2793,-0.1449,-0.1365,-0.1173,-0.0109,0.0109,0.0217,0.0321,0.0368,0.0464,0.0709,0.0657,0.0707,0.096,0.1061,0.101,0.0657,0.0657,0.0455,0.0,0.0404,0.0606,0.0606,0.1263,0.1617,0.1617,0.1617,0.1516,0.1263,0.101,0.0758,0.0505,0.096,0.1263,0.1415,0.1566,0.1617,0.1617,0.1617,0.1617,0.1617,0.1617,0.1617,0.1617,0.1617,0.1617,0.1617,0.0,0.0,0.0,0.0,0.0,0.0,0.0,0.0,0.0,0.0,0.0,0.0,0.0,0.0,0.0,0.0,0.0,0.0,0.0,0.0,-0.292,-0.292,-0.292,-0.292,-0.292,-0.292,-0.292,-0.292,-0.292,-0.2933,-0.2964,-0.2992,-0.3055,-0.3097,-0.3097,-0.3112,-0.3089,-0.3108,-0.3078,-0.3097,-0.3097,-0.3059,-0.3004,-0.3004,-0.2987,-0.2964,-0.2964,0.0,0.0,0.0,0.0,0.0,0.0,0.0,-0.0404,-0.0628,-0.0852,-0.1222,0.0,0.0,0.0,-0.2484,0.0,-0.2481,-0.2654,-0.2691,-0.2772,-0.2926,-0.306,-0.2843,-0.1603,-0.1515,-0.1269,-0.0162,0.0,0.0054,0.0214,0.0318,0.047,0.0616,0.0711,0.0808,0.0808,0.0909,0.0808,0.0253,0.0101,-0.0051,-0.0202,0.0051,0.0404,0.0808,0.1314,0.1617,0.1617,0.1617,0.1465,0.1212,0.0909,0.0707,0.0606,0.0859,0.1212,0.1617,0.1617,0.1617,0.1617,0.1617,0.1617,0.1617,0.1617,0.1617,0.1617,0.1617,0.1617,0.1617,0.0,0.0,0.0,0.0,0.0,0.0,0.0,0.0,0.0,0.0,0.0,0.0,0.0,0.0,0.0,0.0,0.0,0.0,0.0,0.0,0.0,-0.292,-0.292,-0.292,-0.292,-0.292,-0.292,-0.292,-0.292,-0.292,-0.292,-0.2967,-0.3022,-0.3081,-0.3081,-0.3061,-0.3105,-0.3102,-0.3076,-0.3066,-0.3066,-0.3036,-0.2989,-0.2989,-0.296,-0.292,-0.292,-0.2829,-0.2694,-0.2243,0.0,0.0,0.0,0.0,-0.009,-0.0449,-0.0628,-0.086,0.0,0.0,-0.1905,-0.1937,-0.1863,0.0,-0.2119,-0.2202,-0.2287,-0.2771,-0.2983,-0.2738,-0.18,-0.1501,-0.1147,-0.0159,0.0,0.0,0.0,0.0212,0.0317,0.0312,0.0512,0.0661,0.0663,0.0612,0.0357,-0.0204,-0.0661,-0.0812,-0.0507,-0.0455,0.0,0.0859,0.1364,0.1617,0.1617,0.1566,0.1415,0.1111,0.0808,0.0707,0.0808,0.0808,0.1111,0.1617,0.1617,0.1617,0.1617,0.1617,0.1617,0.1617,0.1617,0.1617,0.1617,0.1617,0.1617,0.1618,0.0,0.0,0.0,0.0,0.0,0.0,0.0,0.0,0.0,0.0,-0.292,-0.292,0.0,0.0,0.0,0.0,0.0,0.0,0.0,0.0,0.0,-0.292,-0.292,-0.292,-0.292,-0.292,-0.292,-0.292,-0.292,-0.292,-0.292,-0.2926,-0.2961,-0.3016,-0.3016,-0.3022,-0.3029,-0.3019,-0.2987,-0.2943,-0.2943,-0.2938,-0.2931,-0.2931,-0.2925,-0.292,-0.292,-0.2649,-0.2199,-0.1705,-0.1211,0.0,0.0,0.0,0.0,-0.009,-0.0359,-0.0724,0.0,0.0,0.0,0.0,-0.1978,-0.1849,0.0,0.0,-0.1635,0.0,-0.2167,-0.2322,-0.172,-0.1232,-0.0727,-0.0104,0.0,0.0,0.0,0.0052,0.0052,0.0052,0.0104,0.0104,0.0106,-0.0159,-0.0529,-0.111,-0.1407,-0.1343,-0.0878,-0.056,0.0051,0.1111,0.1465,0.1617,0.1617,0.1364,0.1111,0.0859,0.0354,0.0354,0.0808,0.0808,0.1111,0.1617,0.1617,0.1617,0.1617,0.1617,0.1617,0.1617,0.1617,0.1617,0.1617,0.1617,0.1617,0.1621,0.0,0.0,0.0,0.0,0.0,0.0,0.0,0.0,0.0,0.0,0.0,-0.2513,0.0,0.0,0.0,0.0,0.0,0.0,0.0,0.0,0.0,-0.292,-0.292,-0.292,-0.292,-0.292,-0.292,-0.292,-0.292,-0.292,-0.292,-0.292,-0.295,-0.3003,-0.2971,-0.2975,-0.3003,-0.2971,-0.2942,-0.292,-0.292,-0.2938,-0.2962,-0.2931,-0.2939,-0.2917,-0.2614,-0.2379,-0.2064,-0.1256,-0.0852,-0.0628,-0.0135,0.0,0.0,0.0,-0.0135,0.0,-0.0505,0.0,0.0,0.0,-0.1166,-0.1124,-0.1497,0.0,-0.1206,-0.1498,-0.1535,-0.1423,-0.119,-0.0959,-0.0614,-0.0102,0.0,0.0,0.0,0.0,0.0,0.0,0.0,0.0,0.0,-0.0414,-0.0779,-0.0997,-0.1393,-0.1339,-0.0631,-0.0462,0.0101,0.118,0.132,0.1465,0.1617,0.1314,0.101,0.0556,0.0202,0.0303,0.0808,0.0808,0.1111,0.1617,0.1617,0.1617,0.1617,0.1617,0.1617,0.1617,0.1617,0.1627,0.1642,0.1642,0.1652,0.1668,0.0,0.0,0.0,0.0,0.0,0.0,0.0,0.0,0.0,0.0,0.0,0.0,0.0,0.0,0.0,0.0,0.0,0.0,0.0,0.0,0.0,0.0,-0.292,-0.292,-0.292,-0.292,-0.292,-0.292,-0.292,-0.292,-0.292,-0.292,-0.2942,-0.2982,-0.2953,-0.2947,-0.2958,-0.2946,-0.2932,-0.2921,-0.2935,-0.2965,-0.3001,-0.2975,-0.299,-0.2973,-0.255,-0.2261,-0.1898,-0.1123,-0.0718,-0.0449,-0.009,0.0,0.0,0.0,0.0,0.0,0.0,0.0,0.0,0.0,0.0,-0.0493,0.0,0.0,-0.0689,0.0,-0.084,-0.0618,-0.0579,-0.0592,-0.0451,-0.005,0.0,0.0,0.0,0.0,0.0,0.0,0.0,0.0,0.0,-0.0512,-0.0824,-0.0835,-0.1335,-0.1285,-0.0581,-0.0462,0.0051,0.1083,0.1171,0.1317,0.1628,0.1272,0.0863,0.0404,0.0152,0.0303,0.0808,0.0808,0.1111,0.1617,0.1617,0.1617,0.1617,0.1617,0.1622,0.1628,0.1628,0.1647,0.1725,0.1725,0.1686,0.1705,0.0,0.0,0.0,0.0,0.0,0.0,0.0,0.0,0.0,0.0,0.0,0.0,-0.0134,-0.0896,-0.1436,-0.1436,-0.148,-0.1705,-0.2199,-0.2649,-0.292,-0.292,0.0,0.0,-0.292,-0.292,-0.292,-0.292,-0.292,-0.292,-0.292,-0.292,-0.2921,-0.2925,-0.2978,-0.2939,-0.28,-0.2953,-0.2969,-0.2924,-0.2978,-0.3001,-0.3011,-0.3066,-0.309,-0.3084,-0.2976,-0.2354,-0.152,-0.14,-0.0763,-0.0045,0.0,0.0,0.0,0.0,0.0,0.0,0.0,-0.0398,0.0,0.0,0.0,0.0,0.0,0.0,0.0,-0.009,-0.0046,-0.0046,-0.0046,-0.0048,-0.0049,0.0,0.0,0.0,0.0,0.0,0.0,0.0,0.0,0.0,0.0,-0.0531,-0.0903,-0.0904,-0.1412,-0.1451,-0.0884,-0.0562,0.0,0.0809,0.1061,0.1376,0.1712,0.1193,0.072,0.0404,0.0152,0.0303,0.0808,0.0808,0.1111,0.1617,0.1617,0.1617,0.1617,0.1617,0.1634,0.1712,0.1712,0.1677,0.1702,0.1702,0.1703,0.1708,0.0,0.0,0.0,0.0,0.0,0.0,0.0,0.0,0.0,0.0,0.0,0.0,0.0,0.067,0.0358,-0.0852,-0.1211,-0.148,-0.166,-0.2154,-0.2469,-0.2469,-0.2739,-0.292,-0.292,-0.292,-0.292,-0.292,-0.292,-0.2899,-0.2816,-0.2816,-0.2774,-0.2704,-0.2886,-0.2926,-0.2888,-0.2932,-0.2938,-0.2924,-0.2982,-0.3029,-0.3062,-0.3044,-0.3087,-0.3046,-0.2622,-0.2082,-0.1433,-0.1147,-0.0545,0.0,0.0,0.0,0.0,0.0,0.0,0.0,0.0,0.0,0.0,0.0,0.0,-0.018,-0.0224,-0.0135,0.0,0.0,0.0,0.0,0.0,0.0,0.0,0.0,0.0,0.0,0.0,0.0,0.0,0.0,0.0,0.0,0.0,-0.0506,-0.0708,-0.0354,-0.0795,-0.0895,-0.0357,-0.0198,0.0049,0.0505,0.0649,0.0851,0.1122,0.0981,0.072,0.0404,0.0307,0.046,0.0808,0.0808,0.1111,0.1617,0.1617,0.1617,0.1618,0.1638,0.1652,0.1716,0.1682,0.1707,0.1788,0.1788,0.1746,0.1764,0.0,0.0,0.0,0.0,0.0,0.0,0.0,0.0,0.0,0.2858,0.0,0.0,0.0,0.0,0.1878,0.0627,0.0045,-0.0358,-0.0672,-0.1165,-0.1704,-0.2199,-0.2513,-0.2739,-0.292,-0.2808,-0.2808,-0.292,-0.2808,-0.2779,-0.2783,-0.2783,-0.2729,-0.2638,-0.2781,-0.2832,-0.2816,-0.2902,-0.292,-0.2926,-0.3004,-0.3048,-0.3065,-0.3019,-0.2961,-0.276,-0.2358,-0.1776,-0.1214,-0.0881,-0.0413,0.0,0.0,0.0,0.0,0.0,0.0,0.0,0.0,0.0,0.0,0.0,0.0,0.0,0.0,0.0,0.0,0.0,0.0,0.0,0.0,0.0,0.0,0.0,0.0,0.0,0.0,0.0,0.0,0.0,0.0099,0.0099,0.0,-0.0243,-0.0292,0.0,-0.0336,-0.0386,0.0,0.0,0.0145,0.0396,0.0496,0.0646,0.08,0.0872,0.0772,0.0556,0.046,0.0562,0.0909,0.0859,0.1111,0.1618,0.1628,0.1633,0.1634,0.1705,0.1726,0.1746,0.1712,0.1738,0.182,0.182,0.1778,0.1795,0.0,0.0,0.0,0.0,0.0,0.0,0.0,0.0,0.5688,0.5688,0.0,0.0,0.0,0.0,0.0,0.2957,0.2459,0.1743,0.0805,0.0313,-0.0582,-0.2018,-0.2064,-0.2334,-0.2784,-0.2551,-0.2594,-0.2873,-0.2637,-0.2608,-0.2781,-0.2779,-0.2747,-0.2692,-0.2749,-0.2745,-0.2703,-0.2823,-0.292,-0.2929,-0.305,-0.3059,-0.3018,-0.3091,-0.2761,-0.2285,-0.2236,-0.1618,-0.0807,-0.0745,-0.037,0.0,0.0,0.0,0.0,0.0,0.0,0.0,0.0,0.0,0.0,0.0,0.0,0.0,0.009,0.0,0.009,0.0045,0.0045,0.0045,0.0,0.0045,0.0045,0.0046,0.0,0.0,0.0,0.0,0.0,0.0,0.0238,0.0286,0.0048,0.0286,0.0333,0.0095,0.0048,0.0048,0.0048,0.0,0.0143,0.0381,0.0692,0.085,0.0786,0.0866,0.0874,0.0808,0.0556,0.0707,0.1212,0.0909,0.1111,0.1619,0.1648,0.1714,0.1714,0.1716,0.1751,0.1804,0.1805,0.1823,0.1793,0.1793,0.1793,0.1792,0.0,0.0,0.0,0.0,0.0,0.0,0.5688,0.5688,0.5688,0.0,0.0,0.0,0.4389,0.3449,0.3179,0.3851,0.3133,0.2551,0.2329,0.1788,0.134,0.0938,0.0581,0.0179,-0.0269,-0.089,-0.1381,-0.1794,-0.2417,-0.2717,-0.2717,-0.2672,-0.2643,-0.2625,-0.2598,-0.265,-0.2763,-0.2885,-0.292,-0.2929,-0.305,-0.3059,-0.3012,-0.3093,-0.2776,-0.228,-0.2203,-0.1586,-0.0792,-0.0788,-0.0412,0.0,0.0,0.0,0.0,0.0,0.0,0.0,0.0,0.0,0.0,0.0,0.0,0.0,0.0,0.0,0.1883,0.1166,0.1032,0.0808,0.0135,0.0539,0.1034,0.0994,0.0455,0.0,0.0,0.0,0.0,0.0,0.0048,0.0332,0.0933,0.1071,0.1389,0.2053,0.1414,0.1004,0.1004,0.037,0.0047,0.0093,0.0191,0.0341,0.0491,0.0754,0.0863,0.0808,0.0973,0.1126,0.1212,0.1111,0.1263,0.1617,0.1626,0.1642,0.1717,0.1762,0.1789,0.1807,0.1774,0.1774,0.1817,0.1817,0.1748,0.1729,0.0,0.0,0.0,0.0,0.0,0.5688,0.5688,0.5688,0.5688,0.0,0.0,0.0,0.4926,0.403,0.3717,0.4253,0.3449,0.2732,0.2286,0.197,0.1566,0.0939,0.067,0.0313,-0.0179,-0.0799,-0.1332,-0.1749,-0.235,-0.2641,-0.2691,-0.2629,-0.2589,-0.2563,-0.2553,-0.2621,-0.2749,-0.2811,-0.2896,-0.2926,-0.3021,-0.3022,-0.2929,-0.2803,-0.2387,-0.1904,-0.1668,-0.111,-0.0463,-0.0463,-0.0272,0.0,0.0,0.0,0.0,0.0,0.0289,0.0568,0.0582,0.0886,0.1328,0.1882,0.0,0.0,0.2236,0.2536,0.2527,0.1611,0.1749,0.1838,0.1301,0.1659,0.2017,0.2017,0.1569,0.1261,0.132,0.1322,0.1328,0.1344,0.1531,0.1755,0.2008,0.2187,0.2494,0.2869,0.1973,0.1211,0.0853,0.0318,0.0,0.0,0.0,0.0095,0.0239,0.0537,0.0743,0.0799,0.101,0.1166,0.1364,0.1263,0.1364,0.1618,0.163,0.1646,0.1718,0.1765,0.1785,0.1733,0.175,0.1746,0.1785,0.1785,0.172,0.1704,0.0,0.0,0.5688,0.5688,0.5688,0.5688,0.5688,0.5688,0.5688,0.0,0.5599,0.5555,0.5555,0.4701,0.4164,0.4164,0.3405,0.251,0.1614,0.1569,0.0986,-0.0224,-0.0314,-0.0538,-0.0986,-0.1276,-0.1626,-0.1968,-0.2232,-0.2436,-0.2639,-0.262,-0.2565,-0.2522,-0.2529,-0.255,-0.2621,-0.2709,-0.2768,-0.2834,-0.2936,-0.2924,-0.279,-0.2343,-0.1827,-0.1259,-0.087,-0.0415,0.0,0.0,0.0,0.0,0.0,0.0,0.0,0.0127,0.0759,0.1435,0.1554,0.2213,0.2919,0.3021,0.2948,0.0,0.1995,0.2454,0.2737,0.1862,0.2402,0.2982,0.29,0.2946,0.3038,0.3044,0.3135,0.3179,0.3175,0.3175,0.3175,0.3175,0.3573,0.3619,0.309,0.3446,0.358,0.3224,0.2286,0.1256,0.0225,0.0135,0.009,0.0,0.0,0.0,0.0,0.0283,0.0528,0.0734,0.0832,0.1088,0.1562,0.136,0.1361,0.1618,0.1645,0.1709,0.1711,0.1684,0.1698,0.1704,0.1704,0.1703,0.1699,0.1699,0.1697,0.1695,0.0,0.5688,0.5688,0.5688,0.5688,0.5688,0.5688,0.5688,0.5688,0.5688,0.506,0.4567,0.4567,0.3717,0.3179,0.3179,0.3001,0.2823,0.2599,0.2598,0.2464,0.2194,0.2194,0.1971,0.1432,0.0624,0.0,-0.0437,-0.1533,-0.2083,-0.2126,-0.2396,-0.2548,-0.2582,-0.2186,-0.2084,-0.22,-0.2213,-0.2295,-0.2382,-0.2843,-0.2741,-0.234,-0.2251,-0.1645,-0.0808,-0.0721,-0.0406,0.0,0.0,0.0,0.0,0.0,0.0,0.013,0.0907,0.1236,0.1562,0.2373,0.2733,0.3039,0.3705,0.3828,0.0,0.4518,0.4741,0.4606,0.3608,0.3569,0.3503,0.2872,0.3361,0.3906,0.402,0.4656,0.4656,0.3179,0.2956,0.2956,0.2956,0.3175,0.3532,0.3985,0.4295,0.4652,0.5104,0.4253,0.2956,0.1211,0.1122,0.0763,0.0045,0.0,0.0,0.0,0.0279,0.0423,0.0479,0.0911,0.1163,0.1284,0.1432,0.1544,0.1617,0.1623,0.1626,0.1626,0.1632,0.1662,0.1704,0.1704,0.169,0.1722,0.1722,0.1655,0.1634,0.5688,0.5688,0.5688,0.5688,0.5688,0.5688,0.5688,0.5688,0.5688,0.5688,0.5285,0.4837,0.4344,0.3449,0.2688,0.2196,0.1704,0.1436,0.1436,0.1436,0.1436,0.1436,0.1436,0.1345,0.1076,0.0355,-0.0132,-0.0347,-0.1218,-0.1644,-0.1666,-0.1826,-0.1908,-0.195,-0.1706,-0.1632,-0.1692,-0.1697,-0.1725,-0.1841,-0.2404,-0.2445,-0.2157,-0.1634,-0.1132,-0.0673,-0.0449,-0.018,0.0,0.0,0.0,0.0,0.0,0.0312,0.0795,0.1281,0.2101,0.2956,0.3471,0.3892,0.4292,0.4683,0.4732,0.0,0.0,0.4989,0.5046,0.4099,0.4318,0.4543,0.4128,0.4475,0.4829,0.4883,0.5338,0.5374,0.4433,0.4431,0.4474,0.4474,0.4692,0.4828,0.4971,0.5235,0.5277,0.5015,0.4567,0.3449,0.1524,0.1391,0.0987,0.0045,0.0,0.0,0.0,0.0137,0.0276,0.0423,0.0657,0.0954,0.1228,0.1326,0.1489,0.1617,0.1617,0.1617,0.1617,0.1617,0.1635,0.166,0.166,0.1652,0.1639,0.1639,0.163,0.1617,0.568,0.5688,0.5688,0.5688,0.5688,0.5688,0.5688,0.5688,0.5688,0.5688,0.5374,0.4882,0.4119,0.3001,0.2017,0.1211,0.0449,0.0,0.0,0.0,0.0,0.0,0.0,0.0,0.0,-0.0352,-0.0564,-0.0561,-0.0953,-0.1176,-0.1172,-0.1269,-0.131,-0.1293,-0.1194,-0.1145,-0.1165,-0.1191,-0.1212,-0.13,-0.1749,-0.193,-0.1839,-0.1031,-0.0628,-0.0494,-0.0135,0.0,0.0,0.0,0.0135,0.0269,0.0269,0.0942,0.1704,0.1883,0.309,0.434,0.4499,0.501,0.5497,0.5448,0.5333,0.5003,0.0,0.0,0.0,0.4246,0.0,0.0,0.0,0.0,0.0,0.5472,0.0,0.0,0.0,0.5877,0.0,0.6041,0.6213,0.6169,0.5733,0.5908,0.5638,0.4656,0.4567,0.3807,0.2062,0.1973,0.1436,0.0314,0.0269,0.018,0.0,0.0,0.0091,0.0322,0.0368,0.0609,0.1069,0.1121,0.1234,0.1457,0.1513,0.1516,0.1516,0.1566,0.1617,0.1617,0.1617,0.1617,0.1617,0.1617,0.1617,0.1617,0.5648,0.5688,0.5688,0.5688,0.5688,0.5688,0.5688,0.5688,0.5688,0.5688,0.4253,0.3179,0.3092,0.1436,0.0269,0.018,0.0045,0.0,0.0,0.0,0.0,0.0,0.0,0.0,0.0,-0.0044,-0.0086,-0.0084,-0.0494,-0.0684,-0.067,-0.1102,-0.1298,-0.1264,-0.0884,-0.07,-0.0677,-0.073,-0.079,-0.0807,-0.0852,-0.0852,-0.0852,-0.0762,-0.0449,-0.009,0.0,0.0,0.0,0.0,0.0539,0.1256,0.1256,0.1928,0.2911,0.3717,0.4119,0.4459,0.5162,0.5429,0.5456,0.5281,0.5208,0.5122,0.4917,0.0,0.5,0.4896,0.0,0.0,0.0,0.0,0.0,0.0,0.0,0.0,0.5442,0.5597,0.5733,0.5733,0.5997,0.6041,0.5733,0.5733,0.5688,0.5555,0.5555,0.506,0.403,0.3985,0.3135,0.1301,0.1256,0.0853,0.0,0.0,0.0,0.0045,0.027,0.041,0.0513,0.0759,0.087,0.0887,0.1153,0.1263,0.1263,0.1516,0.1617,0.1617,0.1617,0.1617,0.1617,0.1617,0.1617,0.1617,0.5502,0.5521,0.5521,0.5521,0.5521,0.5521,0.5521,0.5521,0.5521,0.5521,0.4884,0.4218,0.3648,0.2446,0.1436,0.0853,0.0314,0.0,0.0,0.0488,0.0532,0.0,0.092,0.1217,0.0749,0.1192,0.1455,0.1441,0.1287,0.1187,0.1175,0.0979,0.0907,0.092,0.1212,0.0994,0.0515,0.0519,0.022,-0.0314,-0.0314,-0.0314,-0.0314,-0.0314,-0.018,0.009,0.0629,0.0808,0.0898,0.148,0.1928,0.2285,0.2285,0.2913,0.3807,0.4166,0.4701,0.5171,0.541,0.5508,0.5448,0.5249,0.5186,0.5156,0.5042,0.5018,0.5018,0.5018,0.0,0.0,0.0,0.0,0.0,0.0,0.5575,0.5653,0.0,0.0,0.5688,0.5688,0.0,0.0,0.5688,0.5688,0.5688,0.5688,0.5688,0.5285,0.4344,0.43,0.3403,0.148,0.1391,0.0942,0.0,0.0,0.0,0.0,0.0135,0.0227,0.0417,0.052,0.0675,0.0786,0.0902,0.1061,0.1212,0.1314,0.1465,0.1617,0.1617,0.1617,0.1617,0.1617,0.1617,0.1617,0.5273,0.5366,0.541,0.541,0.541,0.541,0.541,0.541,0.5424,0.5415,0.5238,0.4868,0.4239,0.3416,0.2598,0.1883,0.0942,0.0494,0.0763,0.1149,0.1148,0.0808,0.1945,0.2262,0.1693,0.2201,0.2513,0.2513,0.2493,0.2503,0.2504,0.252,0.2552,0.2555,0.2712,0.2357,0.1737,0.1792,0.1415,0.0808,0.0808,0.0808,0.0763,0.0494,0.0539,0.0898,0.1569,0.1793,0.1928,0.2644,0.3092,0.3269,0.3269,0.3941,0.4701,0.4701,0.5151,0.5661,0.554,0.5508,0.5448,0.5249,0.5186,0.5156,0.5042,0.504,0.5064,0.5064,0.5091,0.0,0.0,0.0,0.5436,0.0,0.0,0.5664,0.0,0.5648,0.0,0.0,0.0,0.0,0.0,0.5688,0.5688,0.5688,0.5688,0.5419,0.4701,0.4701,0.3941,0.224,0.2196,0.1614,0.0404,0.0404,0.0269,0.0,0.0,0.0091,0.0276,0.0283,0.0384,0.0585,0.065,0.0859,0.1111,0.1162,0.1314,0.1516,0.1566,0.1566,0.1516,0.1566,0.1617,0.1617,0.5029,0.5214,0.541,0.541,0.541,0.541,0.541,0.541,0.5412,0.5486,0.4724,0.4195,0.4285,0.3448,0.2867,0.2867,0.1928,0.1749,0.2732,0.1927,0.1836,0.2777,0.2719,0.2687,0.2645,0.2573,0.2513,0.2513,0.2493,0.2503,0.2504,0.2644,0.2714,0.2681,0.2845,0.2859,0.2867,0.2839,0.282,0.2823,0.2823,0.2823,0.2688,0.1704,0.1973,0.2823,0.2822,0.2867,0.2867,0.2867,0.3494,0.4253,0.4253,0.4882,0.5644,0.5644,0.5688,0.5661,0.554,0.5508,0.5448,0.5249,0.5186,0.5156,0.5042,0.5102,0.5181,0.5181,0.5317,0.5396,0.5475,0.5499,0.5464,0.5393,0.0,0.0,0.0,0.0,0.0,0.0,0.5688,0.0,0.0,0.5688,0.5688,0.5688,0.5688,0.5688,0.5644,0.5644,0.5193,0.4253,0.421,0.3269,0.139,0.1345,0.0898,0.0,0.0,0.0,0.0,0.0,0.0,0.0048,0.0298,0.0556,0.0808,0.1111,0.1212,0.1263,0.1516,0.1465,0.1263,0.1516,0.1617,0.1617,0.5404,0.5238,0.5137,0.5137,0.5137,0.5137,0.5137,0.52,0.5292,0.5415,0.464,0.4372,0.5137,0.3851,0.3135,0.3762,0.2957,0.2553,0.2867,0.3095,0.3089,0.291,0.3937,0.4227,0.364,0.4126,0.4435,0.4435,0.4333,0.4317,0.4424,0.4392,0.4412,0.4483,0.4579,0.4292,0.3691,0.3772,0.3449,0.2911,0.2911,0.3269,0.3717,0.2777,0.2598,0.3001,0.3583,0.3807,0.3941,0.4523,0.4971,0.524,0.524,0.5463,0.5688,0.5688,0.5688,0.5661,0.554,0.5567,0.557,0.5368,0.5368,0.5354,0.5279,0.532,0.5347,0.5347,0.538,0.5407,0.5486,0.5508,0.5521,0.0,0.0,0.0,0.0,0.0,0.5688,0.5688,0.5688,0.0,0.0,0.5688,0.5688,0.5688,0.5688,0.5688,0.5688,0.5688,0.5285,0.4344,0.43,0.3673,0.2419,0.1749,0.1256,0.0897,0.0314,0.0,0.0,0.0,0.0,0.0,0.0099,0.0303,0.0556,0.0657,0.0758,0.096,0.101,0.101,0.101,0.1415,0.1465,0.1314,0.5825,0.5592,0.5323,0.5057,0.5018,0.5031,0.5069,0.514,0.5246,0.5412,0.4941,0.4896,0.563,0.4612,0.4119,0.4748,0.3941,0.3537,0.3896,0.4066,0.4104,0.3894,0.4889,0.5172,0.4595,0.5133,0.541,0.541,0.5331,0.5333,0.541,0.5333,0.5358,0.5436,0.5472,0.5183,0.4651,0.4724,0.4402,0.3896,0.3896,0.4253,0.4701,0.403,0.3851,0.3985,0.4567,0.479,0.4882,0.5508,0.5688,0.5688,0.5688,0.5688,0.5688,0.5688,0.5688,0.5672,0.5594,0.5629,0.5642,0.5483,0.5448,0.5475,0.5398,0.5404,0.5434,0.5434,0.5469,0.5523,0.5559,0.5572,0.564,0.0,0.0,0.0,0.0,0.5688,0.5688,0.5688,0.5688,0.0,0.0,0.5688,0.5688,0.5688,0.5688,0.5688,0.5688,0.5688,0.5419,0.4837,0.479,0.4344,0.3403,0.2419,0.1749,0.1391,0.0449,0.0,0.0,0.0,0.0,0.0,0.0,0.0152,0.0404,0.0404,0.0505,0.0657,0.0758,0.0758,0.0707,0.1162,0.1212,0.1061,0.624,0.6202,0.5935,0.5176,0.5026,0.5061,0.517,0.5197,0.529,0.5486,0.5472,0.5518,0.5683,0.5649,0.5644,0.5688,0.4882,0.4748,0.5644,0.4882,0.4748,0.5644,0.5578,0.5516,0.5516,0.5447,0.5429,0.5429,0.5424,0.5418,0.5421,0.5448,0.5499,0.5499,0.5505,0.5572,0.5672,0.5564,0.5583,0.5688,0.5688,0.5688,0.5644,0.5463,0.5508,0.5688,0.5688,0.5688,0.5688,0.5688,0.5688,0.5688,0.5688,0.5688,0.5688,0.5688,0.5688,0.5688,0.5688,0.5688,0.5661,0.5545,0.5516,0.5486,0.5415,0.5477,0.5516,0.5516,0.5607,0.5688,0.5688,0.5733,0.5863,0.0,0.0,0.0,0.5688,0.5688,0.5688,0.5688,0.5688,0.5688,0.5688,0.5688,0.5688,0.5688,0.5688,0.5688,0.0,0.5688,0.5688,0.5688,0.5688,0.5285,0.4389,0.3449,0.251,0.1524,0.0539,0.009,0.009,0.0,0.0,0.0,0.0,0.0152,0.0404,0.0404,0.0404,0.0404,0.0657,0.0606,0.0404,0.0657,0.0808,0.0859,0.6732,0.6437,0.6083,0.5683,0.5342,0.5151,0.5181,0.5341,0.547,0.5621,0.5019,0.4924,0.5756,0.515,0.4926,0.5644,0.5466,0.5463,0.5688,0.5466,0.5466,0.5688,0.5659,0.5642,0.5642,0.5613,0.564,0.564,0.5505,0.5462,0.5459,0.5442,0.5415,0.542,0.5467,0.5524,0.5559,0.5618,0.5661,0.5688,0.5688,0.5599,0.5463,0.5416,0.5327,0.5191,0.5416,0.5463,0.5508,0.5644,0.5688,0.5688,0.5688,0.5688,0.5688,0.5688,0.5688,0.5688,0.5688,0.5688,0.5683,0.565,0.5642,0.5634,0.5646,0.5621,0.5642,0.5642,0.5667,0.5688,0.5688,0.5994,0.6254,0.6387,0.6299,0.6083,0.5733,0.5688,0.5688,0.5688,0.5688,0.5688,0.5688,0.5688,0.5688,0.5688,0.5688,0.5688,0.5688,0.5688,0.5688,0.5688,0.5688,0.5599,0.5329,0.4389,0.3807,0.3537,0.1838,0.1032,0.1033,0.0328,0.0,0.0,0.0,0.0051,0.0101,0.0101,0.0101,0.0101,0.0202,0.0152,0.0152,0.0404,0.0606,0.0758,0.7042,0.6648,0.6212,0.5854,0.5603,0.5401,0.5352,0.5419,0.5551,0.5675,0.524,0.5126,0.5732,0.5275,0.5104,0.5644,0.5688,0.5688,0.5688,0.5688,0.5688,0.5688,0.5688,0.5688,0.5688,0.5688,0.5688,0.5688,0.5621,0.5586,0.5583,0.5507,0.5447,0.5447,0.0,0.5408,0.5516,0.5637,0.5688,0.5688,0.5688,0.5597,0.0,0.528,0.5057,0.4879,0.506,0.5238,0.5416,0.5552,0.5644,0.5688,0.5688,0.5688,0.5688,0.5688,0.5688,0.5688,0.5688,0.5688,0.5688,0.5688,0.5688,0.5688,0.5688,0.5688,0.5777,0.5949,0.5994,0.5994,0.5994,0.639,0.6697,0.6697,0.6874,0.6833,0.6393,0.6127,0.5994,0.5994,0.5819,0.5688,0.5688,0.5688,0.5688,0.5688,0.5688,0.5688,0.5688,0.5688,0.5688,0.5688,0.5688,0.5688,0.5688,0.4748,0.43,0.4297,0.2331,0.1391,0.1348,0.0421,0.0,0.0,0.0,0.0,0.0,0.0,0.0,0.0,0.0,0.0,0.0,0.0152,0.0303,0.0455,0.7289,0.6929,0.6505,0.604,0.5874,0.5755,0.5586,0.5543,0.5542,0.5677,0.5688,0.5688,0.5688,0.5688,0.5688,0.5688,0.5688,0.5688,0.5688,0.5688,0.5688,0.5688,0.5688,0.5688,0.5688,0.5688,0.5688,0.5688,0.5688,0.568,0.5661,0.5556,0.0,0.0,0.0,0.0,0.0,0.5637,0.5688,0.5688,0.5688,0.5552,0.5327,0.5099,0.4835,0.4661,0.4661,0.4926,0.5327,0.5371,0.5508,0.5644,0.5688,0.5688,0.5688,0.5688,0.5688,0.5688,0.5688,0.5688,0.5688,0.5688,0.5688,0.5733,0.5777,0.5774,0.5908,0.6387,0.6476,0.6476,0.6476,0.6874,0.7187,0.7187,0.7496,0.754,0.7095,0.6609,0.6299,0.6299,0.5949,0.0,0.5688,0.5688,0.5688,0.5688,0.5688,0.5688,0.5688,0.5688,0.5688,0.5688,0.5688,0.5688,0.5688,0.4882,0.4478,0.4478,0.2643,0.1793,0.1751,0.0655,0.0191,0.0191,0.005,0.0,0.0,0.0,0.0,0.0,0.0,0.0,0.0,0.0,0.0,0.0051,0.7642,0.7542,0.7319,0.6785,0.6524,0.6297,0.6036,0.5692,0.5549,0.5699,0.5688,0.5688,0.5688,0.5688,0.5688,0.5688,0.5688,0.5688,0.5688,0.5688,0.5688,0.5688,0.5688,0.5688,0.5688,0.5688,0.5688,0.5688,0.5688,0.5637,0.5537,0.5518,0.0,0.0,0.0,0.0,0.5516,0.5637,0.5688,0.5688,0.5688,0.546,0.5055,0.501,0.4743,0.4389,0.4389,0.4569,0.4882,0.5282,0.5416,0.5463,0.5644,0.5688,0.5688,0.5688,0.5688,0.5688,0.5688,0.5688,0.5688,0.5688,0.5688,0.5819,0.6169,0.6254,0.6432,0.6874,0.6962,0.6962,0.6962,0.7363,0.7676,0.7676,0.7408,0.7051,0.6605,0.6127,0.5819,0.5819,0.5733,0.5688,0.5688,0.5688,0.5688,0.5688,0.5688,0.5688,0.5688,0.5688,0.5688,0.5688,0.5688,0.5688,0.5688,0.5555,0.5466,0.5419,0.4344,0.3807,0.3723,0.1963,0.1142,0.1097,0.0348,0.0,0.0,0.0,0.0,0.0,0.0,0.0,0.0,0.0,0.0,0.0,0.7443,0.7431,0.7302,0.6659,0.6587,0.6499,0.6045,0.5931,0.5889,0.5802,0.582,0.582,0.582,0.582,0.5798,0.5694,0.5688,0.5688,0.5688,0.5688,0.5688,0.5688,0.5688,0.5688,0.5688,0.5688,0.5688,0.5688,0.5688,0.5659,0.5599,0.5537,0.5478,0.5464,0.0,0.5454,0.0,0.5637,0.5688,0.5688,0.5688,0.5508,0.5191,0.5055,0.4788,0.448,0.4344,0.4389,0.4569,0.5013,0.528,0.5416,0.5644,0.5688,0.5688,0.5688,0.5688,0.5688,0.5688,0.5688,0.5688,0.5688,0.5863,0.6124,0.634,0.6605,0.6874,0.7363,0.7452,0.754,0.7808,0.7852,0.7896,0.8164,0.8032,0.7808,0.7588,0.7102,0.6792,0.6792,0.6571,0.6349,0.6083,0.6305,0.6219,0.5733,0.5688,0.5688,0.5688,0.5688,0.5688,0.5688,0.5688,0.5688,0.5688,0.5688,0.5688,0.5688,0.4748,0.43,0.4214,0.2288,0.1379,0.1335,0.0397,0.0,0.0,0.0,0.0,0.0,0.0,0.0,0.0,0.0,0.0,0.0,0.7376,0.7407,0.7248,0.6624,0.6721,0.6711,0.6233,0.6295,0.6255,0.5966,0.5918,0.5904,0.5904,0.5882,0.5831,0.5696,0.5688,0.5688,0.5688,0.5688,0.5688,0.5688,0.5688,0.5688,0.5688,0.5688,0.5688,0.5688,0.5688,0.5677,0.5648,0.5578,0.5532,0.5508,0.5534,0.5532,0.5516,0.5637,0.5688,0.5688,0.5688,0.5597,0.5371,0.5146,0.4924,0.4661,0.4523,0.4433,0.4478,0.4921,0.5191,0.5371,0.5599,0.5688,0.5733,0.5822,0.5822,0.5822,0.5911,0.5911,0.5863,0.5863,0.6124,0.6432,0.6517,0.683,0.7231,0.776,0.794,0.812,0.852,0.8252,0.812,0.8524,0.852,0.8432,0.8432,0.7984,0.7628,0.7628,0.7228,0.683,0.6564,0.6786,0.6656,0.5908,0.5863,0.5819,0.5688,0.5688,0.5688,0.5688,0.5688,0.5688,0.5688,0.5688,0.5688,0.5688,0.4971,0.4623,0.4602,0.2853,0.2097,0.2014,0.0845,0.0202,0.0,0.0,0.0,0.0,0.0,0.0,0.0,0.0,0.0,0.0,0.802,0.8005,0.7924,0.7512,0.7286,0.7161,0.7101,0.6744,0.6372,0.6117,0.5972,0.5904,0.5904,0.5812,0.5699,0.5691,0.5688,0.5688,0.5688,0.5688,0.5688,0.5688,0.5688,0.5688,0.5688,0.5688,0.5688,0.5688,0.5688,0.5634,0.5526,0.5626,0.5613,0.551,0.5623,0.561,0.5516,0.5637,0.5688,0.5688,0.5688,0.5597,0.5416,0.5371,0.5104,0.4703,0.4877,0.4835,0.475,0.5193,0.5235,0.5099,0.5552,0.5688,0.5777,0.621,0.6213,0.6174,0.6574,0.6523,0.6343,0.6343,0.6387,0.6517,0.6918,0.7051,0.7316,0.8025,0.834,0.8524,0.8612,0.8568,0.8524,0.8612,0.8208,0.7896,0.7896,0.7452,0.7183,0.7183,0.6741,0.6609,0.7007,0.6697,0.6432,0.6343,0.6343,0.6169,0.5733,0.5688,0.5688,0.5688,0.5688,0.5688,0.5688,0.5688,0.5688,0.5688,0.5599,0.5652,0.5707,0.4703,0.4271,0.43,0.2297,0.0908,0.0,0.0,0.0,0.0,0.0,0.0,0.0,0.0,0.0,0.0,0.8037,0.7969,0.7898,0.7637,0.7573,0.7484,0.734,0.7224,0.7082,0.6787,0.6323,0.5986,0.5912,0.586,0.5809,0.5694,0.5688,0.5688,0.5688,0.5688,0.5688,0.5688,0.5688,0.5721,0.5833,0.5723,0.5723,0.5836,0.5723,0.5664,0.5618,0.5667,0.5661,0.5618,0.5667,0.5661,0.5618,0.5667,0.5688,0.5688,0.5688,0.5644,0.5552,0.546,0.5282,0.5104,0.501,0.4966,0.4924,0.5282,0.5327,0.5324,0.5947,0.6124,0.6213,0.6697,0.6741,0.6745,0.6922,0.6922,0.683,0.683,0.6959,0.7092,0.7312,0.7452,0.7672,0.794,0.8204,0.8428,0.8564,0.8612,0.8612,0.8612,0.8432,0.8296,0.8296,0.812,0.7988,0.7988,0.7852,0.7676,0.754,0.7632,0.7452,0.6874,0.6564,0.6213,0.5733,0.5688,0.5688,0.5688,0.5688,0.5688,0.5688,0.5688,0.5688,0.5688,0.5688,0.5748,0.5861,0.4942,0.4253,0.3736,0.2912,0.1966,0.0958,0.0958,0.0606,0.0,0.0,0.0,0.0,0.0,0.0,0.0,0.803,0.799,0.7912,0.7767,0.7811,0.7781,0.7589,0.7579,0.7531,0.7335,0.6773,0.6325,0.6108,0.5939,0.582,0.5696,0.5688,0.5688,0.5688,0.5688,0.5688,0.5688,0.5688,0.5742,0.5899,0.5793,0.5787,0.5904,0.5787,0.5672,0.5637,0.5637,0.5653,0.5688,0.5688,0.5688,0.5688,0.5688,0.5688,0.5688,0.5688,0.5688,0.5688,0.5552,0.5552,0.5594,0.5455,0.5453,0.5586,0.5813,0.5902,0.5947,0.6299,0.6476,0.6697,0.7183,0.7272,0.7228,0.7404,0.7363,0.7319,0.7319,0.7496,0.7625,0.7625,0.772,0.7768,0.7768,0.7984,0.8245,0.8428,0.8564,0.8612,0.8612,0.8612,0.8612,0.8612,0.8612,0.8612,0.8612,0.8476,0.8296,0.8076,0.8256,0.8076,0.7363,0.7007,0.6612,0.613,0.5866,0.5777,0.5908,0.5777,0.5688,0.5688,0.5688,0.5704,0.5737,0.5737,0.5863,0.6015,0.5365,0.4563,0.3676,0.3676,0.3073,0.2066,0.1714,0.116,0.0454,0.0101,0.0,0.0,0.0,0.0,0.0,0.8224,0.8208,0.8157,0.8007,0.7985,0.7985,0.7988,0.7793,0.7595,0.7501,0.7279,0.6933,0.6517,0.6011,0.5691,0.5688,0.5688,0.5688,0.5688,0.5688,0.5688,0.5688,0.5688,0.5742,0.5899,0.5793,0.5787,0.5904,0.5787,0.5626,0.551,0.551,0.5575,0.5688,0.5688,0.5688,0.5688,0.5688,0.5688,0.5688,0.5688,0.5688,0.5688,0.5688,0.5863,0.6127,0.6299,0.6561,0.6823,0.7003,0.7095,0.7007,0.6564,0.6738,0.7183,0.7672,0.7669,0.7577,0.8065,0.8028,0.79,0.79,0.79,0.79,0.79,0.768,0.7507,0.7507,0.7896,0.8201,0.8201,0.8428,0.8612,0.8612,0.8612,0.8612,0.8612,0.8612,0.8612,0.8612,0.812,0.8028,0.8524,0.812,0.7808,0.7808,0.7808,0.7584,0.7095,0.6216,0.5908,0.6387,0.5949,0.5688,0.5688,0.5688,0.5745,0.5901,0.5901,0.6029,0.6317,0.633,0.5784,0.4784,0.4784,0.418,0.3073,0.2016,0.1613,0.1462,0.0404,0.0,0.0,0.0,0.0,0.0,0.8592,0.8603,0.8621,0.857,0.8528,0.8528,0.8528,0.8482,0.8414,0.8414,0.8115,0.7887,0.7743,0.6737,0.6271,0.6621,0.6346,0.6169,0.6169,0.6169,0.6038,0.5733,0.5688,0.5825,0.6024,0.5909,0.5907,0.6029,0.5907,0.579,0.5632,0.5632,0.565,0.5688,0.5688,0.5863,0.6169,0.6169,0.6346,0.6656,0.6656,0.6656,0.6656,0.6656,0.67,0.6789,0.6874,0.6918,0.7003,0.7095,0.7319,0.754,0.7408,0.7452,0.7676,0.8208,0.8296,0.8296,0.8432,0.8432,0.8388,0.8388,0.8252,0.8113,0.8113,0.794,0.7812,0.794,0.8113,0.8245,0.8428,0.852,0.8612,0.8612,0.8612,0.8612,0.8612,0.8612,0.8612,0.8612,0.8432,0.8432,0.8568,0.8432,0.8344,0.8344,0.7984,0.7584,0.7139,0.652,0.6254,0.6384,0.5949,0.5688,0.5688,0.5809,0.5869,0.5904,0.5904,0.5988,0.6151,0.6347,0.6234,0.5884,0.5884,0.5284,0.428,0.3927,0.2922,0.1563,0.121,0.0656,0.0,0.0,0.0,0.0,0.8825,0.8825,0.8825,0.8825,0.8825,0.8825,0.8825,0.8825,0.8825,0.8825,0.8637,0.8504,0.8542,0.7645,0.7085,0.72,0.6862,0.6653,0.6653,0.6653,0.652,0.626,0.6219,0.6382,0.6641,0.6334,0.6241,0.6417,0.6012,0.5848,0.5863,0.5908,0.5949,0.5949,0.6127,0.639,0.6653,0.6653,0.683,0.7095,0.7095,0.7095,0.7095,0.7095,0.7228,0.7363,0.7363,0.7496,0.7672,0.7672,0.7852,0.812,0.812,0.812,0.8164,0.852,0.8612,0.8612,0.8612,0.8612,0.8612,0.8612,0.8472,0.8336,0.8245,0.8113,0.8028,0.8069,0.8157,0.8245,0.8428,0.852,0.8612,0.8612,0.8612,0.8612,0.8612,0.8612,0.8612,0.8612,0.8612,0.8612,0.8612,0.8612,0.8612,0.8612,0.83,0.7984,0.7676,0.7007,0.6741,0.6918,0.6352,0.602,0.602,0.6004,0.5994,0.604,0.6083,0.6143,0.6222,0.6319,0.6387,0.6387,0.6387,0.6037,0.5386,0.4985,0.3776,0.2167,0.1765,0.1211,0.0606,0.0606,0.0858,0.116,0.8874,0.8874,0.8874,0.8874,0.8874,0.8874,0.8874,0.8874,0.8874,0.8874,0.8874,0.8917,0.9007,0.8638,0.8127,0.7608,0.7296,0.7156,0.7156,0.7146,0.7143,0.7095,0.7105,0.7292,0.7577,0.6999,0.6768,0.6938,0.6176,0.5916,0.6171,0.6343,0.6428,0.6473,0.6918,0.7095,0.7139,0.7139,0.7139,0.7183,0.7187,0.7187,0.7183,0.7187,0.7452,0.7848,0.7852,0.8164,0.8612,0.8612,0.8612,0.8612,0.8612,0.8612,0.8612,0.8612,0.8612,0.8612,0.8612,0.8612,0.8612,0.8612,0.8612,0.852,0.8292,0.8245,0.8157,0.7988,0.8116,0.8245,0.8245,0.8428,0.8612,0.8612,0.8612,0.8612,0.8612,0.8612,0.8612,0.8612,0.8612,0.8612,0.8612,0.8612,0.8612,0.8612,0.8612,0.8612,0.8612,0.7727,0.7418,0.7808,0.7063,0.6636,0.6591,0.6312,0.6205,0.632,0.6382,0.6381,0.6376,0.6381,0.6387,0.6387,0.6387,0.6387,0.6337,0.5334,0.428,0.3224,0.2217,0.1765,0.1714,0.1714,0.2368,0.3073,0.9426,0.9426,0.9426,0.9426,0.9426,0.9426,0.9426,0.9426,0.9426,0.9426,0.9426,0.9414,0.9469,0.9243,0.908,0.895,0.8291,0.7851,0.7851,0.7738,0.7452,0.7095,0.7255,0.74,0.758,0.7617,0.7526,0.7446,0.7132,0.6943,0.6877,0.6918,0.6918,0.6918,0.7051,0.7228,0.7401,0.758,0.776,0.7937,0.8164,0.8116,0.7981,0.8164,0.8208,0.8113,0.834,0.8476,0.8612,0.8612,0.8612,0.8612,0.8612,0.8612,0.8612,0.8612,0.8612,0.8612,0.8612,0.8612,0.8612,0.8612,0.8612,0.8568,0.852,0.852,0.8476,0.8432,0.8476,0.852,0.852,0.8564,0.8612,0.8612,0.8612,0.8612,0.8612,0.8612,0.8612,0.8612,0.8612,0.8612,0.8612,0.8612,0.8612,0.8612,0.8612,0.8612,0.8612,0.8463,0.8203,0.7812,0.7427,0.7005,0.6591,0.6774,0.6668,0.632,0.6382,0.6391,0.6312,0.6396,0.6387,0.6387,0.6387,0.6387,0.6387,0.6134,0.5384,0.4381,0.413,0.3525,0.2821,0.2821,0.2972,0.3173,0.9579,0.9579,0.9579,0.9579,0.9579,0.9579,0.9579,0.9579,0.9579,0.9579,0.9579,0.9579,0.9579,0.9539,0.9478,0.9478,0.8914,0.8574,0.8574,0.8443,0.8302,0.803,0.8116,0.8238,0.8397,0.8298,0.8074,0.7728,0.7438,0.7198,0.7095,0.7095,0.7183,0.7268,0.7408,0.7584,0.7801,0.7852,0.794,0.8072,0.8208,0.8208,0.8072,0.8208,0.8208,0.8116,0.8336,0.8428,0.8428,0.8564,0.8612,0.8612,0.8612,0.8612,0.8612,0.8612,0.8612,0.8612,0.8612,0.8612,0.8612,0.8612,0.8612,0.8612,0.8612,0.8612,0.8612,0.8612,0.8612,0.8612,0.8612,0.8612,0.8612,0.8612,0.8612,0.8612,0.8612,0.8612,0.8612,0.8612,0.8612,0.8612,0.8612,0.8612,0.8612,0.8612,0.8612,0.8645,0.8678,0.8771,0.864,0.8277,0.8061,0.7807,0.7523,0.7251,0.6824,0.6344,0.6355,0.6355,0.6347,0.6357,0.6387,0.6387,0.6387,0.6387,0.6387,0.6387,0.5787,0.4784,0.4784,0.4431,0.3927,0.3927,0.4228,0.4628,0.9529,0.9529,0.9529,0.9579,0.9579,0.9579,0.9529,0.9579,0.9579,0.9529,0.9579,0.9579,0.9529,0.9579,0.9579,0.9476,0.9256,0.9118,0.9137,0.9112,0.9096,0.9096,0.9125,0.9206,0.94,0.8951,0.8486,0.7966,0.755,0.7309,0.7228,0.7228,0.736,0.7577,0.7808,0.7984,0.8069,0.794,0.7856,0.7856,0.7896,0.7856,0.7856,0.79,0.7856,0.7856,0.8069,0.8157,0.8204,0.8432,0.852,0.852,0.852,0.8564,0.8612,0.8612,0.8612,0.8612,0.8612,0.8612,0.8612,0.8612,0.8612,0.8612,0.8612,0.8612,0.8612,0.8612,0.8612,0.8612,0.8612,0.8612,0.8612,0.8612,0.8612,0.8612,0.8612,0.8612,0.8612,0.8612,0.8612,0.8612,0.8612,0.8612,0.862,0.8649,0.8605,0.8637,0.8758,0.8794,0.881,0.881,0.8772,0.8698,0.8627,0.7699,0.6975,0.6537,0.6486,0.6443,0.6387,0.6387,0.6437,0.6537,0.6437,0.6487,0.6637,0.6537,0.6037,0.5286,0.5286,0.5286,0.5286,0.5286,0.5837,0.6584,0.9232,0.9282,0.9335,0.9579,0.9579,0.9529,0.9286,0.943,0.9529,0.9286,0.948,0.9529,0.9286,0.948,0.9426,0.8973,0.9083,0.9238,0.9328,0.9177,0.9096,0.9096,0.9286,0.9375,0.9404,0.9409,0.9034,0.8247,0.84,0.8234,0.7764,0.7764,0.7808,0.7852,0.7896,0.7812,0.7635,0.7812,0.7768,0.7595,0.7812,0.7768,0.7595,0.7812,0.7768,0.7595,0.7856,0.794,0.794,0.7988,0.8116,0.8245,0.8245,0.8428,0.8612,0.8612,0.8612,0.8612,0.8612,0.8612,0.8612,0.8612,0.8612,0.8612,0.8612,0.8612,0.8612,0.8612,0.8612,0.8612,0.8612,0.8612,0.8612,0.8612,0.8612,0.8612,0.8612,0.8612,0.8612,0.8612,0.8612,0.8612,0.8612,0.8612,0.8625,0.8771,0.8558,0.8496,0.8706,0.867,0.8751,0.8941,0.9184,0.9135,0.8788,0.8149,0.7617,0.7086,0.7068,0.6819,0.6387,0.6387,0.6637,0.7039,0.6587,0.6936,0.7739,0.7288,0.7238,0.7487,0.7487,0.7487,0.7487,0.7487,0.759,0.7739,0.8977,0.8981,0.9027,0.9126,0.9175,0.9175,0.9187,0.9179,0.9229,0.9381,0.9278,0.9179,0.9187,0.9179,0.9076,0.8825,0.8928,0.8996,0.9059,0.8985,0.8995,0.9143,0.9118,0.9055,0.9055,0.9136,0.8863,0.829,0.8294,0.8085,0.768,0.7544,0.7544,0.768,0.7544,0.7499,0.7507,0.7499,0.7408,0.7279,0.7411,0.7408,0.7279,0.7411,0.7408,0.7323,0.7591,0.768,0.7724,0.7856,0.794,0.8028,0.8028,0.8204,0.8384,0.8384,0.8476,0.8612,0.8612,0.8612,0.8612,0.8612,0.8612,0.8612,0.8612,0.8612,0.8612,0.8612,0.8612,0.8612,0.8612,0.8612,0.8612,0.8612,0.8612,0.8612,0.8612,0.8612,0.8612,0.8612,0.8612,0.8612,0.8612,0.8612,0.8637,0.8808,0.8684,0.8758,0.9072,0.9024,0.9111,0.9303,0.9453,0.9294,0.8825,0.8497,0.8108,0.7637,0.7609,0.7464,0.7238,0.7238,0.7388,0.764,0.7388,0.7537,0.7988,0.7739,0.7789,0.7988,0.7988,0.7988,0.7988,0.7988,0.7988,0.8038,0.8676,0.8726,0.8726,0.8775,0.8825,0.8829,0.8985,0.8878,0.8924,0.9278,0.9027,0.8878,0.8985,0.8878,0.8775,0.8627,0.8676,0.8726,0.8726,0.8627,0.8779,0.9084,0.8928,0.8775,0.8726,0.8775,0.8567,0.8153,0.8063,0.7809,0.7415,0.7187,0.7231,0.7415,0.7187,0.7231,0.7415,0.7187,0.7095,0.7095,0.7095,0.7095,0.7095,0.7095,0.7095,0.7139,0.7323,0.7415,0.7459,0.7632,0.7764,0.7812,0.7812,0.794,0.8113,0.8113,0.8292,0.8476,0.8564,0.8612,0.8612,0.8612,0.8612,0.8612,0.8612,0.8612,0.8612,0.8612,0.8612,0.8612,0.8612,0.8612,0.8612,0.8612,0.8612,0.8612,0.8612,0.8612,0.8612,0.8612,0.8612,0.8612,0.8612,0.8649,0.8698,0.8873,0.8876,0.8987,0.9256,0.9224,0.9238,0.9422,0.9529,0.9426,0.8977,0.8954,0.8664,0.8187,0.8115,0.8073,0.7988,0.7988,0.8088,0.8187,0.8038,0.8137,0.8386,0.8237,0.8237,0.8386,0.8386,0.8386,0.8386,0.8386,0.8336,0.8336,0.8382,0.8432,0.8528,0.8775,0.8825,0.8726,0.8482,0.8676,0.8726,0.8531,0.8676,0.8726,0.8482,0.8676,0.8577,0.8088,0.8283,0.8432,0.8432,0.8187,0.8283,0.8825,0.8825,0.8676,0.8432,0.8676,0.8425,0.7647,0.7879,0.7714,0.7139,0.7095,0.7095,0.7139,0.7095,0.7095,0.7139,0.7095,0.7095,0.7095,0.7095,0.7095,0.7095,0.7095,0.7095,0.7095,0.7139,0.7139,0.7143,0.7139,0.7323,0.7551,0.7551,0.7724,0.794,0.794,0.7944,0.8032,0.848,0.8612,0.8612,0.8612,0.8612,0.8612,0.8612,0.8612,0.8612,0.8612,0.8612,0.8612,0.8612,0.8612,0.8612,0.8612,0.8612,0.8612,0.8612,0.8612,0.8612,0.8612,0.8612,0.8612,0.8612,0.871,0.8877,0.9064,0.9037,0.8962,0.8848,0.8612,0.8616,0.8874,0.9327,0.9579,0.9529,0.9517,0.9262,0.8726,0.8715,0.8471,0.7988,0.7988,0.8283,0.8726,0.8237,0.8584,0.943,0.8928,0.9027,0.948,0.948,0.948,0.948,0.948,0.9331,0.9133,0.8137,0.8137,0.8187,0.8283,0.8283,0.8333,0.8382,0.8333,0.8382,0.863,0.8432,0.8333,0.8382,0.8333,0.8233,0.8041,0.8088,0.8137,0.8137,0.8038,0.8088,0.8287,0.8283,0.8237,0.8137,0.8237,0.8133,0.7729,0.7736,0.7581,0.7282,0.7139,0.7095,0.7095,0.7095,0.7095,0.7095,0.7095,0.7095,0.7095,0.7095,0.7095,0.7095,0.7095,0.7095,0.7095,0.7095,0.7095,0.7095,0.7095,0.7187,0.7234,0.7234,0.7455,0.7701,0.7934,0.808,0.82,0.8387,0.8368,0.8364,0.8475,0.8557,0.8597,0.8479,0.8557,0.8612,0.8612,0.8612,0.8612,0.8612,0.8612,0.8612,0.8612,0.8612,0.8612,0.8612,0.8612,0.8612,0.8612,0.8612,0.8565,0.8491,0.8513,0.8624,0.8764,0.8749,0.8754,0.8817,0.8878,0.8935,0.9031,0.9232,0.943,0.9579,0.9579,0.9476,0.9278,0.9278,0.9179,0.8981,0.8981,0.908,0.9278,0.908,0.9229,0.9579,0.9377,0.9426,0.9579,0.9579,0.9579,0.9579,0.9579,0.9529,0.948,0.7988,0.7988,0.7988,0.7988,0.7988,0.8038,0.8237,0.8137,0.8137,0.8478,0.8233,0.8088,0.8237,0.8088,0.7988,0.7988,0.7988,0.7988,0.7988,0.7988,0.7988,0.7988,0.7988,0.7988,0.7988,0.7988,0.7914,0.7811,0.7668,0.7519,0.7412,0.7214,0.7095,0.7095,0.7095,0.7095,0.7095,0.7095,0.7095,0.7095,0.7095,0.7095,0.7095,0.7095,0.7095,0.7095,0.7095,0.7095,0.7095,0.7095,0.7095,0.7095,0.7095,0.7265,0.752,0.7861,0.8027,0.8106,0.8153,0.8127,0.8166,0.8326,0.8454,0.8489,0.8375,0.8495,0.8592,0.8506,0.8641,0.8735,0.8641,0.8686,0.8735,0.8735,0.8735,0.8735,0.8641,0.8686,0.8735,0.8641,0.8641,0.8595,0.8482,0.8498,0.8488,0.8575,0.8635,0.8664,0.8673,0.8931,0.9034,0.8935,0.9133,0.9232,0.9327,0.943,0.9529,0.9579,0.9579,0.9579,0.9579,0.9579,0.9579,0.9579,0.9579,0.9579,0.9579,0.9579,0.9579,0.9579,0.9579,0.9579,0.9579,0.9579,0.9529,0.948,0.7988,0.7988,0.7988,0.7988,0.7988,0.7988,0.7988,0.7988,0.7988,0.7988,0.7988,0.7988,0.7988,0.7988,0.7988,0.7988,0.7988,0.7988,0.7988,0.7988,0.7988,0.7988,0.7988,0.7988,0.7988,0.7988,0.7917,0.7814,0.7672,0.7522,0.7415,0.7214,0.7095,0.7095,0.7095,0.7095,0.7095,0.7095,0.7095,0.7095,0.7095,0.7095,0.7095,0.7095,0.7095,0.7095,0.7098,0.7098,0.7098,0.7098,0.7098,0.7098,0.7098,0.7251,0.745,0.7556,0.76,0.7651,0.7832,0.7922,0.7969,0.8247,0.8294,0.829,0.8294,0.8524,0.8613,0.8337,0.8718,0.8999,0.8757,0.8901,0.9096,0.9096,0.9096,0.8999,0.8757,0.8952,0.8999,0.8757,0.8707,0.8707,0.8711,0.8632,0.859,0.8594,0.8735,0.8676,0.8432,0.8627,0.8676,0.8432,0.8935,0.908,0.8825,0.908,0.9335,0.9579,0.9579,0.9579,0.9579,0.9579,0.9579,0.9579,0.9579,0.9579,0.9579,0.9579,0.9579,0.9579,0.9579,0.9579,0.9579,0.9579,0.943,0.9236,0.7942,0.7988,0.7988,0.7988,0.7988,0.7988,0.7988,0.7988,0.7988,0.7988,0.7988,0.7988,0.7988,0.7988,0.7988,0.7988,0.7988,0.7988,0.7988,0.7988,0.7988,0.7988,0.7988,0.7988,0.7988,0.7988,0.7968,0.7921,0.7723,0.7577,0.7526,0.7216,0.7095,0.7095,0.7095,0.7095,0.7095,0.7095,0.7095,0.7095,0.7095,0.7095,0.7095,0.7095,0.7095,0.7109,0.7261,0.7302,0.7319,0.7428,0.7461,0.7461,0.7461,0.7563,0.7689,0.7736,0.7824,0.7909,0.7955,0.7955,0.8028,0.8161,0.8288,0.8276,0.8251,0.847,0.866,0.8617,0.8855,0.9096,0.8999,0.9049,0.9096,0.9096,0.9096,0.9049,0.8999,0.9049,0.9049,0.8999,0.8999,0.8953,0.893,0.8896,0.878,0.8505,0.8308,0.8187,0.8137,0.8382,0.8482,0.8382,0.8531,0.8783,0.908,0.8977,0.9031,0.9331,0.9331,0.943,0.9579,0.9579,0.9579,0.9579,0.9579,0.9579,0.9579,0.9579,0.9579,0.9579,0.9579,0.9579,0.9579,0.9579,0.9529,0.948,0.7939,0.7892,0.7892,0.7988,0.7988,0.7988,0.7988,0.7988,0.7988,0.7988,0.7988,0.7988,0.7988,0.7988,0.7988,0.7988,0.7988,0.7988,0.7988,0.7988,0.7988,0.7988,0.7988,0.7988,0.7988,0.7988,0.7988,0.7988,0.7743,0.76,0.7594,0.724,0.7095,0.7095,0.7095,0.7095,0.7095,0.7095,0.7095,0.7095,0.7095,0.7095,0.7095,0.7095,0.7095,0.7109,0.7248,0.7319,0.7433,0.7478,0.755,0.7611,0.7665,0.7743,0.7824,0.7882,0.7917,0.7988,0.7988,0.7988,0.8018,0.808,0.8129,0.8176,0.8129,0.8363,0.8578,0.8578,0.8873,0.9116,0.9116,0.9212,0.9307,0.9307,0.9307,0.926,0.9164,0.9212,0.926,0.9164,0.9116,0.9112,0.9065,0.8975,0.8818,0.8574,0.8432,0.8283,0.8187,0.8432,0.8482,0.8237,0.8432,0.868,0.8886,0.8829,0.8977,0.9381,0.9381,0.943,0.9579,0.9579,0.9579,0.9579,0.9579,0.9579,0.9579,0.9579,0.9579,0.9579,0.9579,0.9579,0.9579,0.9579,0.9579,0.9579,0.7889,0.7793,0.7693,0.7942,0.7988,0.7988,0.7988,0.7988,0.7988,0.7988,0.7988,0.7988,0.7988,0.7988,0.7988,0.7988,0.7988,0.7988,0.7988,0.7988,0.7988,0.7988,0.7988,0.7988,0.7988,0.7988,0.7988,0.7988,0.7743,0.76,0.7594,0.724,0.7095,0.7095,0.7095,0.7095,0.7095,0.7095,0.7095,0.7095,0.7095,0.7095,0.7095,0.7095,0.7095,0.7098,0.7112,0.7251,0.7419,0.7446,0.7512,0.7662,0.779,0.7831,0.7858,0.7948,0.7988,0.7988,0.7988,0.7988,0.7988,0.7988,0.7988,0.7988,0.7988,0.8187,0.8382,0.8382,0.8783,0.9183,0.9187,0.9381,0.9579,0.9579,0.9579,0.9529,0.9282,0.943,0.9529,0.9282,0.9236,0.9236,0.9236,0.8981,0.8825,0.8825,0.8825,0.8676,0.8432,0.8627,0.8528,0.8088,0.8531,0.8676,0.8482,0.8726,0.9076,0.9579,0.9579,0.9579,0.9579,0.9579,0.9579,0.9579,0.9579,0.9579,0.9579,0.9579,0.9579,0.9579,0.9579,0.9579,0.9579,0.9579,0.9579,0.9579,0.7889,0.7939,0.7942,0.7988,0.7988,0.7988,0.7988,0.7988,0.7988,0.7988,0.7988,0.7988,0.7988,0.7988,0.7988,0.7988,0.7988,0.7988,0.7988,0.7988,0.7988,0.7988,0.7988,0.7988,0.7988,0.7988,0.7988,0.7988,0.7743,0.76,0.7594,0.724,0.7095,0.7095,0.7095,0.7095,0.7095,0.7095,0.7095,0.7095,0.7095,0.7095,0.7095,0.7095,0.7095,0.7112,0.7278,0.7343,0.7453,0.7638,0.7818,0.7901,0.7931,0.7941,0.7948,0.7978,0.7988,0.7988,0.7988,0.7988,0.7988,0.7988,0.7988,0.7988,0.7988,0.8187,0.8382,0.8382,0.868,0.8928,0.9183,0.9236,0.9331,0.9579,0.9579,0.9579,0.9529,0.9579,0.9579,0.9529,0.9529,0.9529,0.9529,0.9282,0.9133,0.9133,0.8928,0.8775,0.8726,0.8581,0.8531,0.8627,0.8531,0.868,0.9034,0.9084,0.9183,0.9286,0.9286,0.9381,0.9579,0.9579,0.9579,0.9579,0.9579,0.9579,0.9579,0.9579,0.9579,0.9579,0.9579,0.9579,0.9579,0.9381,0.943,0.9579,0.7693,0.759,0.7543,0.7939,0.7892,0.7842,0.7988,0.7988,0.7988,0.7988,0.7988,0.7988,0.7988,0.7988,0.7988,0.7988,0.7988,0.7988,0.7988,0.7988,0.7988,0.7988,0.7988,0.7988,0.7988,0.7988,0.7988,0.7988,0.7743,0.76,0.7594,0.724,0.7095,0.7095,0.7095,0.7095,0.7095,0.7095,0.7095,0.7095,0.7095,0.7095,0.7095,0.7095,0.7095,0.7105,0.7231,0.7356,0.7512,0.7736,0.7913,0.7988,0.7988,0.7988,0.7988,0.7988,0.7988,0.7988,0.7988,0.7988,0.7988,0.7988,0.7988,0.7988,0.7988,0.8088,0.8237,0.8382,0.8531,0.868,0.8981,0.9133,0.9236,0.9381,0.9529,0.9579,0.9579,0.9579,0.9579,0.9579,0.9579,0.9579,0.9579,0.948,0.9381,0.9381,0.9278,0.9126,0.8981,0.8882,0.8783,0.8825,0.8779,0.8935,0.9187,0.9187,0.9187,0.9187,0.9335,0.948,0.9579,0.9579,0.9529,0.943,0.943,0.9331,0.9225,0.9225,0.9225,0.9225,0.9225,0.9225,0.9225,0.908,0.908,0.9175,0.7394,0.7194,0.7092,0.7793,0.7743,0.7696,0.7942,0.7988,0.7988,0.7988,0.7988,0.7988,0.7988,0.7988,0.7988,0.7988,0.7988,0.7988,0.7988,0.7988,0.7988,0.7988,0.7988,0.7988,0.7988,0.7988,0.7988,0.7988,0.777,0.7624,0.7594,0.7312,0.7122,0.7095,0.7095,0.7095,0.7095,0.7095,0.7095,0.7095,0.7095,0.7095,0.7095,0.7095,0.7112,0.7132,0.7105,0.7294,0.7617,0.7736,0.7892,0.7988,0.7988,0.7988,0.7988,0.7988,0.7988,0.7988,0.7988,0.7988,0.7988,0.7988,0.7988,0.8038,0.8233,0.8137,0.8088,0.8283,0.8333,0.8432,0.8676,0.8931,0.9084,0.9133,0.9381,0.9529,0.9529,0.9579,0.9579,0.9579,0.9579,0.9579,0.9579,0.9579,0.9579,0.9579,0.9579,0.948,0.9286,0.9232,0.913,0.8924,0.913,0.9232,0.9282,0.9232,0.9187,0.9187,0.9381,0.9476,0.9476,0.9476,0.9331,0.9133,0.9133,0.9031,0.8825,0.8825,0.8825,0.8825,0.8825,0.8825,0.8825,0.8825,0.8726,0.8676,0.7188,0.7188,0.7241,0.7593,0.7646,0.7696,0.7942,0.7988,0.7988,0.7988,0.7988,0.7988,0.7988,0.7988,0.7988,0.7988,0.7988,0.7988,0.7988,0.7988,0.7988,0.7988,0.7988,0.7988,0.7988,0.7988,0.7988,0.7988,0.7868,0.7719,0.7597,0.7421,0.7268,0.7095,0.7095,0.7095,0.7095,0.7095,0.7095,0.7095,0.7095,0.7095,0.7095,0.7095,0.7224,0.7322,0.7142,0.7294,0.7604,0.7624,0.7811,0.7988,0.7988,0.7988,0.7988,0.7988,0.7988,0.7988,0.7988,0.7988,0.7988,0.7988,0.7988,0.8237,0.9167,0.8676,0.7988,0.8038,0.8038,0.8137,0.8382,0.8482,0.8581,0.8825,0.908,0.9236,0.9236,0.943,0.9579,0.9579,0.9579,0.9579,0.9579,0.9579,0.9579,0.9579,0.9579,0.9579,0.9529,0.9335,0.9282,0.948,0.9282,0.9331,0.9529,0.9331,0.9187,0.9187,0.8977,0.8924,0.8924,0.8924,0.8874,0.8874,0.8874,0.8825,0.8825,0.8825,0.8825,0.8825,0.8825,0.8825,0.8825,0.8825,0.8528,0.8137,0.6942,0.6839,0.6939,0.7497,0.7494,0.754,0.7939,0.7988,0.7939,0.7793,0.7892,0.7939,0.7793,0.7892,0.7988,0.7988,0.7988,0.7988,0.7988,0.7988,0.7988,0.7988,0.7988,0.7988,0.7988,0.7988,0.7988,0.7988,0.7885,0.774,0.7597,0.7444,0.7288,0.7095,0.7095,0.7095,0.7095,0.7095,0.7095,0.7102,0.7234,0.7272,0.7272,0.7272,0.7312,0.7409,0.7292,0.7411,0.7611,0.7692,0.7862,0.7988,0.7988,0.7988,0.7988,0.7988,0.7988,0.7988,0.7988,0.7988,0.8137,0.8726,0.8432,0.8432,1.0096,0.9657,0.8874,0.8874,0.8432,0.8038,0.8137,0.8287,0.8432,0.8577,0.8779,0.8977,0.8977,0.9076,0.9229,0.9381,0.9385,0.943,0.9579,0.9579,0.9579,0.9579,0.9579,0.9579,0.9579,0.948,0.948,0.9579,0.948,0.948,0.9579,0.9335,0.9187,0.9187,0.8928,0.8825,0.8825,0.8825,0.8726,0.8581,0.8581,0.8482,0.8333,0.8333,0.8333,0.8333,0.8333,0.8333,0.8333,0.8333,0.8187,0.8041]}]]